<?xml version='1.0' encoding='UTF-8'?><gpx version="1.1" creator="JPX - https://github.com/jenetics/jpx" xmlns="http://www.topografix.com/GPX/1/1"><trk><trkseg><trkpt lat="44.7377529" lon="9.2801331"><ele>942.0</ele><time>2026-04-19T12:46:06.729Z</time></trkpt><trkpt lat="44.7378059" lon="9.2802542"><ele>942.0</ele><time>2026-04-19T12:46:08.728Z</time></trkpt><trkpt lat="44.7378336" lon="9.2803493"><ele>942.0</ele><time>2026-04-19T12:46:09.728Z</time></trkpt><trkpt lat="44.7378586" lon="9.2804374"><ele>942.0</ele><time>2026-04-19T12:46:10.729Z</time></trkpt><trkpt lat="44.7379267" lon="9.2806127"><ele>942.0</ele><time>2026-04-19T12:46:12.729Z</time></trkpt><trkpt lat="44.7380087" lon="9.2807382"><ele>943.6666666666666</ele><time>2026-04-19T12:46:14.729Z</time></trkpt><trkpt lat="44.7380727" lon="9.2808319"><ele>945.3333333333333</ele><time>2026-04-19T12:46:16.729Z</time></trkpt><trkpt lat="44.7381134" lon="9.2809306"><ele>947.0</ele><time>2026-04-19T12:46:18.729Z</time></trkpt><trkpt lat="44.7381652" lon="9.2810106"><ele>948.6666666666666</ele><time>2026-04-19T12:46:20.729Z</time></trkpt><trkpt lat="44.7381808" lon="9.2811108"><ele>950.3333333333333</ele><time>2026-04-19T12:46:22.729Z</time></trkpt><trkpt lat="44.7381615" lon="9.2812169"><ele>952.0</ele><time>2026-04-19T12:46:24.728Z</time></trkpt><trkpt lat="44.7381536" lon="9.2813253"><ele>952.8</ele><time>2026-04-19T12:46:26.728Z</time></trkpt><trkpt lat="44.738147" lon="9.2815104"><ele>953.6</ele><time>2026-04-19T12:46:28.729Z</time></trkpt><trkpt lat="44.738147" lon="9.2816267"><ele>954.3999999999999</ele><time>2026-04-19T12:46:29.729Z</time></trkpt><trkpt lat="44.7381548" lon="9.2817536"><ele>955.1999999999999</ele><time>2026-04-19T12:46:30.729Z</time></trkpt><trkpt lat="44.7381726" lon="9.2819166"><ele>956.0</ele><time>2026-04-19T12:46:31.729Z</time></trkpt><trkpt lat="44.7381937" lon="9.2820819"><ele>956.0</ele><time>2026-04-19T12:46:32.729Z</time></trkpt><trkpt lat="44.7382036" lon="9.2822358"><ele>955.9999999999999</ele><time>2026-04-19T12:46:33.729Z</time></trkpt><trkpt lat="44.7382113" lon="9.2823849"><ele>955.9999999999999</ele><time>2026-04-19T12:46:34.729Z</time></trkpt><trkpt lat="44.7381862" lon="9.2825378"><ele>956.0</ele><time>2026-04-19T12:46:35.729Z</time></trkpt><trkpt lat="44.7381386" lon="9.2826837"><ele>956.0</ele><time>2026-04-19T12:46:36.728Z</time></trkpt><trkpt lat="44.73808" lon="9.2828266"><ele>956.0</ele><time>2026-04-19T12:46:37.729Z</time></trkpt><trkpt lat="44.7380272" lon="9.2829665"><ele>955.9999999999999</ele><time>2026-04-19T12:46:38.729Z</time></trkpt><trkpt lat="44.7379827" lon="9.2831033"><ele>955.9999999999999</ele><time>2026-04-19T12:46:39.729Z</time></trkpt><trkpt lat="44.7379527" lon="9.2832332"><ele>956.0</ele><time>2026-04-19T12:46:40.729Z</time></trkpt><trkpt lat="44.7379458" lon="9.2833495"><ele>956.0</ele><time>2026-04-19T12:46:41.729Z</time></trkpt><trkpt lat="44.7379573" lon="9.2834588"><ele>955.5999999999999</ele><time>2026-04-19T12:46:42.729Z</time></trkpt><trkpt lat="44.7379984" lon="9.2835571"><ele>955.1999999999999</ele><time>2026-04-19T12:46:43.729Z</time></trkpt><trkpt lat="44.7380722" lon="9.2836487"><ele>954.8000000000001</ele><time>2026-04-19T12:46:44.728Z</time></trkpt><trkpt lat="44.7381654" lon="9.2837448"><ele>954.4000000000001</ele><time>2026-04-19T12:46:45.728Z</time></trkpt><trkpt lat="44.7382831" lon="9.2838547"><ele>954.0</ele><time>2026-04-19T12:46:46.729Z</time></trkpt><trkpt lat="44.7384337" lon="9.2839696"><ele>957.25</ele><time>2026-04-19T12:46:47.729Z</time></trkpt><trkpt lat="44.7385622" lon="9.2840931"><ele>960.5</ele><time>2026-04-19T12:46:48.729Z</time></trkpt><trkpt lat="44.7386546" lon="9.2842327"><ele>963.75</ele><time>2026-04-19T12:46:49.729Z</time></trkpt><trkpt lat="44.7387137" lon="9.284392"><ele>967.0</ele><time>2026-04-19T12:46:50.729Z</time></trkpt><trkpt lat="44.7387673" lon="9.2845729"><ele>964.75</ele><time>2026-04-19T12:46:51.728Z</time></trkpt><trkpt lat="44.7388168" lon="9.284767"><ele>962.5</ele><time>2026-04-19T12:46:52.729Z</time></trkpt><trkpt lat="44.7388559" lon="9.2849751"><ele>960.25</ele><time>2026-04-19T12:46:53.729Z</time></trkpt><trkpt lat="44.7388975" lon="9.2851774"><ele>958.0</ele><time>2026-04-19T12:46:54.729Z</time></trkpt><trkpt lat="44.738939" lon="9.2853578"><ele>958.0</ele><time>2026-04-19T12:46:55.728Z</time></trkpt><trkpt lat="44.7389606" lon="9.2855214"><ele>958.0</ele><time>2026-04-19T12:46:56.729Z</time></trkpt><trkpt lat="44.7389533" lon="9.2856858"><ele>958.0</ele><time>2026-04-19T12:46:57.729Z</time></trkpt><trkpt lat="44.7389217" lon="9.2858389"><ele>958.0</ele><time>2026-04-19T12:46:58.728Z</time></trkpt><trkpt lat="44.7388896" lon="9.2860047"><ele>956.5999999999999</ele><time>2026-04-19T12:46:59.729Z</time></trkpt><trkpt lat="44.7388633" lon="9.2861622"><ele>955.1999999999999</ele><time>2026-04-19T12:47:00.729Z</time></trkpt><trkpt lat="44.7388562" lon="9.2863103"><ele>953.8</ele><time>2026-04-19T12:47:01.728Z</time></trkpt><trkpt lat="44.7388828" lon="9.2864355"><ele>952.4</ele><time>2026-04-19T12:47:02.729Z</time></trkpt><trkpt lat="44.7389337" lon="9.2865413"><ele>951.0</ele><time>2026-04-19T12:47:03.728Z</time></trkpt><trkpt lat="44.7390056" lon="9.2866442"><ele>950.1999999999999</ele><time>2026-04-19T12:47:04.729Z</time></trkpt><trkpt lat="44.7390923" lon="9.2867561"><ele>949.3999999999999</ele><time>2026-04-19T12:47:05.729Z</time></trkpt><trkpt lat="44.7391731" lon="9.286881"><ele>948.6</ele><time>2026-04-19T12:47:06.728Z</time></trkpt><trkpt lat="44.7392343" lon="9.2870093"><ele>947.8</ele><time>2026-04-19T12:47:07.728Z</time></trkpt><trkpt lat="44.7392709" lon="9.2871356"><ele>947.0</ele><time>2026-04-19T12:47:08.729Z</time></trkpt><trkpt lat="44.7392812" lon="9.2872717"><ele>945.5</ele><time>2026-04-19T12:47:09.729Z</time></trkpt><trkpt lat="44.7392693" lon="9.2874205"><ele>944.0</ele><time>2026-04-19T12:47:10.729Z</time></trkpt><trkpt lat="44.7392443" lon="9.2875812"><ele>942.5</ele><time>2026-04-19T12:47:11.729Z</time></trkpt><trkpt lat="44.7392181" lon="9.2877522"><ele>941.0</ele><time>2026-04-19T12:47:12.728Z</time></trkpt><trkpt lat="44.7391994" lon="9.2879178"><ele>941.0</ele><time>2026-04-19T12:47:13.729Z</time></trkpt><trkpt lat="44.7391955" lon="9.2880808"><ele>941.0</ele><time>2026-04-19T12:47:14.729Z</time></trkpt><trkpt lat="44.7392038" lon="9.2882334"><ele>941.0</ele><time>2026-04-19T12:47:15.729Z</time></trkpt><trkpt lat="44.7392382" lon="9.2883879"><ele>941.0</ele><time>2026-04-19T12:47:16.728Z</time></trkpt><trkpt lat="44.7392914" lon="9.2885516"><ele>939.5</ele><time>2026-04-19T12:47:17.729Z</time></trkpt><trkpt lat="44.7393509" lon="9.2887133"><ele>938.0</ele><time>2026-04-19T12:47:18.729Z</time></trkpt><trkpt lat="44.7394002" lon="9.2888686"><ele>936.5</ele><time>2026-04-19T12:47:19.728Z</time></trkpt><trkpt lat="44.73943" lon="9.289016"><ele>935.0</ele><time>2026-04-19T12:47:20.729Z</time></trkpt><trkpt lat="44.739441" lon="9.289165"><ele>934.75</ele><time>2026-04-19T12:47:21.729Z</time></trkpt><trkpt lat="44.7394267" lon="9.2893248"><ele>934.5</ele><time>2026-04-19T12:47:22.729Z</time></trkpt><trkpt lat="44.7393934" lon="9.2894923"><ele>934.25</ele><time>2026-04-19T12:47:23.729Z</time></trkpt><trkpt lat="44.739334" lon="9.2896553"><ele>934.0</ele><time>2026-04-19T12:47:24.729Z</time></trkpt><trkpt lat="44.7392938" lon="9.2898101"><ele>934.0</ele><time>2026-04-19T12:47:25.729Z</time></trkpt><trkpt lat="44.7392801" lon="9.289949"><ele>934.0000000000001</ele><time>2026-04-19T12:47:26.729Z</time></trkpt><trkpt lat="44.7392894" lon="9.2900845"><ele>934.0000000000001</ele><time>2026-04-19T12:47:27.729Z</time></trkpt><trkpt lat="44.7393185" lon="9.2902037"><ele>934.0</ele><time>2026-04-19T12:47:28.728Z</time></trkpt><trkpt lat="44.7393663" lon="9.2903275"><ele>934.0</ele><time>2026-04-19T12:47:29.729Z</time></trkpt><trkpt lat="44.7394263" lon="9.2904619"><ele>940.2</ele><time>2026-04-19T12:47:30.729Z</time></trkpt><trkpt lat="44.7394809" lon="9.290605"><ele>946.4000000000001</ele><time>2026-04-19T12:47:31.728Z</time></trkpt><trkpt lat="44.7395084" lon="9.2907416"><ele>952.6</ele><time>2026-04-19T12:47:32.729Z</time></trkpt><trkpt lat="44.7395054" lon="9.2908845"><ele>958.8</ele><time>2026-04-19T12:47:33.729Z</time></trkpt><trkpt lat="44.7394654" lon="9.2910211"><ele>965.0</ele><time>2026-04-19T12:47:34.728Z</time></trkpt><trkpt lat="44.7394116" lon="9.2911433"><ele>964.0</ele><time>2026-04-19T12:47:35.729Z</time></trkpt><trkpt lat="44.7393802" lon="9.2912639"><ele>963.0</ele><time>2026-04-19T12:47:36.729Z</time></trkpt><trkpt lat="44.7393726" lon="9.2913907"><ele>962.0</ele><time>2026-04-19T12:47:37.729Z</time></trkpt><trkpt lat="44.7394141" lon="9.2915397"><ele>961.0</ele><time>2026-04-19T12:47:38.728Z</time></trkpt><trkpt lat="44.7394899" lon="9.2916998"><ele>960.0</ele><time>2026-04-19T12:47:39.729Z</time></trkpt><trkpt lat="44.7395575" lon="9.2918704"><ele>960.0</ele><time>2026-04-19T12:47:40.728Z</time></trkpt><trkpt lat="44.7396312" lon="9.2920574"><ele>960.0</ele><time>2026-04-19T12:47:41.728Z</time></trkpt><trkpt lat="44.7396921" lon="9.2922426"><ele>960.0</ele><time>2026-04-19T12:47:42.729Z</time></trkpt><trkpt lat="44.7397418" lon="9.2924202"><ele>960.0</ele><time>2026-04-19T12:47:43.729Z</time></trkpt><trkpt lat="44.7398001" lon="9.2925681"><ele>958.2</ele><time>2026-04-19T12:47:44.728Z</time></trkpt><trkpt lat="44.7398669" lon="9.2926969"><ele>956.4</ele><time>2026-04-19T12:47:45.729Z</time></trkpt><trkpt lat="44.7399328" lon="9.29282"><ele>954.5999999999999</ele><time>2026-04-19T12:47:46.728Z</time></trkpt><trkpt lat="44.7400062" lon="9.2929469"><ele>952.8</ele><time>2026-04-19T12:47:47.728Z</time></trkpt><trkpt lat="44.7400609" lon="9.2930646"><ele>951.0</ele><time>2026-04-19T12:47:48.728Z</time></trkpt><trkpt lat="44.7400951" lon="9.2931911"><ele>949.1999999999999</ele><time>2026-04-19T12:47:49.728Z</time></trkpt><trkpt lat="44.7401094" lon="9.2933308"><ele>947.3999999999999</ele><time>2026-04-19T12:47:50.729Z</time></trkpt><trkpt lat="44.740114" lon="9.2934725"><ele>945.6</ele><time>2026-04-19T12:47:51.729Z</time></trkpt><trkpt lat="44.7401209" lon="9.293609"><ele>943.8</ele><time>2026-04-19T12:47:52.729Z</time></trkpt><trkpt lat="44.740145" lon="9.29374"><ele>942.0</ele><time>2026-04-19T12:47:53.729Z</time></trkpt><trkpt lat="44.7401874" lon="9.29387"><ele>946.8</ele><time>2026-04-19T12:47:54.729Z</time></trkpt><trkpt lat="44.7402298" lon="9.2940217"><ele>951.6</ele><time>2026-04-19T12:47:55.728Z</time></trkpt><trkpt lat="44.7402581" lon="9.2941796"><ele>956.3999999999999</ele><time>2026-04-19T12:47:56.729Z</time></trkpt><trkpt lat="44.7402722" lon="9.2943353"><ele>961.1999999999999</ele><time>2026-04-19T12:47:57.729Z</time></trkpt><trkpt lat="44.7402956" lon="9.2944777"><ele>966.0</ele><time>2026-04-19T12:47:58.729Z</time></trkpt><trkpt lat="44.740331" lon="9.294587"><ele>966.0</ele><time>2026-04-19T12:47:59.728Z</time></trkpt><trkpt lat="44.7403783" lon="9.2946735"><ele>966.0</ele><time>2026-04-19T12:48:00.729Z</time></trkpt><trkpt lat="44.7404477" lon="9.2947445"><ele>966.0</ele><time>2026-04-19T12:48:01.729Z</time></trkpt><trkpt lat="44.7405361" lon="9.2947888"><ele>966.0</ele><time>2026-04-19T12:48:02.728Z</time></trkpt><trkpt lat="44.7406269" lon="9.2947862"><ele>966.0</ele><time>2026-04-19T12:48:03.729Z</time></trkpt><trkpt lat="44.7407172" lon="9.2947512"><ele>966.0</ele><time>2026-04-19T12:48:04.729Z</time></trkpt><trkpt lat="44.7408235" lon="9.294681"><ele>966.0</ele><time>2026-04-19T12:48:05.729Z</time></trkpt><trkpt lat="44.7409307" lon="9.2946415"><ele>965.9999999999999</ele><time>2026-04-19T12:48:06.728Z</time></trkpt><trkpt lat="44.7410224" lon="9.2946362"><ele>965.9999999999999</ele><time>2026-04-19T12:48:07.729Z</time></trkpt><trkpt lat="44.7411049" lon="9.2946647"><ele>966.0</ele><time>2026-04-19T12:48:08.729Z</time></trkpt><trkpt lat="44.7411839" lon="9.2947355"><ele>966.0</ele><time>2026-04-19T12:48:09.729Z</time></trkpt><trkpt lat="44.7412431" lon="9.2948365"><ele>965.5</ele><time>2026-04-19T12:48:10.729Z</time></trkpt><trkpt lat="44.7412538" lon="9.2949901"><ele>965.0</ele><time>2026-04-19T12:48:11.728Z</time></trkpt><trkpt lat="44.7412426" lon="9.2951727"><ele>964.5</ele><time>2026-04-19T12:48:12.729Z</time></trkpt><trkpt lat="44.7412118" lon="9.2953587"><ele>964.0</ele><time>2026-04-19T12:48:13.729Z</time></trkpt><trkpt lat="44.7412094" lon="9.2955325"><ele>963.4000000000001</ele><time>2026-04-19T12:48:14.729Z</time></trkpt><trkpt lat="44.7412001" lon="9.2956878"><ele>962.8000000000001</ele><time>2026-04-19T12:48:15.728Z</time></trkpt><trkpt lat="44.7411854" lon="9.2958178"><ele>962.1999999999999</ele><time>2026-04-19T12:48:16.729Z</time></trkpt><trkpt lat="44.7411553" lon="9.295937"><ele>961.5999999999999</ele><time>2026-04-19T12:48:17.729Z</time></trkpt><trkpt lat="44.7410974" lon="9.2960248"><ele>961.0</ele><time>2026-04-19T12:48:18.728Z</time></trkpt><trkpt lat="44.7410197" lon="9.2960753"><ele>954.0</ele><time>2026-04-19T12:48:19.728Z</time></trkpt><trkpt lat="44.7409124" lon="9.2960942"><ele>947.0</ele><time>2026-04-19T12:48:20.729Z</time></trkpt><trkpt lat="44.7407844" lon="9.2961018"><ele>940.0</ele><time>2026-04-19T12:48:21.729Z</time></trkpt><trkpt lat="44.7406492" lon="9.2960964"><ele>933.0</ele><time>2026-04-19T12:48:22.729Z</time></trkpt><trkpt lat="44.7405295" lon="9.2961213"><ele>933.0</ele><time>2026-04-19T12:48:23.729Z</time></trkpt><trkpt lat="44.7404334" lon="9.2961605"><ele>933.0</ele><time>2026-04-19T12:48:24.729Z</time></trkpt><trkpt lat="44.74037" lon="9.2962524"><ele>933.0</ele><time>2026-04-19T12:48:25.729Z</time></trkpt><trkpt lat="44.7403007" lon="9.296383"><ele>933.0</ele><time>2026-04-19T12:48:26.729Z</time></trkpt><trkpt lat="44.740242" lon="9.2965525"><ele>933.0</ele><time>2026-04-19T12:48:27.729Z</time></trkpt><trkpt lat="44.740184" lon="9.2967405"><ele>931.3333333333333</ele><time>2026-04-19T12:48:28.729Z</time></trkpt><trkpt lat="44.7401189" lon="9.2969382"><ele>929.6666666666666</ele><time>2026-04-19T12:48:29.728Z</time></trkpt><trkpt lat="44.740049" lon="9.2971452"><ele>928.0</ele><time>2026-04-19T12:48:30.729Z</time></trkpt><trkpt lat="44.7399758" lon="9.2973645"><ele>928.0</ele><time>2026-04-19T12:48:31.728Z</time></trkpt><trkpt lat="44.7399079" lon="9.2976007"><ele>928.0</ele><time>2026-04-19T12:48:32.729Z</time></trkpt><trkpt lat="44.7398381" lon="9.2978408"><ele>928.0</ele><time>2026-04-19T12:48:33.728Z</time></trkpt><trkpt lat="44.7397589" lon="9.2980716"><ele>930.0</ele><time>2026-04-19T12:48:34.729Z</time></trkpt><trkpt lat="44.739689" lon="9.2983058"><ele>932.0</ele><time>2026-04-19T12:48:35.729Z</time></trkpt><trkpt lat="44.7396248" lon="9.2985391"><ele>934.0</ele><time>2026-04-19T12:48:36.729Z</time></trkpt><trkpt lat="44.7395673" lon="9.2987511"><ele>936.3333333333333</ele><time>2026-04-19T12:48:37.729Z</time></trkpt><trkpt lat="44.7394905" lon="9.2989466"><ele>938.6666666666667</ele><time>2026-04-19T12:48:38.729Z</time></trkpt><trkpt lat="44.7394041" lon="9.2991416"><ele>941.0</ele><time>2026-04-19T12:48:39.729Z</time></trkpt><trkpt lat="44.7393041" lon="9.2993191"><ele>938.3333333333334</ele><time>2026-04-19T12:48:40.729Z</time></trkpt><trkpt lat="44.7391933" lon="9.299509"><ele>935.6666666666667</ele><time>2026-04-19T12:48:41.729Z</time></trkpt><trkpt lat="44.7390775" lon="9.299707"><ele>933.0</ele><time>2026-04-19T12:48:42.729Z</time></trkpt><trkpt lat="44.7389723" lon="9.299905"><ele>933.0</ele><time>2026-04-19T12:48:43.729Z</time></trkpt><trkpt lat="44.738855" lon="9.3001038"><ele>933.0</ele><time>2026-04-19T12:48:44.728Z</time></trkpt><trkpt lat="44.7387418" lon="9.3002999"><ele>933.0</ele><time>2026-04-19T12:48:45.729Z</time></trkpt><trkpt lat="44.7386301" lon="9.3004768"><ele>930.3333333333333</ele><time>2026-04-19T12:48:46.728Z</time></trkpt><trkpt lat="44.7385182" lon="9.3006401"><ele>927.6666666666666</ele><time>2026-04-19T12:48:47.729Z</time></trkpt><trkpt lat="44.738391" lon="9.3007745"><ele>925.0</ele><time>2026-04-19T12:48:48.729Z</time></trkpt><trkpt lat="44.7382774" lon="9.3008769"><ele>925.0</ele><time>2026-04-19T12:48:49.729Z</time></trkpt><trkpt lat="44.7381714" lon="9.3009798"><ele>925.0</ele><time>2026-04-19T12:48:50.729Z</time></trkpt><trkpt lat="44.7380808" lon="9.3010857"><ele>925.0</ele><time>2026-04-19T12:48:51.729Z</time></trkpt><trkpt lat="44.7380158" lon="9.3012222"><ele>925.0</ele><time>2026-04-19T12:48:52.729Z</time></trkpt><trkpt lat="44.737984" lon="9.3013963"><ele>926.25</ele><time>2026-04-19T12:48:53.729Z</time></trkpt><trkpt lat="44.73797" lon="9.3015894"><ele>927.5</ele><time>2026-04-19T12:48:54.729Z</time></trkpt><trkpt lat="44.7379624" lon="9.3017939"><ele>928.75</ele><time>2026-04-19T12:48:55.729Z</time></trkpt><trkpt lat="44.7379574" lon="9.3020004"><ele>930.0</ele><time>2026-04-19T12:48:56.729Z</time></trkpt><trkpt lat="44.7379515" lon="9.3021767"><ele>930.25</ele><time>2026-04-19T12:48:57.729Z</time></trkpt><trkpt lat="44.7379734" lon="9.3023449"><ele>930.5</ele><time>2026-04-19T12:48:58.729Z</time></trkpt><trkpt lat="44.7380189" lon="9.3025051"><ele>930.75</ele><time>2026-04-19T12:48:59.729Z</time></trkpt><trkpt lat="44.7380969" lon="9.3026697"><ele>931.0</ele><time>2026-04-19T12:49:00.729Z</time></trkpt><trkpt lat="44.7381739" lon="9.3028358"><ele>931.0</ele><time>2026-04-19T12:49:01.729Z</time></trkpt><trkpt lat="44.7382323" lon="9.3030029"><ele>931.0</ele><time>2026-04-19T12:49:02.729Z</time></trkpt><trkpt lat="44.738266" lon="9.3031745"><ele>931.0</ele><time>2026-04-19T12:49:03.729Z</time></trkpt><trkpt lat="44.738285" lon="9.3033509"><ele>931.0</ele><time>2026-04-19T12:49:04.728Z</time></trkpt><trkpt lat="44.7382868" lon="9.3035408"><ele>929.25</ele><time>2026-04-19T12:49:05.729Z</time></trkpt><trkpt lat="44.7382825" lon="9.3037186"><ele>927.5</ele><time>2026-04-19T12:49:06.729Z</time></trkpt><trkpt lat="44.7382734" lon="9.3039002"><ele>925.75</ele><time>2026-04-19T12:49:07.729Z</time></trkpt><trkpt lat="44.7382465" lon="9.3040909"><ele>924.0</ele><time>2026-04-19T12:49:08.729Z</time></trkpt><trkpt lat="44.7382036" lon="9.3042929"><ele>924.0</ele><time>2026-04-19T12:49:09.729Z</time></trkpt><trkpt lat="44.7381549" lon="9.3045092"><ele>924.0</ele><time>2026-04-19T12:49:10.729Z</time></trkpt><trkpt lat="44.7381014" lon="9.3047393"><ele>924.0</ele><time>2026-04-19T12:49:11.729Z</time></trkpt><trkpt lat="44.7380594" lon="9.3049543"><ele>925.0</ele><time>2026-04-19T12:49:12.729Z</time></trkpt><trkpt lat="44.738022" lon="9.305157"><ele>926.0</ele><time>2026-04-19T12:49:13.728Z</time></trkpt><trkpt lat="44.7379876" lon="9.3053541"><ele>927.0</ele><time>2026-04-19T12:49:14.729Z</time></trkpt><trkpt lat="44.7379689" lon="9.3055415"><ele>928.0</ele><time>2026-04-19T12:49:15.729Z</time></trkpt><trkpt lat="44.737961" lon="9.3057319"><ele>928.75</ele><time>2026-04-19T12:49:16.728Z</time></trkpt><trkpt lat="44.7379587" lon="9.3059318"><ele>929.5</ele><time>2026-04-19T12:49:17.729Z</time></trkpt><trkpt lat="44.7379686" lon="9.306114"><ele>930.25</ele><time>2026-04-19T12:49:18.729Z</time></trkpt><trkpt lat="44.7379766" lon="9.3062714"><ele>931.0</ele><time>2026-04-19T12:49:19.729Z</time></trkpt><trkpt lat="44.7379694" lon="9.3064174"><ele>931.4</ele><time>2026-04-19T12:49:20.729Z</time></trkpt><trkpt lat="44.7379471" lon="9.3065474"><ele>931.8</ele><time>2026-04-19T12:49:21.729Z</time></trkpt><trkpt lat="44.7378935" lon="9.3066422"><ele>932.1999999999999</ele><time>2026-04-19T12:49:22.729Z</time></trkpt><trkpt lat="44.7378135" lon="9.3067152"><ele>932.5999999999999</ele><time>2026-04-19T12:49:23.729Z</time></trkpt><trkpt lat="44.7377132" lon="9.3067751"><ele>933.0</ele><time>2026-04-19T12:49:24.729Z</time></trkpt><trkpt lat="44.7375775" lon="9.3067992"><ele>929.3333333333333</ele><time>2026-04-19T12:49:25.729Z</time></trkpt><trkpt lat="44.7374268" lon="9.3067977"><ele>925.6666666666666</ele><time>2026-04-19T12:49:26.729Z</time></trkpt><trkpt lat="44.7372796" lon="9.3067966"><ele>922.0</ele><time>2026-04-19T12:49:27.729Z</time></trkpt><trkpt lat="44.7371184" lon="9.3068059"><ele>922.0</ele><time>2026-04-19T12:49:28.729Z</time></trkpt><trkpt lat="44.736955" lon="9.3068479"><ele>922.0</ele><time>2026-04-19T12:49:29.728Z</time></trkpt><trkpt lat="44.7367897" lon="9.3069117"><ele>922.0</ele><time>2026-04-19T12:49:30.728Z</time></trkpt><trkpt lat="44.7366241" lon="9.3069921"><ele>920.25</ele><time>2026-04-19T12:49:31.728Z</time></trkpt><trkpt lat="44.7364651" lon="9.3070616"><ele>918.5</ele><time>2026-04-19T12:49:32.728Z</time></trkpt><trkpt lat="44.7363239" lon="9.3071174"><ele>916.75</ele><time>2026-04-19T12:49:33.729Z</time></trkpt><trkpt lat="44.7361966" lon="9.3071701"><ele>915.0</ele><time>2026-04-19T12:49:34.728Z</time></trkpt><trkpt lat="44.7360765" lon="9.3072195"><ele>915.75</ele><time>2026-04-19T12:49:35.729Z</time></trkpt><trkpt lat="44.7359607" lon="9.307284"><ele>916.5</ele><time>2026-04-19T12:49:36.729Z</time></trkpt><trkpt lat="44.7358659" lon="9.3073607"><ele>917.25</ele><time>2026-04-19T12:49:37.728Z</time></trkpt><trkpt lat="44.7357906" lon="9.3074871"><ele>918.0</ele><time>2026-04-19T12:49:38.729Z</time></trkpt><trkpt lat="44.7357367" lon="9.307633"><ele>918.0</ele><time>2026-04-19T12:49:39.729Z</time></trkpt><trkpt lat="44.7356982" lon="9.3077995"><ele>918.0</ele><time>2026-04-19T12:49:40.728Z</time></trkpt><trkpt lat="44.735672" lon="9.3079818"><ele>918.0</ele><time>2026-04-19T12:49:41.729Z</time></trkpt><trkpt lat="44.7356552" lon="9.3081523"><ele>918.0</ele><time>2026-04-19T12:49:42.729Z</time></trkpt><trkpt lat="44.7356254" lon="9.3083096"><ele>918.5</ele><time>2026-04-19T12:49:43.729Z</time></trkpt><trkpt lat="44.7355752" lon="9.3084728"><ele>919.0</ele><time>2026-04-19T12:49:44.729Z</time></trkpt><trkpt lat="44.7354904" lon="9.3086056"><ele>919.5</ele><time>2026-04-19T12:49:45.729Z</time></trkpt><trkpt lat="44.7353839" lon="9.308721"><ele>920.0</ele><time>2026-04-19T12:49:46.729Z</time></trkpt><trkpt lat="44.7352666" lon="9.3088277"><ele>920.25</ele><time>2026-04-19T12:49:47.729Z</time></trkpt><trkpt lat="44.7351399" lon="9.3089359"><ele>920.5</ele><time>2026-04-19T12:49:48.729Z</time></trkpt><trkpt lat="44.7350293" lon="9.3090277"><ele>920.75</ele><time>2026-04-19T12:49:49.729Z</time></trkpt><trkpt lat="44.7349331" lon="9.3091188"><ele>921.0</ele><time>2026-04-19T12:49:50.729Z</time></trkpt><trkpt lat="44.7348564" lon="9.3092265"><ele>921.0</ele><time>2026-04-19T12:49:51.729Z</time></trkpt><trkpt lat="44.7347903" lon="9.3093655"><ele>921.0</ele><time>2026-04-19T12:49:52.729Z</time></trkpt><trkpt lat="44.7347628" lon="9.3095204"><ele>921.0</ele><time>2026-04-19T12:49:53.728Z</time></trkpt><trkpt lat="44.7347626" lon="9.3096798"><ele>921.0</ele><time>2026-04-19T12:49:54.729Z</time></trkpt><trkpt lat="44.7347719" lon="9.309845"><ele>920.75</ele><time>2026-04-19T12:49:55.729Z</time></trkpt><trkpt lat="44.7347758" lon="9.3100086"><ele>920.5</ele><time>2026-04-19T12:49:56.729Z</time></trkpt><trkpt lat="44.734763" lon="9.310163"><ele>920.25</ele><time>2026-04-19T12:49:57.728Z</time></trkpt><trkpt lat="44.734717" lon="9.3102988"><ele>920.0</ele><time>2026-04-19T12:49:58.729Z</time></trkpt><trkpt lat="44.7346302" lon="9.3104125"><ele>920.0</ele><time>2026-04-19T12:49:59.729Z</time></trkpt><trkpt lat="44.7345147" lon="9.3104991"><ele>920.0</ele><time>2026-04-19T12:50:00.728Z</time></trkpt><trkpt lat="44.7343963" lon="9.3105763"><ele>920.0</ele><time>2026-04-19T12:50:01.729Z</time></trkpt><trkpt lat="44.7342886" lon="9.3106334"><ele>920.0</ele><time>2026-04-19T12:50:02.729Z</time></trkpt><trkpt lat="44.734195" lon="9.310654"><ele>919.6</ele><time>2026-04-19T12:50:03.728Z</time></trkpt><trkpt lat="44.7341049" lon="9.3106215"><ele>919.2</ele><time>2026-04-19T12:50:04.728Z</time></trkpt><trkpt lat="44.7340226" lon="9.3105477"><ele>918.8</ele><time>2026-04-19T12:50:05.729Z</time></trkpt><trkpt lat="44.7339356" lon="9.3104388"><ele>918.4</ele><time>2026-04-19T12:50:06.729Z</time></trkpt><trkpt lat="44.7338545" lon="9.3103173"><ele>918.0</ele><time>2026-04-19T12:50:07.729Z</time></trkpt><trkpt lat="44.733775" lon="9.3102189"><ele>916.75</ele><time>2026-04-19T12:50:08.729Z</time></trkpt><trkpt lat="44.7336905" lon="9.3101505"><ele>915.5</ele><time>2026-04-19T12:50:09.728Z</time></trkpt><trkpt lat="44.7335926" lon="9.3101247"><ele>914.25</ele><time>2026-04-19T12:50:10.729Z</time></trkpt><trkpt lat="44.7334753" lon="9.3101452"><ele>913.0</ele><time>2026-04-19T12:50:11.729Z</time></trkpt><trkpt lat="44.7333423" lon="9.3102027"><ele>913.0</ele><time>2026-04-19T12:50:12.729Z</time></trkpt><trkpt lat="44.7331923" lon="9.3102769"><ele>913.0</ele><time>2026-04-19T12:50:13.729Z</time></trkpt><trkpt lat="44.7330293" lon="9.3103562"><ele>913.0</ele><time>2026-04-19T12:50:14.729Z</time></trkpt><trkpt lat="44.7328711" lon="9.3104258"><ele>913.0</ele><time>2026-04-19T12:50:15.729Z</time></trkpt><trkpt lat="44.7327281" lon="9.3104957"><ele>913.0</ele><time>2026-04-19T12:50:16.729Z</time></trkpt><trkpt lat="44.7325892" lon="9.3105412"><ele>913.0</ele><time>2026-04-19T12:50:17.729Z</time></trkpt><trkpt lat="44.7324445" lon="9.3105602"><ele>913.0</ele><time>2026-04-19T12:50:18.729Z</time></trkpt><trkpt lat="44.7322972" lon="9.310548"><ele>913.0</ele><time>2026-04-19T12:50:19.729Z</time></trkpt><trkpt lat="44.7321456" lon="9.3105243"><ele>913.0</ele><time>2026-04-19T12:50:20.729Z</time></trkpt><trkpt lat="44.7319838" lon="9.3104925"><ele>913.0</ele><time>2026-04-19T12:50:21.729Z</time></trkpt><trkpt lat="44.7318075" lon="9.3104492"><ele>912.3333333333333</ele><time>2026-04-19T12:50:22.729Z</time></trkpt><trkpt lat="44.7316119" lon="9.3104034"><ele>911.6666666666667</ele><time>2026-04-19T12:50:23.729Z</time></trkpt><trkpt lat="44.7314176" lon="9.3103567"><ele>911.0</ele><time>2026-04-19T12:50:24.729Z</time></trkpt><trkpt lat="44.731219" lon="9.3103239"><ele>912.0</ele><time>2026-04-19T12:50:25.729Z</time></trkpt><trkpt lat="44.7310301" lon="9.3102993"><ele>913.0</ele><time>2026-04-19T12:50:26.729Z</time></trkpt><trkpt lat="44.7308481" lon="9.3102724"><ele>914.0</ele><time>2026-04-19T12:50:27.729Z</time></trkpt><trkpt lat="44.7306716" lon="9.3102396"><ele>914.0</ele><time>2026-04-19T12:50:28.729Z</time></trkpt><trkpt lat="44.730504" lon="9.3102036"><ele>914.0</ele><time>2026-04-19T12:50:29.728Z</time></trkpt><trkpt lat="44.7303383" lon="9.3101625"><ele>914.0</ele><time>2026-04-19T12:50:30.728Z</time></trkpt><trkpt lat="44.7301716" lon="9.3101236"><ele>912.3333333333334</ele><time>2026-04-19T12:50:31.729Z</time></trkpt><trkpt lat="44.7300018" lon="9.3100802"><ele>910.6666666666667</ele><time>2026-04-19T12:50:32.729Z</time></trkpt><trkpt lat="44.7298381" lon="9.3100251"><ele>909.0</ele><time>2026-04-19T12:50:33.729Z</time></trkpt><trkpt lat="44.7296838" lon="9.3099586"><ele>909.0</ele><time>2026-04-19T12:50:34.729Z</time></trkpt><trkpt lat="44.7295299" lon="9.3098715"><ele>909.0</ele><time>2026-04-19T12:50:35.729Z</time></trkpt><trkpt lat="44.7293764" lon="9.3097566"><ele>909.0</ele><time>2026-04-19T12:50:36.729Z</time></trkpt><trkpt lat="44.7292169" lon="9.3096267"><ele>907.0</ele><time>2026-04-19T12:50:37.729Z</time></trkpt><trkpt lat="44.7290584" lon="9.3094942"><ele>905.0</ele><time>2026-04-19T12:50:38.729Z</time></trkpt><trkpt lat="44.7288947" lon="9.3094106"><ele>903.0</ele><time>2026-04-19T12:50:39.729Z</time></trkpt><trkpt lat="44.7287276" lon="9.3093309"><ele>903.0</ele><time>2026-04-19T12:50:40.729Z</time></trkpt><trkpt lat="44.7285679" lon="9.3092518"><ele>903.0</ele><time>2026-04-19T12:50:41.728Z</time></trkpt><trkpt lat="44.7284103" lon="9.3091668"><ele>903.0</ele><time>2026-04-19T12:50:42.729Z</time></trkpt><trkpt lat="44.7282505" lon="9.3090733"><ele>902.6666666666667</ele><time>2026-04-19T12:50:43.729Z</time></trkpt><trkpt lat="44.7280985" lon="9.3089938"><ele>902.3333333333334</ele><time>2026-04-19T12:50:44.729Z</time></trkpt><trkpt lat="44.7279539" lon="9.3089065"><ele>902.0</ele><time>2026-04-19T12:50:45.729Z</time></trkpt><trkpt lat="44.7278107" lon="9.3088373"><ele>900.2</ele><time>2026-04-19T12:50:46.729Z</time></trkpt><trkpt lat="44.7276901" lon="9.3087609"><ele>898.4000000000001</ele><time>2026-04-19T12:50:47.728Z</time></trkpt><trkpt lat="44.7275856" lon="9.3087037"><ele>896.5999999999999</ele><time>2026-04-19T12:50:48.729Z</time></trkpt><trkpt lat="44.7274912" lon="9.3086752"><ele>894.8</ele><time>2026-04-19T12:50:49.729Z</time></trkpt><trkpt lat="44.7273837" lon="9.3086675"><ele>893.0</ele><time>2026-04-19T12:50:50.728Z</time></trkpt><trkpt lat="44.7272739" lon="9.308671"><ele>893.0</ele><time>2026-04-19T12:50:51.729Z</time></trkpt><trkpt lat="44.7271585" lon="9.3086785"><ele>893.0</ele><time>2026-04-19T12:50:52.729Z</time></trkpt><trkpt lat="44.7270463" lon="9.3086914"><ele>893.0</ele><time>2026-04-19T12:50:53.729Z</time></trkpt><trkpt lat="44.7269421" lon="9.3087046"><ele>893.0</ele><time>2026-04-19T12:50:54.729Z</time></trkpt><trkpt lat="44.7268341" lon="9.3087224"><ele>893.0</ele><time>2026-04-19T12:50:55.729Z</time></trkpt><trkpt lat="44.7267361" lon="9.3087538"><ele>892.2</ele><time>2026-04-19T12:50:56.729Z</time></trkpt><trkpt lat="44.7266546" lon="9.3088253"><ele>891.4</ele><time>2026-04-19T12:50:57.729Z</time></trkpt><trkpt lat="44.7266001" lon="9.3089426"><ele>890.6000000000001</ele><time>2026-04-19T12:50:58.729Z</time></trkpt><trkpt lat="44.7265207" lon="9.3090716"><ele>889.8000000000001</ele><time>2026-04-19T12:50:59.729Z</time></trkpt><trkpt lat="44.7264352" lon="9.3091829"><ele>889.0</ele><time>2026-04-19T12:51:00.729Z</time></trkpt><trkpt lat="44.7263447" lon="9.3092846"><ele>889.75</ele><time>2026-04-19T12:51:01.729Z</time></trkpt><trkpt lat="44.7262169" lon="9.3093441"><ele>890.5</ele><time>2026-04-19T12:51:02.729Z</time></trkpt><trkpt lat="44.7260793" lon="9.3093657"><ele>891.25</ele><time>2026-04-19T12:51:03.729Z</time></trkpt><trkpt lat="44.7259341" lon="9.3093659"><ele>892.0</ele><time>2026-04-19T12:51:04.729Z</time></trkpt><trkpt lat="44.7257972" lon="9.3093556"><ele>892.0</ele><time>2026-04-19T12:51:05.729Z</time></trkpt><trkpt lat="44.7256705" lon="9.3093556"><ele>892.0</ele><time>2026-04-19T12:51:06.729Z</time></trkpt><trkpt lat="44.7255466" lon="9.3093903"><ele>892.0</ele><time>2026-04-19T12:51:07.729Z</time></trkpt><trkpt lat="44.7254235" lon="9.3094587"><ele>892.0</ele><time>2026-04-19T12:51:08.729Z</time></trkpt><trkpt lat="44.7252974" lon="9.3095579"><ele>892.75</ele><time>2026-04-19T12:51:09.729Z</time></trkpt><trkpt lat="44.7251786" lon="9.3096664"><ele>893.5</ele><time>2026-04-19T12:51:10.729Z</time></trkpt><trkpt lat="44.7250637" lon="9.3097643"><ele>894.25</ele><time>2026-04-19T12:51:11.729Z</time></trkpt><trkpt lat="44.7249534" lon="9.3098607"><ele>895.0</ele><time>2026-04-19T12:51:12.729Z</time></trkpt><trkpt lat="44.7248434" lon="9.3099525"><ele>895.0</ele><time>2026-04-19T12:51:13.729Z</time></trkpt><trkpt lat="44.7247255" lon="9.3100193"><ele>895.0</ele><time>2026-04-19T12:51:14.729Z</time></trkpt><trkpt lat="44.7246157" lon="9.3100412"><ele>895.0</ele><time>2026-04-19T12:51:15.729Z</time></trkpt><trkpt lat="44.7245209" lon="9.3100181"><ele>895.0</ele><time>2026-04-19T12:51:16.728Z</time></trkpt><trkpt lat="44.7244228" lon="9.3099455"><ele>895.0</ele><time>2026-04-19T12:51:17.728Z</time></trkpt><trkpt lat="44.7243187" lon="9.3098436"><ele>891.25</ele><time>2026-04-19T12:51:18.728Z</time></trkpt><trkpt lat="44.72421" lon="9.3097386"><ele>887.5</ele><time>2026-04-19T12:51:19.729Z</time></trkpt><trkpt lat="44.7241036" lon="9.3096467"><ele>883.75</ele><time>2026-04-19T12:51:20.729Z</time></trkpt><trkpt lat="44.7240025" lon="9.3095767"><ele>880.0</ele><time>2026-04-19T12:51:21.728Z</time></trkpt><trkpt lat="44.7239003" lon="9.3095508"><ele>880.0</ele><time>2026-04-19T12:51:22.729Z</time></trkpt><trkpt lat="44.7237867" lon="9.3095586"><ele>880.0</ele><time>2026-04-19T12:51:23.729Z</time></trkpt><trkpt lat="44.7236676" lon="9.3095812"><ele>880.0</ele><time>2026-04-19T12:51:24.729Z</time></trkpt><trkpt lat="44.7235514" lon="9.3096307"><ele>880.0</ele><time>2026-04-19T12:51:25.728Z</time></trkpt><trkpt lat="44.7234413" lon="9.3096691"><ele>878.8</ele><time>2026-04-19T12:51:26.729Z</time></trkpt><trkpt lat="44.7233498" lon="9.3096911"><ele>877.6</ele><time>2026-04-19T12:51:27.728Z</time></trkpt><trkpt lat="44.7232706" lon="9.3096744"><ele>876.4000000000001</ele><time>2026-04-19T12:51:28.729Z</time></trkpt><trkpt lat="44.7231951" lon="9.3096003"><ele>875.2</ele><time>2026-04-19T12:51:29.729Z</time></trkpt><trkpt lat="44.7231354" lon="9.3094799"><ele>874.0</ele><time>2026-04-19T12:51:30.729Z</time></trkpt><trkpt lat="44.7230973" lon="9.3093192"><ele>874.0</ele><time>2026-04-19T12:51:31.729Z</time></trkpt><trkpt lat="44.7230685" lon="9.3091614"><ele>874.0000000000001</ele><time>2026-04-19T12:51:32.729Z</time></trkpt><trkpt lat="44.7230335" lon="9.3090164"><ele>874.0000000000001</ele><time>2026-04-19T12:51:33.729Z</time></trkpt><trkpt lat="44.7229791" lon="9.3088961"><ele>874.0</ele><time>2026-04-19T12:51:34.729Z</time></trkpt><trkpt lat="44.722905" lon="9.3088188"><ele>874.0</ele><time>2026-04-19T12:51:35.728Z</time></trkpt><trkpt lat="44.722813" lon="9.3087712"><ele>874.2</ele><time>2026-04-19T12:51:36.729Z</time></trkpt><trkpt lat="44.7227233" lon="9.3087147"><ele>874.4000000000001</ele><time>2026-04-19T12:51:37.729Z</time></trkpt><trkpt lat="44.7226552" lon="9.3086324"><ele>874.6</ele><time>2026-04-19T12:51:38.729Z</time></trkpt><trkpt lat="44.7226137" lon="9.3084957"><ele>874.8</ele><time>2026-04-19T12:51:39.728Z</time></trkpt><trkpt lat="44.722605" lon="9.3083067"><ele>875.0</ele><time>2026-04-19T12:51:40.729Z</time></trkpt><trkpt lat="44.7226196" lon="9.3080703"><ele>875.0</ele><time>2026-04-19T12:51:41.728Z</time></trkpt><trkpt lat="44.7226348" lon="9.3078442"><ele>875.0</ele><time>2026-04-19T12:51:42.728Z</time></trkpt><trkpt lat="44.7226503" lon="9.307612"><ele>875.0</ele><time>2026-04-19T12:51:43.729Z</time></trkpt><trkpt lat="44.7226612" lon="9.307393"><ele>872.25</ele><time>2026-04-19T12:51:44.729Z</time></trkpt><trkpt lat="44.7226683" lon="9.3071971"><ele>869.5</ele><time>2026-04-19T12:51:45.729Z</time></trkpt><trkpt lat="44.7226729" lon="9.3070074"><ele>866.75</ele><time>2026-04-19T12:51:46.728Z</time></trkpt><trkpt lat="44.7226592" lon="9.3068441"><ele>864.0</ele><time>2026-04-19T12:51:47.729Z</time></trkpt><trkpt lat="44.7226336" lon="9.3067058"><ele>864.0</ele><time>2026-04-19T12:51:48.728Z</time></trkpt><trkpt lat="44.7225905" lon="9.3065644"><ele>864.0000000000001</ele><time>2026-04-19T12:51:49.728Z</time></trkpt><trkpt lat="44.7225426" lon="9.3064186"><ele>864.0000000000001</ele><time>2026-04-19T12:51:50.728Z</time></trkpt><trkpt lat="44.7224894" lon="9.306278"><ele>864.0</ele><time>2026-04-19T12:51:51.729Z</time></trkpt><trkpt lat="44.7224317" lon="9.3061598"><ele>864.0</ele><time>2026-04-19T12:51:52.729Z</time></trkpt><trkpt lat="44.7223678" lon="9.3060713"><ele>860.5</ele><time>2026-04-19T12:51:53.729Z</time></trkpt><trkpt lat="44.7222912" lon="9.3059954"><ele>857.0</ele><time>2026-04-19T12:51:54.728Z</time></trkpt><trkpt lat="44.7221941" lon="9.305933"><ele>853.5</ele><time>2026-04-19T12:51:55.729Z</time></trkpt><trkpt lat="44.722073" lon="9.3058867"><ele>850.0</ele><time>2026-04-19T12:51:56.729Z</time></trkpt><trkpt lat="44.7219427" lon="9.3058462"><ele>850.2</ele><time>2026-04-19T12:51:57.729Z</time></trkpt><trkpt lat="44.7218188" lon="9.3058132"><ele>850.4</ele><time>2026-04-19T12:51:58.728Z</time></trkpt><trkpt lat="44.7217133" lon="9.3058029"><ele>850.5999999999999</ele><time>2026-04-19T12:51:59.729Z</time></trkpt><trkpt lat="44.7216255" lon="9.3058318"><ele>850.8</ele><time>2026-04-19T12:52:00.729Z</time></trkpt><trkpt lat="44.7215429" lon="9.3058891"><ele>851.0</ele><time>2026-04-19T12:52:01.729Z</time></trkpt><trkpt lat="44.7214767" lon="9.3059701"><ele>851.0</ele><time>2026-04-19T12:52:02.729Z</time></trkpt><trkpt lat="44.7214198" lon="9.3060962"><ele>851.0</ele><time>2026-04-19T12:52:03.729Z</time></trkpt><trkpt lat="44.7213625" lon="9.3062607"><ele>851.0</ele><time>2026-04-19T12:52:04.729Z</time></trkpt><trkpt lat="44.7212818" lon="9.3064028"><ele>851.0</ele><time>2026-04-19T12:52:05.728Z</time></trkpt><trkpt lat="44.7211751" lon="9.3065238"><ele>849.75</ele><time>2026-04-19T12:52:06.729Z</time></trkpt><trkpt lat="44.721053" lon="9.3066284"><ele>848.5</ele><time>2026-04-19T12:52:07.729Z</time></trkpt><trkpt lat="44.7209239" lon="9.3067226"><ele>847.25</ele><time>2026-04-19T12:52:08.729Z</time></trkpt><trkpt lat="44.72079" lon="9.3068137"><ele>846.0</ele><time>2026-04-19T12:52:09.729Z</time></trkpt><trkpt lat="44.7206717" lon="9.3068941"><ele>846.0</ele><time>2026-04-19T12:52:10.728Z</time></trkpt><trkpt lat="44.7205726" lon="9.3069659"><ele>846.0</ele><time>2026-04-19T12:52:11.729Z</time></trkpt><trkpt lat="44.7204827" lon="9.3070102"><ele>846.0</ele><time>2026-04-19T12:52:12.729Z</time></trkpt><trkpt lat="44.7204007" lon="9.3070166"><ele>846.0</ele><time>2026-04-19T12:52:13.728Z</time></trkpt><trkpt lat="44.720333" lon="9.3069846"><ele>846.0</ele><time>2026-04-19T12:52:14.729Z</time></trkpt><trkpt lat="44.7202676" lon="9.306929"><ele>846.0</ele><time>2026-04-19T12:52:15.729Z</time></trkpt><trkpt lat="44.7202007" lon="9.3068369"><ele>848.25</ele><time>2026-04-19T12:52:16.728Z</time></trkpt><trkpt lat="44.7201514" lon="9.3066869"><ele>850.5</ele><time>2026-04-19T12:52:17.729Z</time></trkpt><trkpt lat="44.7201154" lon="9.3065099"><ele>852.75</ele><time>2026-04-19T12:52:18.729Z</time></trkpt><trkpt lat="44.7200891" lon="9.3063402"><ele>855.0</ele><time>2026-04-19T12:52:19.729Z</time></trkpt><trkpt lat="44.7200608" lon="9.3062037"><ele>850.4</ele><time>2026-04-19T12:52:20.728Z</time></trkpt><trkpt lat="44.7200087" lon="9.3060888"><ele>845.8</ele><time>2026-04-19T12:52:21.729Z</time></trkpt><trkpt lat="44.7199364" lon="9.3059957"><ele>841.2</ele><time>2026-04-19T12:52:22.729Z</time></trkpt><trkpt lat="44.719848" lon="9.3059082"><ele>836.6</ele><time>2026-04-19T12:52:23.729Z</time></trkpt><trkpt lat="44.719754" lon="9.3058122"><ele>832.0</ele><time>2026-04-19T12:52:24.729Z</time></trkpt><trkpt lat="44.7196643" lon="9.3057123"><ele>832.0</ele><time>2026-04-19T12:52:25.728Z</time></trkpt><trkpt lat="44.7195957" lon="9.3056115"><ele>832.0</ele><time>2026-04-19T12:52:26.729Z</time></trkpt><trkpt lat="44.7195484" lon="9.3054912"><ele>832.0</ele><time>2026-04-19T12:52:27.728Z</time></trkpt><trkpt lat="44.719537" lon="9.3053507"><ele>832.0</ele><time>2026-04-19T12:52:28.729Z</time></trkpt><trkpt lat="44.7195446" lon="9.3051896"><ele>832.0</ele><time>2026-04-19T12:52:29.729Z</time></trkpt><trkpt lat="44.7195644" lon="9.3050262"><ele>828.8</ele><time>2026-04-19T12:52:30.729Z</time></trkpt><trkpt lat="44.7195899" lon="9.3048667"><ele>825.6</ele><time>2026-04-19T12:52:31.729Z</time></trkpt><trkpt lat="44.7196111" lon="9.3047084"><ele>822.4</ele><time>2026-04-19T12:52:32.729Z</time></trkpt><trkpt lat="44.7196292" lon="9.3045599"><ele>819.1999999999999</ele><time>2026-04-19T12:52:33.729Z</time></trkpt><trkpt lat="44.7196319" lon="9.3044173"><ele>816.0</ele><time>2026-04-19T12:52:34.729Z</time></trkpt><trkpt lat="44.719614" lon="9.3042765"><ele>815.5</ele><time>2026-04-19T12:52:35.728Z</time></trkpt><trkpt lat="44.719556" lon="9.3041488"><ele>815.0</ele><time>2026-04-19T12:52:36.728Z</time></trkpt><trkpt lat="44.7194728" lon="9.3040467"><ele>814.5</ele><time>2026-04-19T12:52:37.729Z</time></trkpt><trkpt lat="44.7193634" lon="9.3039491"><ele>814.0</ele><time>2026-04-19T12:52:38.728Z</time></trkpt><trkpt lat="44.7192348" lon="9.3038573"><ele>814.0</ele><time>2026-04-19T12:52:39.728Z</time></trkpt><trkpt lat="44.7191008" lon="9.3037683"><ele>814.0</ele><time>2026-04-19T12:52:40.729Z</time></trkpt><trkpt lat="44.7189786" lon="9.3036915"><ele>814.0</ele><time>2026-04-19T12:52:41.728Z</time></trkpt><trkpt lat="44.7188642" lon="9.3036383"><ele>814.0</ele><time>2026-04-19T12:52:42.729Z</time></trkpt><trkpt lat="44.7187274" lon="9.3036271"><ele>814.0</ele><time>2026-04-19T12:52:43.729Z</time></trkpt><trkpt lat="44.7185829" lon="9.3036539"><ele>814.0</ele><time>2026-04-19T12:52:44.729Z</time></trkpt><trkpt lat="44.718438" lon="9.3036913"><ele>814.0</ele><time>2026-04-19T12:52:45.728Z</time></trkpt><trkpt lat="44.718285" lon="9.3037138"><ele>814.0</ele><time>2026-04-19T12:52:46.729Z</time></trkpt><trkpt lat="44.7181361" lon="9.303737"><ele>813.25</ele><time>2026-04-19T12:52:47.728Z</time></trkpt><trkpt lat="44.7179956" lon="9.3037511"><ele>812.5</ele><time>2026-04-19T12:52:48.729Z</time></trkpt><trkpt lat="44.7178746" lon="9.3037605"><ele>811.75</ele><time>2026-04-19T12:52:49.729Z</time></trkpt><trkpt lat="44.7177791" lon="9.3037395"><ele>811.0</ele><time>2026-04-19T12:52:50.728Z</time></trkpt><trkpt lat="44.7176851" lon="9.3036872"><ele>810.5</ele><time>2026-04-19T12:52:51.729Z</time></trkpt><trkpt lat="44.7175957" lon="9.3036032"><ele>810.0</ele><time>2026-04-19T12:52:52.728Z</time></trkpt><trkpt lat="44.7175122" lon="9.3034939"><ele>809.5</ele><time>2026-04-19T12:52:53.729Z</time></trkpt><trkpt lat="44.7174288" lon="9.3033787"><ele>809.0</ele><time>2026-04-19T12:52:54.729Z</time></trkpt><trkpt lat="44.7173319" lon="9.3032961"><ele>809.0</ele><time>2026-04-19T12:52:55.729Z</time></trkpt><trkpt lat="44.7172281" lon="9.3032466"><ele>809.0</ele><time>2026-04-19T12:52:56.729Z</time></trkpt><trkpt lat="44.717131" lon="9.3032252"><ele>809.0</ele><time>2026-04-19T12:52:57.729Z</time></trkpt><trkpt lat="44.7170322" lon="9.3032325"><ele>809.0</ele><time>2026-04-19T12:52:58.729Z</time></trkpt><trkpt lat="44.7169401" lon="9.3032714"><ele>809.0</ele><time>2026-04-19T12:52:59.729Z</time></trkpt><trkpt lat="44.7168632" lon="9.3033382"><ele>809.8000000000001</ele><time>2026-04-19T12:53:00.729Z</time></trkpt><trkpt lat="44.7168008" lon="9.3034343"><ele>810.6</ele><time>2026-04-19T12:53:01.729Z</time></trkpt><trkpt lat="44.7167561" lon="9.3035492"><ele>811.4</ele><time>2026-04-19T12:53:02.728Z</time></trkpt><trkpt lat="44.7167222" lon="9.3036833"><ele>812.2</ele><time>2026-04-19T12:53:03.728Z</time></trkpt><trkpt lat="44.7166969" lon="9.3038281"><ele>813.0</ele><time>2026-04-19T12:53:04.729Z</time></trkpt><trkpt lat="44.7166648" lon="9.3039759"><ele>813.0</ele><time>2026-04-19T12:53:05.729Z</time></trkpt><trkpt lat="44.7166057" lon="9.3041202"><ele>813.0</ele><time>2026-04-19T12:53:06.728Z</time></trkpt><trkpt lat="44.7165256" lon="9.304244"><ele>813.0</ele><time>2026-04-19T12:53:07.729Z</time></trkpt><trkpt lat="44.7164342" lon="9.3043722"><ele>813.0</ele><time>2026-04-19T12:53:08.729Z</time></trkpt><trkpt lat="44.7163502" lon="9.3044982"><ele>813.0</ele><time>2026-04-19T12:53:09.728Z</time></trkpt><trkpt lat="44.71628" lon="9.3046278"><ele>813.0</ele><time>2026-04-19T12:53:10.728Z</time></trkpt><trkpt lat="44.7162271" lon="9.3047653"><ele>813.0</ele><time>2026-04-19T12:53:11.729Z</time></trkpt><trkpt lat="44.716187" lon="9.3049166"><ele>813.0</ele><time>2026-04-19T12:53:12.729Z</time></trkpt><trkpt lat="44.7161562" lon="9.3050458"><ele>813.0</ele><time>2026-04-19T12:53:13.729Z</time></trkpt><trkpt lat="44.7161094" lon="9.3051544"><ele>811.4</ele><time>2026-04-19T12:53:14.729Z</time></trkpt><trkpt lat="44.7160371" lon="9.3052311"><ele>809.8</ele><time>2026-04-19T12:53:15.729Z</time></trkpt><trkpt lat="44.7159337" lon="9.3052815"><ele>808.2</ele><time>2026-04-19T12:53:16.729Z</time></trkpt><trkpt lat="44.7158171" lon="9.3052968"><ele>806.6</ele><time>2026-04-19T12:53:17.728Z</time></trkpt><trkpt lat="44.7156868" lon="9.305278"><ele>805.0</ele><time>2026-04-19T12:53:18.728Z</time></trkpt><trkpt lat="44.7155453" lon="9.3052567"><ele>805.0</ele><time>2026-04-19T12:53:19.729Z</time></trkpt><trkpt lat="44.7154112" lon="9.3052271"><ele>805.0</ele><time>2026-04-19T12:53:20.729Z</time></trkpt><trkpt lat="44.7152932" lon="9.3051945"><ele>805.0</ele><time>2026-04-19T12:53:21.729Z</time></trkpt><trkpt lat="44.7152032" lon="9.3051499"><ele>805.0</ele><time>2026-04-19T12:53:22.729Z</time></trkpt><trkpt lat="44.7151263" lon="9.3050877"><ele>805.0</ele><time>2026-04-19T12:53:23.728Z</time></trkpt><trkpt lat="44.7150442" lon="9.304991"><ele>803.25</ele><time>2026-04-19T12:53:24.729Z</time></trkpt><trkpt lat="44.7149659" lon="9.3048716"><ele>801.5</ele><time>2026-04-19T12:53:25.729Z</time></trkpt><trkpt lat="44.7148819" lon="9.3047305"><ele>799.75</ele><time>2026-04-19T12:53:26.729Z</time></trkpt><trkpt lat="44.7148015" lon="9.3045608"><ele>798.0</ele><time>2026-04-19T12:53:27.729Z</time></trkpt><trkpt lat="44.7147415" lon="9.3043708"><ele>798.0</ele><time>2026-04-19T12:53:28.728Z</time></trkpt><trkpt lat="44.7147064" lon="9.3041869"><ele>798.0</ele><time>2026-04-19T12:53:29.728Z</time></trkpt><trkpt lat="44.714693" lon="9.3040042"><ele>798.0</ele><time>2026-04-19T12:53:30.728Z</time></trkpt><trkpt lat="44.7146748" lon="9.3038439"><ele>798.0</ele><time>2026-04-19T12:53:31.728Z</time></trkpt><trkpt lat="44.7146438" lon="9.3037066"><ele>798.2</ele><time>2026-04-19T12:53:32.729Z</time></trkpt><trkpt lat="44.7145814" lon="9.3035899"><ele>798.4</ele><time>2026-04-19T12:53:33.728Z</time></trkpt><trkpt lat="44.7145001" lon="9.3035024"><ele>798.6</ele><time>2026-04-19T12:53:34.729Z</time></trkpt><trkpt lat="44.7144066" lon="9.3034301"><ele>798.8000000000001</ele><time>2026-04-19T12:53:35.729Z</time></trkpt><trkpt lat="44.7143086" lon="9.3033878"><ele>799.0</ele><time>2026-04-19T12:53:36.728Z</time></trkpt><trkpt lat="44.7142024" lon="9.3033627"><ele>799.0</ele><time>2026-04-19T12:53:37.729Z</time></trkpt><trkpt lat="44.7141075" lon="9.3033658"><ele>799.0</ele><time>2026-04-19T12:53:38.729Z</time></trkpt><trkpt lat="44.7140176" lon="9.3034028"><ele>799.0</ele><time>2026-04-19T12:53:39.728Z</time></trkpt><trkpt lat="44.7139387" lon="9.3034951"><ele>799.0</ele><time>2026-04-19T12:53:40.729Z</time></trkpt><trkpt lat="44.7138644" lon="9.3036398"><ele>799.0</ele><time>2026-04-19T12:53:41.728Z</time></trkpt><trkpt lat="44.7137985" lon="9.3037951"><ele>798.5</ele><time>2026-04-19T12:53:42.729Z</time></trkpt><trkpt lat="44.7137285" lon="9.3039417"><ele>798.0</ele><time>2026-04-19T12:53:43.729Z</time></trkpt><trkpt lat="44.7136489" lon="9.3040658"><ele>797.5</ele><time>2026-04-19T12:53:44.728Z</time></trkpt><trkpt lat="44.7135548" lon="9.3041693"><ele>797.0</ele><time>2026-04-19T12:53:45.729Z</time></trkpt><trkpt lat="44.7134498" lon="9.3042593"><ele>797.0</ele><time>2026-04-19T12:53:46.729Z</time></trkpt><trkpt lat="44.7133263" lon="9.3043348"><ele>797.0</ele><time>2026-04-19T12:53:47.729Z</time></trkpt><trkpt lat="44.7132057" lon="9.3044255"><ele>797.0</ele><time>2026-04-19T12:53:48.729Z</time></trkpt><trkpt lat="44.7130858" lon="9.3045017"><ele>797.0</ele><time>2026-04-19T12:53:49.729Z</time></trkpt><trkpt lat="44.7129714" lon="9.3045732"><ele>797.0</ele><time>2026-04-19T12:53:50.729Z</time></trkpt><trkpt lat="44.7128633" lon="9.3046176"><ele>797.0</ele><time>2026-04-19T12:53:51.729Z</time></trkpt><trkpt lat="44.7127711" lon="9.3046184"><ele>797.0</ele><time>2026-04-19T12:53:52.728Z</time></trkpt><trkpt lat="44.7126845" lon="9.3045723"><ele>797.0</ele><time>2026-04-19T12:53:53.729Z</time></trkpt><trkpt lat="44.7126151" lon="9.3044981"><ele>797.0</ele><time>2026-04-19T12:53:54.729Z</time></trkpt><trkpt lat="44.7125547" lon="9.3044036"><ele>796.0</ele><time>2026-04-19T12:53:55.729Z</time></trkpt><trkpt lat="44.7125029" lon="9.3042732"><ele>795.0</ele><time>2026-04-19T12:53:56.729Z</time></trkpt><trkpt lat="44.7124612" lon="9.3041399"><ele>794.0</ele><time>2026-04-19T12:53:57.728Z</time></trkpt><trkpt lat="44.7124032" lon="9.3040248"><ele>793.0</ele><time>2026-04-19T12:53:58.729Z</time></trkpt><trkpt lat="44.7123433" lon="9.3039391"><ele>792.0</ele><time>2026-04-19T12:53:59.729Z</time></trkpt><trkpt lat="44.7122643" lon="9.3038817"><ele>791.25</ele><time>2026-04-19T12:54:00.729Z</time></trkpt><trkpt lat="44.7121638" lon="9.3038662"><ele>790.5</ele><time>2026-04-19T12:54:01.729Z</time></trkpt><trkpt lat="44.7120321" lon="9.3038751"><ele>789.75</ele><time>2026-04-19T12:54:02.729Z</time></trkpt><trkpt lat="44.7118756" lon="9.3039039"><ele>789.0</ele><time>2026-04-19T12:54:03.729Z</time></trkpt><trkpt lat="44.7116992" lon="9.3039454"><ele>789.0</ele><time>2026-04-19T12:54:04.729Z</time></trkpt><trkpt lat="44.7115249" lon="9.3039858"><ele>789.0</ele><time>2026-04-19T12:54:05.729Z</time></trkpt><trkpt lat="44.7113595" lon="9.3040175"><ele>789.0</ele><time>2026-04-19T12:54:06.729Z</time></trkpt><trkpt lat="44.7112216" lon="9.304056"><ele>789.0</ele><time>2026-04-19T12:54:07.729Z</time></trkpt><trkpt lat="44.7111013" lon="9.3041119"><ele>789.0</ele><time>2026-04-19T12:54:08.729Z</time></trkpt><trkpt lat="44.7109815" lon="9.3041855"><ele>789.0</ele><time>2026-04-19T12:54:09.729Z</time></trkpt><trkpt lat="44.7108679" lon="9.3042818"><ele>789.0</ele><time>2026-04-19T12:54:10.729Z</time></trkpt><trkpt lat="44.7107561" lon="9.3043767"><ele>785.5</ele><time>2026-04-19T12:54:11.729Z</time></trkpt><trkpt lat="44.7106461" lon="9.3044574"><ele>782.0</ele><time>2026-04-19T12:54:12.729Z</time></trkpt><trkpt lat="44.7105263" lon="9.304517"><ele>778.5</ele><time>2026-04-19T12:54:13.729Z</time></trkpt><trkpt lat="44.7104017" lon="9.3045536"><ele>775.0</ele><time>2026-04-19T12:54:14.728Z</time></trkpt><trkpt lat="44.7102793" lon="9.304579"><ele>772.5</ele><time>2026-04-19T12:54:15.729Z</time></trkpt><trkpt lat="44.7101556" lon="9.3045901"><ele>770.0</ele><time>2026-04-19T12:54:16.729Z</time></trkpt><trkpt lat="44.7100292" lon="9.3045942"><ele>767.5</ele><time>2026-04-19T12:54:17.729Z</time></trkpt><trkpt lat="44.7099005" lon="9.3045973"><ele>765.0</ele><time>2026-04-19T12:54:18.729Z</time></trkpt><trkpt lat="44.7097764" lon="9.3046052"><ele>765.0</ele><time>2026-04-19T12:54:19.729Z</time></trkpt><trkpt lat="44.7096575" lon="9.3046191"><ele>765.0</ele><time>2026-04-19T12:54:20.728Z</time></trkpt><trkpt lat="44.709531" lon="9.3046339"><ele>765.0</ele><time>2026-04-19T12:54:21.729Z</time></trkpt><trkpt lat="44.709405" lon="9.3046645"><ele>765.0</ele><time>2026-04-19T12:54:22.728Z</time></trkpt><trkpt lat="44.7092837" lon="9.3047027"><ele>764.1666666666666</ele><time>2026-04-19T12:54:23.729Z</time></trkpt><trkpt lat="44.7091839" lon="9.3047423"><ele>763.3333333333334</ele><time>2026-04-19T12:54:24.729Z</time></trkpt><trkpt lat="44.7090956" lon="9.304775"><ele>762.5</ele><time>2026-04-19T12:54:25.729Z</time></trkpt><trkpt lat="44.7090147" lon="9.3048006"><ele>761.6666666666667</ele><time>2026-04-19T12:54:26.728Z</time></trkpt><trkpt lat="44.7089389" lon="9.304833"><ele>760.8333333333334</ele><time>2026-04-19T12:54:27.729Z</time></trkpt><trkpt lat="44.7088778" lon="9.304889"><ele>760.0</ele><time>2026-04-19T12:54:28.728Z</time></trkpt><trkpt lat="44.7088214" lon="9.30495"><ele>761.6666666666667</ele><time>2026-04-19T12:54:29.729Z</time></trkpt><trkpt lat="44.708776" lon="9.3050274"><ele>763.3333333333334</ele><time>2026-04-19T12:54:30.729Z</time></trkpt><trkpt lat="44.7087395" lon="9.3051057"><ele>765.0</ele><time>2026-04-19T12:54:31.729Z</time></trkpt><trkpt lat="44.7087025" lon="9.3051782"><ele>766.6666666666667</ele><time>2026-04-19T12:54:32.728Z</time></trkpt><trkpt lat="44.7086645" lon="9.3053104"><ele>768.3333333333334</ele><time>2026-04-19T12:54:34.729Z</time></trkpt><trkpt lat="44.7086697" lon="9.3054306"><ele>770.0</ele><time>2026-04-19T12:54:36.729Z</time></trkpt><trkpt lat="44.7087168" lon="9.305626"><ele>770.25</ele><time>2026-04-19T12:54:38.729Z</time></trkpt><trkpt lat="44.7087553" lon="9.3057644"><ele>770.5</ele><time>2026-04-19T12:54:39.729Z</time></trkpt><trkpt lat="44.7088124" lon="9.3059299"><ele>770.75</ele><time>2026-04-19T12:54:40.729Z</time></trkpt><trkpt lat="44.7088782" lon="9.306106"><ele>771.0</ele><time>2026-04-19T12:54:41.729Z</time></trkpt><trkpt lat="44.7089627" lon="9.3062616"><ele>771.0</ele><time>2026-04-19T12:54:42.729Z</time></trkpt><trkpt lat="44.7090559" lon="9.3064024"><ele>771.0</ele><time>2026-04-19T12:54:43.729Z</time></trkpt><trkpt lat="44.7091454" lon="9.3065345"><ele>771.0</ele><time>2026-04-19T12:54:44.729Z</time></trkpt><trkpt lat="44.7092379" lon="9.3066463"><ele>771.0</ele><time>2026-04-19T12:54:45.729Z</time></trkpt><trkpt lat="44.709324" lon="9.3067729"><ele>769.75</ele><time>2026-04-19T12:54:46.728Z</time></trkpt><trkpt lat="44.7093947" lon="9.3069224"><ele>768.5</ele><time>2026-04-19T12:54:47.729Z</time></trkpt><trkpt lat="44.7094601" lon="9.3070973"><ele>767.25</ele><time>2026-04-19T12:54:48.728Z</time></trkpt><trkpt lat="44.7095235" lon="9.3072835"><ele>766.0</ele><time>2026-04-19T12:54:49.729Z</time></trkpt><trkpt lat="44.7095757" lon="9.3074755"><ele>773.5</ele><time>2026-04-19T12:54:50.728Z</time></trkpt><trkpt lat="44.7095988" lon="9.307655"><ele>781.0</ele><time>2026-04-19T12:54:51.728Z</time></trkpt><trkpt lat="44.7096018" lon="9.307831"><ele>788.5</ele><time>2026-04-19T12:54:52.729Z</time></trkpt><trkpt lat="44.7096026" lon="9.3079984"><ele>796.0</ele><time>2026-04-19T12:54:53.728Z</time></trkpt><trkpt lat="44.7095956" lon="9.3081371"><ele>795.9999999999999</ele><time>2026-04-19T12:54:54.728Z</time></trkpt><trkpt lat="44.7095659" lon="9.3082479"><ele>796.0</ele><time>2026-04-19T12:54:55.729Z</time></trkpt><trkpt lat="44.7095109" lon="9.3083223"><ele>796.0</ele><time>2026-04-19T12:54:56.729Z</time></trkpt><trkpt lat="44.7094341" lon="9.308367"><ele>796.0</ele><time>2026-04-19T12:54:57.729Z</time></trkpt><trkpt lat="44.7093415" lon="9.3083932"><ele>795.9999999999999</ele><time>2026-04-19T12:54:58.729Z</time></trkpt><trkpt lat="44.7092342" lon="9.3084171"><ele>796.0</ele><time>2026-04-19T12:54:59.729Z</time></trkpt><trkpt lat="44.7091294" lon="9.3084508"><ele>793.4999999999999</ele><time>2026-04-19T12:55:00.729Z</time></trkpt><trkpt lat="44.7090286" lon="9.3084847"><ele>791.0</ele><time>2026-04-19T12:55:01.729Z</time></trkpt><trkpt lat="44.7089565" lon="9.308526"><ele>788.5</ele><time>2026-04-19T12:55:02.729Z</time></trkpt><trkpt lat="44.7089059" lon="9.3085961"><ele>786.0</ele><time>2026-04-19T12:55:03.729Z</time></trkpt><trkpt lat="44.708868" lon="9.3086889"><ele>783.4999999999999</ele><time>2026-04-19T12:55:04.729Z</time></trkpt><trkpt lat="44.7088507" lon="9.3088129"><ele>781.0</ele><time>2026-04-19T12:55:05.729Z</time></trkpt><trkpt lat="44.7088504" lon="9.308976"><ele>781.0</ele><time>2026-04-19T12:55:06.729Z</time></trkpt><trkpt lat="44.7088782" lon="9.3091691"><ele>781.0</ele><time>2026-04-19T12:55:07.729Z</time></trkpt><trkpt lat="44.7089154" lon="9.3093492"><ele>781.0</ele><time>2026-04-19T12:55:08.729Z</time></trkpt><trkpt lat="44.7089742" lon="9.3094928"><ele>781.0</ele><time>2026-04-19T12:55:09.729Z</time></trkpt><trkpt lat="44.7090392" lon="9.3096029"><ele>781.0</ele><time>2026-04-19T12:55:10.728Z</time></trkpt><trkpt lat="44.7091236" lon="9.3096821"><ele>781.0</ele><time>2026-04-19T12:55:11.728Z</time></trkpt><trkpt lat="44.7092279" lon="9.3097448"><ele>781.0</ele><time>2026-04-19T12:55:12.729Z</time></trkpt><trkpt lat="44.7093455" lon="9.3098"><ele>781.0</ele><time>2026-04-19T12:55:13.729Z</time></trkpt><trkpt lat="44.7094636" lon="9.3098647"><ele>784.8</ele><time>2026-04-19T12:55:14.729Z</time></trkpt><trkpt lat="44.7095658" lon="9.3099302"><ele>788.5999999999999</ele><time>2026-04-19T12:55:15.729Z</time></trkpt><trkpt lat="44.7096343" lon="9.3100062"><ele>792.4</ele><time>2026-04-19T12:55:16.729Z</time></trkpt><trkpt lat="44.7096736" lon="9.3101104"><ele>796.2</ele><time>2026-04-19T12:55:17.728Z</time></trkpt><trkpt lat="44.7096876" lon="9.3102355"><ele>800.0</ele><time>2026-04-19T12:55:18.729Z</time></trkpt><trkpt lat="44.7096732" lon="9.3103786"><ele>800.0</ele><time>2026-04-19T12:55:19.729Z</time></trkpt><trkpt lat="44.7096461" lon="9.31053"><ele>800.0</ele><time>2026-04-19T12:55:20.729Z</time></trkpt><trkpt lat="44.7096111" lon="9.3106869"><ele>800.0</ele><time>2026-04-19T12:55:21.729Z</time></trkpt><trkpt lat="44.7095664" lon="9.3108609"><ele>800.0</ele><time>2026-04-19T12:55:22.729Z</time></trkpt><trkpt lat="44.7094939" lon="9.311022"><ele>796.75</ele><time>2026-04-19T12:55:23.729Z</time></trkpt><trkpt lat="44.7094087" lon="9.3111561"><ele>793.5</ele><time>2026-04-19T12:55:24.728Z</time></trkpt><trkpt lat="44.7093261" lon="9.3112685"><ele>790.25</ele><time>2026-04-19T12:55:25.729Z</time></trkpt><trkpt lat="44.7092552" lon="9.3113925"><ele>787.0</ele><time>2026-04-19T12:55:26.729Z</time></trkpt><trkpt lat="44.7092008" lon="9.3115278"><ele>787.0</ele><time>2026-04-19T12:55:27.729Z</time></trkpt><trkpt lat="44.7091547" lon="9.3116869"><ele>787.0</ele><time>2026-04-19T12:55:28.729Z</time></trkpt><trkpt lat="44.7091155" lon="9.3118406"><ele>787.0</ele><time>2026-04-19T12:55:29.728Z</time></trkpt><trkpt lat="44.7090833" lon="9.3119791"><ele>787.0</ele><time>2026-04-19T12:55:30.729Z</time></trkpt><trkpt lat="44.7090713" lon="9.3120916"><ele>787.0</ele><time>2026-04-19T12:55:31.729Z</time></trkpt><trkpt lat="44.709096" lon="9.3122218"><ele>788.25</ele><time>2026-04-19T12:55:32.729Z</time></trkpt><trkpt lat="44.7091568" lon="9.3123656"><ele>789.5</ele><time>2026-04-19T12:55:33.728Z</time></trkpt><trkpt lat="44.7092498" lon="9.3125381"><ele>790.75</ele><time>2026-04-19T12:55:34.729Z</time></trkpt><trkpt lat="44.7093481" lon="9.3127264"><ele>792.0</ele><time>2026-04-19T12:55:35.729Z</time></trkpt><trkpt lat="44.7094491" lon="9.3129234"><ele>796.0</ele><time>2026-04-19T12:55:36.729Z</time></trkpt><trkpt lat="44.7095505" lon="9.3131315"><ele>800.0</ele><time>2026-04-19T12:55:37.728Z</time></trkpt><trkpt lat="44.709652" lon="9.3133426"><ele>804.0</ele><time>2026-04-19T12:55:38.728Z</time></trkpt><trkpt lat="44.7097412" lon="9.3135266"><ele>804.0</ele><time>2026-04-19T12:55:39.729Z</time></trkpt><trkpt lat="44.7098311" lon="9.3136984"><ele>804.0</ele><time>2026-04-19T12:55:40.729Z</time></trkpt><trkpt lat="44.7099148" lon="9.3138701"><ele>804.0</ele><time>2026-04-19T12:55:41.729Z</time></trkpt><trkpt lat="44.7099953" lon="9.3140323"><ele>804.0</ele><time>2026-04-19T12:55:42.729Z</time></trkpt><trkpt lat="44.7100687" lon="9.3141865"><ele>804.0</ele><time>2026-04-19T12:55:43.729Z</time></trkpt><trkpt lat="44.7101161" lon="9.3143414"><ele>804.0</ele><time>2026-04-19T12:55:44.728Z</time></trkpt><trkpt lat="44.7101232" lon="9.3144856"><ele>804.0</ele><time>2026-04-19T12:55:45.729Z</time></trkpt><trkpt lat="44.7100992" lon="9.3146156"><ele>804.0</ele><time>2026-04-19T12:55:46.728Z</time></trkpt><trkpt lat="44.7100369" lon="9.3147353"><ele>804.0</ele><time>2026-04-19T12:55:47.729Z</time></trkpt><trkpt lat="44.7099377" lon="9.3148403"><ele>806.0</ele><time>2026-04-19T12:55:48.729Z</time></trkpt><trkpt lat="44.7098188" lon="9.3149186"><ele>808.0</ele><time>2026-04-19T12:55:49.728Z</time></trkpt><trkpt lat="44.7097058" lon="9.3150223"><ele>810.0</ele><time>2026-04-19T12:55:50.729Z</time></trkpt><trkpt lat="44.7096158" lon="9.3151326"><ele>812.0</ele><time>2026-04-19T12:55:51.729Z</time></trkpt><trkpt lat="44.7095331" lon="9.3152565"><ele>812.0</ele><time>2026-04-19T12:55:52.729Z</time></trkpt><trkpt lat="44.7094628" lon="9.3154004"><ele>812.0</ele><time>2026-04-19T12:55:53.729Z</time></trkpt><trkpt lat="44.7093979" lon="9.3155628"><ele>812.0</ele><time>2026-04-19T12:55:54.729Z</time></trkpt><trkpt lat="44.7093343" lon="9.3157302"><ele>812.0</ele><time>2026-04-19T12:55:55.729Z</time></trkpt><trkpt lat="44.7092732" lon="9.3158809"><ele>813.2</ele><time>2026-04-19T12:55:56.729Z</time></trkpt><trkpt lat="44.7092014" lon="9.3159875"><ele>814.4000000000001</ele><time>2026-04-19T12:55:57.729Z</time></trkpt><trkpt lat="44.7091237" lon="9.316035"><ele>815.5999999999999</ele><time>2026-04-19T12:55:58.729Z</time></trkpt><trkpt lat="44.7090358" lon="9.3160408"><ele>816.8</ele><time>2026-04-19T12:55:59.728Z</time></trkpt><trkpt lat="44.7089345" lon="9.3160069"><ele>818.0</ele><time>2026-04-19T12:56:00.728Z</time></trkpt><trkpt lat="44.7088268" lon="9.3159526"><ele>818.0000000000001</ele><time>2026-04-19T12:56:01.729Z</time></trkpt><trkpt lat="44.7087394" lon="9.3159022"><ele>818.0</ele><time>2026-04-19T12:56:02.729Z</time></trkpt><trkpt lat="44.7086581" lon="9.3158736"><ele>818.0</ele><time>2026-04-19T12:56:03.729Z</time></trkpt><trkpt lat="44.708584" lon="9.3158837"><ele>818.0</ele><time>2026-04-19T12:56:04.728Z</time></trkpt><trkpt lat="44.7084985" lon="9.3159232"><ele>818.0000000000001</ele><time>2026-04-19T12:56:05.728Z</time></trkpt><trkpt lat="44.7084024" lon="9.3159837"><ele>818.0</ele><time>2026-04-19T12:56:06.728Z</time></trkpt><trkpt lat="44.708293" lon="9.3160651"><ele>817.5</ele><time>2026-04-19T12:56:07.729Z</time></trkpt><trkpt lat="44.7081743" lon="9.3161469"><ele>817.0</ele><time>2026-04-19T12:56:08.729Z</time></trkpt><trkpt lat="44.7080475" lon="9.3162296"><ele>816.5</ele><time>2026-04-19T12:56:09.729Z</time></trkpt><trkpt lat="44.7079033" lon="9.3163248"><ele>816.0</ele><time>2026-04-19T12:56:10.729Z</time></trkpt><trkpt lat="44.7077485" lon="9.3164256"><ele>815.6666666666667</ele><time>2026-04-19T12:56:11.728Z</time></trkpt><trkpt lat="44.7075924" lon="9.3165216"><ele>815.3333333333334</ele><time>2026-04-19T12:56:12.729Z</time></trkpt><trkpt lat="44.7074399" lon="9.3166132"><ele>815.0</ele><time>2026-04-19T12:56:13.729Z</time></trkpt><trkpt lat="44.707298" lon="9.3166991"><ele>815.0</ele><time>2026-04-19T12:56:14.729Z</time></trkpt><trkpt lat="44.7071601" lon="9.3167669"><ele>815.0</ele><time>2026-04-19T12:56:15.728Z</time></trkpt><trkpt lat="44.7070342" lon="9.3168062"><ele>815.0</ele><time>2026-04-19T12:56:16.729Z</time></trkpt><trkpt lat="44.7069051" lon="9.3168158"><ele>815.0</ele><time>2026-04-19T12:56:17.729Z</time></trkpt><trkpt lat="44.7067587" lon="9.3167869"><ele>813.6666666666667</ele><time>2026-04-19T12:56:18.729Z</time></trkpt><trkpt lat="44.7066019" lon="9.3167293"><ele>812.3333333333333</ele><time>2026-04-19T12:56:19.729Z</time></trkpt><trkpt lat="44.706444" lon="9.3166597"><ele>811.0</ele><time>2026-04-19T12:56:20.729Z</time></trkpt><trkpt lat="44.7063011" lon="9.316586"><ele>811.0</ele><time>2026-04-19T12:56:21.729Z</time></trkpt><trkpt lat="44.7061701" lon="9.3165209"><ele>811.0</ele><time>2026-04-19T12:56:22.729Z</time></trkpt><trkpt lat="44.706048" lon="9.3164592"><ele>811.0</ele><time>2026-04-19T12:56:23.728Z</time></trkpt><trkpt lat="44.7059413" lon="9.3164126"><ele>811.0</ele><time>2026-04-19T12:56:24.729Z</time></trkpt><trkpt lat="44.7058495" lon="9.3163846"><ele>811.4</ele><time>2026-04-19T12:56:25.728Z</time></trkpt><trkpt lat="44.7057577" lon="9.3163693"><ele>811.8</ele><time>2026-04-19T12:56:26.729Z</time></trkpt><trkpt lat="44.7056678" lon="9.3163829"><ele>812.1999999999999</ele><time>2026-04-19T12:56:27.729Z</time></trkpt><trkpt lat="44.705586" lon="9.3164316"><ele>812.5999999999999</ele><time>2026-04-19T12:56:28.729Z</time></trkpt><trkpt lat="44.7055084" lon="9.3165242"><ele>813.0</ele><time>2026-04-19T12:56:29.729Z</time></trkpt><trkpt lat="44.7054416" lon="9.3166358"><ele>813.0</ele><time>2026-04-19T12:56:30.729Z</time></trkpt><trkpt lat="44.7053867" lon="9.316753"><ele>813.0</ele><time>2026-04-19T12:56:31.729Z</time></trkpt><trkpt lat="44.7053487" lon="9.3168761"><ele>813.0</ele><time>2026-04-19T12:56:32.728Z</time></trkpt><trkpt lat="44.7053499" lon="9.3170152"><ele>813.0</ele><time>2026-04-19T12:56:33.729Z</time></trkpt><trkpt lat="44.7053662" lon="9.3171482"><ele>813.0</ele><time>2026-04-19T12:56:34.728Z</time></trkpt><trkpt lat="44.7053992" lon="9.317286"><ele>811.75</ele><time>2026-04-19T12:56:35.729Z</time></trkpt><trkpt lat="44.7054448" lon="9.3174282"><ele>810.5</ele><time>2026-04-19T12:56:36.729Z</time></trkpt><trkpt lat="44.7055298" lon="9.3175801"><ele>809.25</ele><time>2026-04-19T12:56:37.729Z</time></trkpt><trkpt lat="44.7056334" lon="9.3177341"><ele>808.0</ele><time>2026-04-19T12:56:38.729Z</time></trkpt><trkpt lat="44.7057338" lon="9.3178941"><ele>808.0</ele><time>2026-04-19T12:56:39.729Z</time></trkpt><trkpt lat="44.705807" lon="9.3180673"><ele>808.0</ele><time>2026-04-19T12:56:40.728Z</time></trkpt><trkpt lat="44.7058463" lon="9.3182388"><ele>808.0</ele><time>2026-04-19T12:56:41.729Z</time></trkpt><trkpt lat="44.7058607" lon="9.3184412"><ele>808.0</ele><time>2026-04-19T12:56:42.729Z</time></trkpt><trkpt lat="44.7058524" lon="9.3186492"><ele>805.75</ele><time>2026-04-19T12:56:43.729Z</time></trkpt><trkpt lat="44.7058429" lon="9.3188349"><ele>803.5</ele><time>2026-04-19T12:56:44.729Z</time></trkpt><trkpt lat="44.7058519" lon="9.3190089"><ele>801.25</ele><time>2026-04-19T12:56:45.729Z</time></trkpt><trkpt lat="44.7058765" lon="9.3191725"><ele>799.0</ele><time>2026-04-19T12:56:46.728Z</time></trkpt><trkpt lat="44.7059243" lon="9.319353"><ele>797.5</ele><time>2026-04-19T12:56:47.729Z</time></trkpt><trkpt lat="44.7059797" lon="9.3195345"><ele>796.0</ele><time>2026-04-19T12:56:48.729Z</time></trkpt><trkpt lat="44.7060292" lon="9.3197111"><ele>794.5</ele><time>2026-04-19T12:56:49.729Z</time></trkpt><trkpt lat="44.7060641" lon="9.3198831"><ele>793.0</ele><time>2026-04-19T12:56:50.729Z</time></trkpt><trkpt lat="44.7060734" lon="9.3200438"><ele>793.25</ele><time>2026-04-19T12:56:51.729Z</time></trkpt><trkpt lat="44.7060543" lon="9.3202141"><ele>793.5</ele><time>2026-04-19T12:56:52.729Z</time></trkpt><trkpt lat="44.7060065" lon="9.3204096"><ele>793.75</ele><time>2026-04-19T12:56:53.728Z</time></trkpt><trkpt lat="44.7059325" lon="9.3206281"><ele>794.0</ele><time>2026-04-19T12:56:54.729Z</time></trkpt><trkpt lat="44.7058381" lon="9.3208673"><ele>794.0</ele><time>2026-04-19T12:56:55.728Z</time></trkpt><trkpt lat="44.7057321" lon="9.3210989"><ele>794.0</ele><time>2026-04-19T12:56:56.729Z</time></trkpt><trkpt lat="44.7056335" lon="9.3213249"><ele>794.0</ele><time>2026-04-19T12:56:57.729Z</time></trkpt><trkpt lat="44.7055352" lon="9.3215315"><ele>796.6666666666667</ele><time>2026-04-19T12:56:58.729Z</time></trkpt><trkpt lat="44.7054367" lon="9.3217133"><ele>799.3333333333333</ele><time>2026-04-19T12:56:59.729Z</time></trkpt><trkpt lat="44.7053239" lon="9.3218727"><ele>802.0</ele><time>2026-04-19T12:57:00.729Z</time></trkpt><trkpt lat="44.7052018" lon="9.3220331"><ele>799.6666666666666</ele><time>2026-04-19T12:57:01.729Z</time></trkpt><trkpt lat="44.7050771" lon="9.3221948"><ele>797.3333333333333</ele><time>2026-04-19T12:57:02.729Z</time></trkpt><trkpt lat="44.7049492" lon="9.3223424"><ele>795.0</ele><time>2026-04-19T12:57:03.729Z</time></trkpt><trkpt lat="44.7048147" lon="9.3224735"><ele>795.0</ele><time>2026-04-19T12:57:04.729Z</time></trkpt><trkpt lat="44.7046815" lon="9.3225974"><ele>795.0</ele><time>2026-04-19T12:57:05.729Z</time></trkpt><trkpt lat="44.7045464" lon="9.3227135"><ele>795.0</ele><time>2026-04-19T12:57:06.729Z</time></trkpt><trkpt lat="44.7043967" lon="9.3228346"><ele>794.0</ele><time>2026-04-19T12:57:07.729Z</time></trkpt><trkpt lat="44.7042197" lon="9.3229664"><ele>793.0</ele><time>2026-04-19T12:57:08.729Z</time></trkpt><trkpt lat="44.7040404" lon="9.323099"><ele>792.0</ele><time>2026-04-19T12:57:09.729Z</time></trkpt><trkpt lat="44.7038756" lon="9.3232239"><ele>792.0</ele><time>2026-04-19T12:57:10.728Z</time></trkpt><trkpt lat="44.7037179" lon="9.3233237"><ele>792.0</ele><time>2026-04-19T12:57:11.729Z</time></trkpt><trkpt lat="44.7035434" lon="9.3233922"><ele>792.0</ele><time>2026-04-19T12:57:12.728Z</time></trkpt><trkpt lat="44.7033623" lon="9.3234473"><ele>787.0</ele><time>2026-04-19T12:57:13.729Z</time></trkpt><trkpt lat="44.7031774" lon="9.323496"><ele>782.0</ele><time>2026-04-19T12:57:14.729Z</time></trkpt><trkpt lat="44.7030075" lon="9.3235455"><ele>777.0</ele><time>2026-04-19T12:57:15.728Z</time></trkpt><trkpt lat="44.7028426" lon="9.3235973"><ele>775.0</ele><time>2026-04-19T12:57:16.729Z</time></trkpt><trkpt lat="44.702683" lon="9.3236492"><ele>773.0</ele><time>2026-04-19T12:57:17.729Z</time></trkpt><trkpt lat="44.7025426" lon="9.3236921"><ele>771.0</ele><time>2026-04-19T12:57:18.729Z</time></trkpt><trkpt lat="44.7024197" lon="9.3237356"><ele>769.0</ele><time>2026-04-19T12:57:19.729Z</time></trkpt><trkpt lat="44.7023111" lon="9.3237933"><ele>769.0</ele><time>2026-04-19T12:57:20.729Z</time></trkpt><trkpt lat="44.7022134" lon="9.3238609"><ele>769.0</ele><time>2026-04-19T12:57:21.728Z</time></trkpt><trkpt lat="44.7021297" lon="9.3239439"><ele>769.0</ele><time>2026-04-19T12:57:22.729Z</time></trkpt><trkpt lat="44.7020808" lon="9.3240599"><ele>769.0</ele><time>2026-04-19T12:57:23.729Z</time></trkpt><trkpt lat="44.7020478" lon="9.3242197"><ele>769.0</ele><time>2026-04-19T12:57:24.729Z</time></trkpt><trkpt lat="44.7020469" lon="9.3244262"><ele>771.0</ele><time>2026-04-19T12:57:25.729Z</time></trkpt><trkpt lat="44.7020645" lon="9.3246589"><ele>773.0</ele><time>2026-04-19T12:57:26.728Z</time></trkpt><trkpt lat="44.7020848" lon="9.3248864"><ele>775.0</ele><time>2026-04-19T12:57:27.729Z</time></trkpt><trkpt lat="44.7020747" lon="9.3250886"><ele>775.0</ele><time>2026-04-19T12:57:28.729Z</time></trkpt><trkpt lat="44.7020353" lon="9.3252697"><ele>775.0</ele><time>2026-04-19T12:57:29.729Z</time></trkpt><trkpt lat="44.7019651" lon="9.3254373"><ele>775.0</ele><time>2026-04-19T12:57:30.729Z</time></trkpt><trkpt lat="44.7018635" lon="9.3255671"><ele>775.0</ele><time>2026-04-19T12:57:31.728Z</time></trkpt><trkpt lat="44.7017211" lon="9.3256912"><ele>772.0</ele><time>2026-04-19T12:57:32.728Z</time></trkpt><trkpt lat="44.7015529" lon="9.3258102"><ele>769.0</ele><time>2026-04-19T12:57:33.729Z</time></trkpt><trkpt lat="44.7013997" lon="9.3259153"><ele>766.0</ele><time>2026-04-19T12:57:34.729Z</time></trkpt><trkpt lat="44.7012596" lon="9.3260147"><ele>766.0</ele><time>2026-04-19T12:57:35.729Z</time></trkpt><trkpt lat="44.7011397" lon="9.3261138"><ele>766.0</ele><time>2026-04-19T12:57:36.729Z</time></trkpt><trkpt lat="44.7010429" lon="9.3262174"><ele>766.0</ele><time>2026-04-19T12:57:37.729Z</time></trkpt><trkpt lat="44.700978" lon="9.3263398"><ele>766.0</ele><time>2026-04-19T12:57:38.729Z</time></trkpt><trkpt lat="44.7009395" lon="9.3264689"><ele>764.4</ele><time>2026-04-19T12:57:39.729Z</time></trkpt><trkpt lat="44.7009216" lon="9.326613"><ele>762.8</ele><time>2026-04-19T12:57:40.729Z</time></trkpt><trkpt lat="44.7009276" lon="9.3267638"><ele>761.1999999999999</ele><time>2026-04-19T12:57:41.728Z</time></trkpt><trkpt lat="44.7009608" lon="9.3269066"><ele>759.5999999999999</ele><time>2026-04-19T12:57:42.729Z</time></trkpt><trkpt lat="44.701023" lon="9.3270403"><ele>758.0</ele><time>2026-04-19T12:57:43.729Z</time></trkpt><trkpt lat="44.7011003" lon="9.3271507"><ele>758.0</ele><time>2026-04-19T12:57:44.728Z</time></trkpt><trkpt lat="44.7011942" lon="9.327242"><ele>758.0</ele><time>2026-04-19T12:57:45.728Z</time></trkpt><trkpt lat="44.7012924" lon="9.3272869"><ele>758.0</ele><time>2026-04-19T12:57:46.729Z</time></trkpt><trkpt lat="44.7013983" lon="9.3272974"><ele>758.0</ele><time>2026-04-19T12:57:47.729Z</time></trkpt><trkpt lat="44.7015055" lon="9.3272648"><ele>758.0</ele><time>2026-04-19T12:57:48.729Z</time></trkpt><trkpt lat="44.7016149" lon="9.3271821"><ele>758.0</ele><time>2026-04-19T12:57:49.729Z</time></trkpt><trkpt lat="44.7017326" lon="9.3270726"><ele>758.0</ele><time>2026-04-19T12:57:50.729Z</time></trkpt><trkpt lat="44.7018598" lon="9.3269789"><ele>758.0</ele><time>2026-04-19T12:57:51.729Z</time></trkpt><trkpt lat="44.7019876" lon="9.3269114"><ele>758.0</ele><time>2026-04-19T12:57:52.729Z</time></trkpt><trkpt lat="44.7021122" lon="9.3268593"><ele>755.3333333333333</ele><time>2026-04-19T12:57:53.729Z</time></trkpt><trkpt lat="44.7022446" lon="9.3268227"><ele>752.6666666666666</ele><time>2026-04-19T12:57:54.729Z</time></trkpt><trkpt lat="44.7024006" lon="9.3268184"><ele>750.0</ele><time>2026-04-19T12:57:55.729Z</time></trkpt><trkpt lat="44.7025595" lon="9.326817"><ele>750.0</ele><time>2026-04-19T12:57:56.729Z</time></trkpt><trkpt lat="44.7027222" lon="9.3268169"><ele>750.0</ele><time>2026-04-19T12:57:57.728Z</time></trkpt><trkpt lat="44.7028766" lon="9.3268135"><ele>750.0</ele><time>2026-04-19T12:57:58.728Z</time></trkpt><trkpt lat="44.7030284" lon="9.3268289"><ele>751.5</ele><time>2026-04-19T12:57:59.729Z</time></trkpt><trkpt lat="44.7031641" lon="9.3268775"><ele>753.0</ele><time>2026-04-19T12:58:00.729Z</time></trkpt><trkpt lat="44.7032859" lon="9.326962"><ele>754.5</ele><time>2026-04-19T12:58:01.728Z</time></trkpt><trkpt lat="44.7033801" lon="9.327061"><ele>756.0</ele><time>2026-04-19T12:58:02.729Z</time></trkpt><trkpt lat="44.7034611" lon="9.327185"><ele>751.75</ele><time>2026-04-19T12:58:03.729Z</time></trkpt><trkpt lat="44.703508" lon="9.3273528"><ele>747.5</ele><time>2026-04-19T12:58:04.729Z</time></trkpt><trkpt lat="44.7035121" lon="9.3275418"><ele>743.25</ele><time>2026-04-19T12:58:05.729Z</time></trkpt><trkpt lat="44.7035012" lon="9.3277487"><ele>739.0</ele><time>2026-04-19T12:58:06.729Z</time></trkpt><trkpt lat="44.7034918" lon="9.3279533"><ele>739.0</ele><time>2026-04-19T12:58:07.729Z</time></trkpt><trkpt lat="44.7034663" lon="9.3281412"><ele>739.0</ele><time>2026-04-19T12:58:08.729Z</time></trkpt><trkpt lat="44.7034431" lon="9.3283552"><ele>739.0</ele><time>2026-04-19T12:58:09.728Z</time></trkpt><trkpt lat="44.7034102" lon="9.3285667"><ele>739.0</ele><time>2026-04-19T12:58:10.729Z</time></trkpt><trkpt lat="44.7033693" lon="9.3287552"><ele>739.5</ele><time>2026-04-19T12:58:11.729Z</time></trkpt><trkpt lat="44.7033196" lon="9.328923"><ele>740.0</ele><time>2026-04-19T12:58:12.728Z</time></trkpt><trkpt lat="44.7032636" lon="9.3290757"><ele>740.5</ele><time>2026-04-19T12:58:13.729Z</time></trkpt><trkpt lat="44.7031993" lon="9.3292138"><ele>741.0</ele><time>2026-04-19T12:58:14.729Z</time></trkpt><trkpt lat="44.7031339" lon="9.3293398"><ele>741.0</ele><time>2026-04-19T12:58:15.729Z</time></trkpt><trkpt lat="44.7030626" lon="9.3294516"><ele>741.0</ele><time>2026-04-19T12:58:16.729Z</time></trkpt><trkpt lat="44.7029933" lon="9.3295612"><ele>741.0</ele><time>2026-04-19T12:58:17.728Z</time></trkpt><trkpt lat="44.7029409" lon="9.3296849"><ele>741.0</ele><time>2026-04-19T12:58:18.728Z</time></trkpt><trkpt lat="44.7029081" lon="9.3298315"><ele>741.0</ele><time>2026-04-19T12:58:19.729Z</time></trkpt><trkpt lat="44.702898" lon="9.3300028"><ele>740.75</ele><time>2026-04-19T12:58:20.728Z</time></trkpt><trkpt lat="44.7029032" lon="9.330202"><ele>740.5</ele><time>2026-04-19T12:58:21.728Z</time></trkpt><trkpt lat="44.7029093" lon="9.3303965"><ele>740.25</ele><time>2026-04-19T12:58:22.729Z</time></trkpt><trkpt lat="44.7029176" lon="9.330562"><ele>740.0</ele><time>2026-04-19T12:58:23.729Z</time></trkpt><trkpt lat="44.7029352" lon="9.3306949"><ele>736.25</ele><time>2026-04-19T12:58:24.729Z</time></trkpt><trkpt lat="44.7029896" lon="9.3308141"><ele>732.5</ele><time>2026-04-19T12:58:25.729Z</time></trkpt><trkpt lat="44.7030707" lon="9.3309244"><ele>728.75</ele><time>2026-04-19T12:58:26.729Z</time></trkpt><trkpt lat="44.7031815" lon="9.331022"><ele>725.0</ele><time>2026-04-19T12:58:27.729Z</time></trkpt><trkpt lat="44.7033161" lon="9.3311218"><ele>725.0</ele><time>2026-04-19T12:58:28.729Z</time></trkpt><trkpt lat="44.7034565" lon="9.3312222"><ele>725.0</ele><time>2026-04-19T12:58:29.729Z</time></trkpt><trkpt lat="44.703584" lon="9.3313307"><ele>725.0</ele><time>2026-04-19T12:58:30.729Z</time></trkpt><trkpt lat="44.7037013" lon="9.3314385"><ele>725.0</ele><time>2026-04-19T12:58:31.728Z</time></trkpt><trkpt lat="44.7038078" lon="9.3315304"><ele>724.2</ele><time>2026-04-19T12:58:32.728Z</time></trkpt><trkpt lat="44.703897" lon="9.3316265"><ele>723.4</ele><time>2026-04-19T12:58:33.729Z</time></trkpt><trkpt lat="44.7039703" lon="9.3317364"><ele>722.5999999999999</ele><time>2026-04-19T12:58:34.729Z</time></trkpt><trkpt lat="44.7040195" lon="9.3318665"><ele>721.8</ele><time>2026-04-19T12:58:35.729Z</time></trkpt><trkpt lat="44.704042" lon="9.332006"><ele>721.0</ele><time>2026-04-19T12:58:36.729Z</time></trkpt><trkpt lat="44.7040388" lon="9.3321473"><ele>720.6666666666667</ele><time>2026-04-19T12:58:37.729Z</time></trkpt><trkpt lat="44.7040116" lon="9.3322825"><ele>720.3333333333334</ele><time>2026-04-19T12:58:38.729Z</time></trkpt><trkpt lat="44.7039499" lon="9.3323936"><ele>720.0</ele><time>2026-04-19T12:58:39.729Z</time></trkpt><trkpt lat="44.7037262" lon="9.332594"><ele>720.0</ele><time>2026-04-19T12:58:41.729Z</time></trkpt><trkpt lat="44.703598" lon="9.3326974"><ele>720.0</ele><time>2026-04-19T12:58:42.729Z</time></trkpt><trkpt lat="44.7034723" lon="9.3327931"><ele>720.0</ele><time>2026-04-19T12:58:43.729Z</time></trkpt><trkpt lat="44.7033492" lon="9.3328793"><ele>720.0</ele><time>2026-04-19T12:58:44.729Z</time></trkpt><trkpt lat="44.7032359" lon="9.3329716"><ele>718.0</ele><time>2026-04-19T12:58:45.729Z</time></trkpt><trkpt lat="44.7031395" lon="9.3330561"><ele>716.0</ele><time>2026-04-19T12:58:46.729Z</time></trkpt><trkpt lat="44.7030703" lon="9.3331326"><ele>714.0</ele><time>2026-04-19T12:58:47.729Z</time></trkpt><trkpt lat="44.7029714" lon="9.3333143"><ele>712.0</ele><time>2026-04-19T12:58:49.728Z</time></trkpt><trkpt lat="44.7029625" lon="9.3334207"><ele>710.0</ele><time>2026-04-19T12:58:50.729Z</time></trkpt><trkpt lat="44.7030588" lon="9.3336598"><ele>710.0</ele><time>2026-04-19T12:58:52.729Z</time></trkpt><trkpt lat="44.7031891" lon="9.3337757"><ele>710.0</ele><time>2026-04-19T12:58:53.729Z</time></trkpt><trkpt lat="44.7034102" lon="9.3339751"><ele>710.0</ele><time>2026-04-19T12:58:55.729Z</time></trkpt><trkpt lat="44.7034831" lon="9.334105"><ele>707.75</ele><time>2026-04-19T12:58:56.728Z</time></trkpt><trkpt lat="44.7035549" lon="9.3342712"><ele>705.5</ele><time>2026-04-19T12:58:57.729Z</time></trkpt><trkpt lat="44.7036015" lon="9.3344392"><ele>703.25</ele><time>2026-04-19T12:58:58.729Z</time></trkpt><trkpt lat="44.7036242" lon="9.3345913"><ele>701.0</ele><time>2026-04-19T12:58:59.729Z</time></trkpt><trkpt lat="44.7036139" lon="9.3347322"><ele>702.0</ele><time>2026-04-19T12:59:00.729Z</time></trkpt><trkpt lat="44.703562" lon="9.334851"><ele>703.0</ele><time>2026-04-19T12:59:01.729Z</time></trkpt><trkpt lat="44.7033811" lon="9.3350231"><ele>704.0</ele><time>2026-04-19T12:59:03.728Z</time></trkpt><trkpt lat="44.7032867" lon="9.3350916"><ele>705.0</ele><time>2026-04-19T12:59:04.728Z</time></trkpt><trkpt lat="44.7031899" lon="9.3351567"><ele>705.0</ele><time>2026-04-19T12:59:05.729Z</time></trkpt><trkpt lat="44.7031139" lon="9.3352326"><ele>705.0</ele><time>2026-04-19T12:59:06.729Z</time></trkpt><trkpt lat="44.7030577" lon="9.3353264"><ele>705.0</ele><time>2026-04-19T12:59:07.729Z</time></trkpt><trkpt lat="44.7030194" lon="9.3354319"><ele>705.0</ele><time>2026-04-19T12:59:08.728Z</time></trkpt><trkpt lat="44.7030012" lon="9.335554"><ele>705.0</ele><time>2026-04-19T12:59:09.729Z</time></trkpt><trkpt lat="44.703003" lon="9.3357027"><ele>707.6666666666666</ele><time>2026-04-19T12:59:10.729Z</time></trkpt><trkpt lat="44.7030298" lon="9.3358798"><ele>710.3333333333333</ele><time>2026-04-19T12:59:11.729Z</time></trkpt><trkpt lat="44.7030536" lon="9.3360581"><ele>713.0</ele><time>2026-04-19T12:59:12.729Z</time></trkpt><trkpt lat="44.7030516" lon="9.3363653"><ele>712.5999999999999</ele><time>2026-04-19T12:59:14.729Z</time></trkpt><trkpt lat="44.703029" lon="9.3364977"><ele>712.1999999999999</ele><time>2026-04-19T12:59:15.729Z</time></trkpt><trkpt lat="44.7029865" lon="9.3366145"><ele>711.8</ele><time>2026-04-19T12:59:16.729Z</time></trkpt><trkpt lat="44.7029151" lon="9.3367257"><ele>711.4</ele><time>2026-04-19T12:59:17.729Z</time></trkpt><trkpt lat="44.7028267" lon="9.3368312"><ele>711.0</ele><time>2026-04-19T12:59:18.728Z</time></trkpt><trkpt lat="44.7027432" lon="9.3369301"><ele>706.8</ele><time>2026-04-19T12:59:19.729Z</time></trkpt><trkpt lat="44.7026761" lon="9.3370191"><ele>702.5999999999999</ele><time>2026-04-19T12:59:20.729Z</time></trkpt><trkpt lat="44.7026183" lon="9.3371163"><ele>698.4</ele><time>2026-04-19T12:59:21.728Z</time></trkpt><trkpt lat="44.7025857" lon="9.3372153"><ele>694.2</ele><time>2026-04-19T12:59:22.729Z</time></trkpt><trkpt lat="44.7025916" lon="9.337322"><ele>690.0</ele><time>2026-04-19T12:59:23.729Z</time></trkpt><trkpt lat="44.7026829" lon="9.3374877"><ele>691.8</ele><time>2026-04-19T12:59:25.729Z</time></trkpt><trkpt lat="44.7027659" lon="9.3375238"><ele>693.6</ele><time>2026-04-19T12:59:26.729Z</time></trkpt><trkpt lat="44.7028694" lon="9.3375223"><ele>695.4000000000001</ele><time>2026-04-19T12:59:27.728Z</time></trkpt><trkpt lat="44.7029896" lon="9.3374728"><ele>697.2</ele><time>2026-04-19T12:59:28.729Z</time></trkpt><trkpt lat="44.7031163" lon="9.3374213"><ele>699.0</ele><time>2026-04-19T12:59:29.729Z</time></trkpt><trkpt lat="44.7032276" lon="9.3374037"><ele>699.0</ele><time>2026-04-19T12:59:30.729Z</time></trkpt><trkpt lat="44.7033233" lon="9.3374412"><ele>699.0</ele><time>2026-04-19T12:59:31.729Z</time></trkpt><trkpt lat="44.703422" lon="9.3375462"><ele>699.0</ele><time>2026-04-19T12:59:32.729Z</time></trkpt><trkpt lat="44.7035065" lon="9.3377161"><ele>699.0</ele><time>2026-04-19T12:59:33.729Z</time></trkpt><trkpt lat="44.7035669" lon="9.3379254"><ele>698.5</ele><time>2026-04-19T12:59:34.729Z</time></trkpt><trkpt lat="44.7036792" lon="9.3382813"><ele>698.0</ele><time>2026-04-19T12:59:36.729Z</time></trkpt><trkpt lat="44.7038447" lon="9.3385019"><ele>698.0</ele><time>2026-04-19T12:59:38.728Z</time></trkpt><trkpt lat="44.7039418" lon="9.3385606"><ele>698.0</ele><time>2026-04-19T12:59:39.729Z</time></trkpt><trkpt lat="44.7040368" lon="9.3386127"><ele>698.0</ele><time>2026-04-19T12:59:40.728Z</time></trkpt><trkpt lat="44.7041152" lon="9.3386698"><ele>698.0</ele><time>2026-04-19T12:59:41.729Z</time></trkpt><trkpt lat="44.7041729" lon="9.3387402"><ele>698.0</ele><time>2026-04-19T12:59:42.729Z</time></trkpt><trkpt lat="44.7042149" lon="9.3388177"><ele>698.0</ele><time>2026-04-19T12:59:43.729Z</time></trkpt><trkpt lat="44.704226" lon="9.3389298"><ele>696.75</ele><time>2026-04-19T12:59:44.729Z</time></trkpt><trkpt lat="44.7042171" lon="9.3390687"><ele>695.5</ele><time>2026-04-19T12:59:45.728Z</time></trkpt><trkpt lat="44.7041879" lon="9.3392396"><ele>694.25</ele><time>2026-04-19T12:59:46.729Z</time></trkpt><trkpt lat="44.7041544" lon="9.3394413"><ele>693.0</ele><time>2026-04-19T12:59:47.729Z</time></trkpt><trkpt lat="44.7041043" lon="9.3398426"><ele>693.0</ele><time>2026-04-19T12:59:49.729Z</time></trkpt><trkpt lat="44.7040946" lon="9.3400315"><ele>693.0</ele><time>2026-04-19T12:59:50.729Z</time></trkpt><trkpt lat="44.7040803" lon="9.340205"><ele>693.0</ele><time>2026-04-19T12:59:51.729Z</time></trkpt><trkpt lat="44.7040553" lon="9.3403522"><ele>693.0</ele><time>2026-04-19T12:59:52.729Z</time></trkpt><trkpt lat="44.7040387" lon="9.3404867"><ele>693.0</ele><time>2026-04-19T12:59:53.728Z</time></trkpt><trkpt lat="44.7040207" lon="9.3406123"><ele>693.0</ele><time>2026-04-19T12:59:54.728Z</time></trkpt><trkpt lat="44.7040024" lon="9.3407357"><ele>693.0</ele><time>2026-04-19T12:59:55.729Z</time></trkpt><trkpt lat="44.7039763" lon="9.3408563"><ele>693.0</ele><time>2026-04-19T12:59:56.729Z</time></trkpt><trkpt lat="44.7039616" lon="9.340967"><ele>693.0</ele><time>2026-04-19T12:59:57.728Z</time></trkpt><trkpt lat="44.703954" lon="9.3410864"><ele>693.0</ele><time>2026-04-19T12:59:58.729Z</time></trkpt><trkpt lat="44.7039542" lon="9.3411911"><ele>693.0</ele><time>2026-04-19T12:59:59.729Z</time></trkpt><trkpt lat="44.7039811" lon="9.3413481"><ele>693.0</ele><time>2026-04-19T13:00:01.729Z</time></trkpt><trkpt lat="44.7040583" lon="9.3414143"><ele>693.0</ele><time>2026-04-19T13:00:39.729Z</time></trkpt><trkpt lat="44.7039952" lon="9.3412518"><ele>693.0</ele><time>2026-04-19T13:00:42.728Z</time></trkpt><trkpt lat="44.7039706" lon="9.3411119"><ele>693.0</ele><time>2026-04-19T13:00:43.728Z</time></trkpt><trkpt lat="44.7039634" lon="9.3409291"><ele>693.0</ele><time>2026-04-19T13:00:44.729Z</time></trkpt><trkpt lat="44.7039903" lon="9.3407133"><ele>693.0</ele><time>2026-04-19T13:00:45.728Z</time></trkpt><trkpt lat="44.7040284" lon="9.340486"><ele>693.0</ele><time>2026-04-19T13:00:46.729Z</time></trkpt><trkpt lat="44.7040623" lon="9.3402755"><ele>693.0</ele><time>2026-04-19T13:00:47.729Z</time></trkpt><trkpt lat="44.7040907" lon="9.3400686"><ele>693.0</ele><time>2026-04-19T13:00:48.729Z</time></trkpt><trkpt lat="44.7041088" lon="9.3398625"><ele>693.0</ele><time>2026-04-19T13:00:49.728Z</time></trkpt><trkpt lat="44.704122" lon="9.3396631"><ele>693.0</ele><time>2026-04-19T13:00:50.729Z</time></trkpt><trkpt lat="44.7041367" lon="9.3394741"><ele>693.0</ele><time>2026-04-19T13:00:51.729Z</time></trkpt><trkpt lat="44.7041567" lon="9.339295"><ele>693.0</ele><time>2026-04-19T13:00:52.729Z</time></trkpt><trkpt lat="44.7041847" lon="9.3391156"><ele>693.0</ele><time>2026-04-19T13:00:53.729Z</time></trkpt><trkpt lat="44.7042109" lon="9.3388223"><ele>694.25</ele><time>2026-04-19T13:00:55.729Z</time></trkpt><trkpt lat="44.7041911" lon="9.3387104"><ele>695.5</ele><time>2026-04-19T13:00:56.729Z</time></trkpt><trkpt lat="44.7041439" lon="9.3385984"><ele>696.75</ele><time>2026-04-19T13:00:57.729Z</time></trkpt><trkpt lat="44.7039444" lon="9.3384569"><ele>698.0</ele><time>2026-04-19T13:00:59.728Z</time></trkpt><trkpt lat="44.7038249" lon="9.3384034"><ele>698.0</ele><time>2026-04-19T13:01:00.729Z</time></trkpt><trkpt lat="44.703721" lon="9.3383256"><ele>698.0</ele><time>2026-04-19T13:01:01.729Z</time></trkpt><trkpt lat="44.7036402" lon="9.3381909"><ele>698.0</ele><time>2026-04-19T13:01:02.729Z</time></trkpt><trkpt lat="44.7035833" lon="9.3380268"><ele>698.0</ele><time>2026-04-19T13:01:03.729Z</time></trkpt><trkpt lat="44.7035346" lon="9.3378533"><ele>698.2</ele><time>2026-04-19T13:01:04.728Z</time></trkpt><trkpt lat="44.7034936" lon="9.3377043"><ele>698.4</ele><time>2026-04-19T13:01:05.729Z</time></trkpt><trkpt lat="44.7034524" lon="9.3375694"><ele>698.6</ele><time>2026-04-19T13:01:06.729Z</time></trkpt><trkpt lat="44.7034023" lon="9.3374536"><ele>698.8000000000001</ele><time>2026-04-19T13:01:07.728Z</time></trkpt><trkpt lat="44.703335" lon="9.3373605"><ele>699.0</ele><time>2026-04-19T13:01:08.729Z</time></trkpt><trkpt lat="44.7032469" lon="9.3373055"><ele>699.0</ele><time>2026-04-19T13:01:09.729Z</time></trkpt><trkpt lat="44.7031397" lon="9.337306"><ele>699.0</ele><time>2026-04-19T13:01:10.729Z</time></trkpt><trkpt lat="44.7030245" lon="9.3373446"><ele>699.0</ele><time>2026-04-19T13:01:11.729Z</time></trkpt><trkpt lat="44.7029091" lon="9.3373937"><ele>699.0</ele><time>2026-04-19T13:01:12.729Z</time></trkpt><trkpt lat="44.7027965" lon="9.3374111"><ele>697.2</ele><time>2026-04-19T13:01:13.729Z</time></trkpt><trkpt lat="44.7027155" lon="9.337395"><ele>695.4000000000001</ele><time>2026-04-19T13:01:14.729Z</time></trkpt><trkpt lat="44.7026523" lon="9.3373417"><ele>693.6</ele><time>2026-04-19T13:01:15.729Z</time></trkpt><trkpt lat="44.7026183" lon="9.337241"><ele>691.8</ele><time>2026-04-19T13:01:16.729Z</time></trkpt><trkpt lat="44.7026749" lon="9.3369883"><ele>690.0</ele><time>2026-04-19T13:01:18.728Z</time></trkpt><trkpt lat="44.7027641" lon="9.3368777"><ele>695.25</ele><time>2026-04-19T13:01:19.729Z</time></trkpt><trkpt lat="44.70287" lon="9.3367705"><ele>700.5</ele><time>2026-04-19T13:01:20.729Z</time></trkpt><trkpt lat="44.7029639" lon="9.3366652"><ele>705.75</ele><time>2026-04-19T13:01:21.729Z</time></trkpt><trkpt lat="44.7030434" lon="9.3365464"><ele>711.0</ele><time>2026-04-19T13:01:22.729Z</time></trkpt><trkpt lat="44.7030918" lon="9.336384"><ele>711.5</ele><time>2026-04-19T13:01:23.728Z</time></trkpt><trkpt lat="44.7031116" lon="9.3361892"><ele>712.0</ele><time>2026-04-19T13:01:24.729Z</time></trkpt><trkpt lat="44.7031054" lon="9.3359787"><ele>712.5</ele><time>2026-04-19T13:01:25.729Z</time></trkpt><trkpt lat="44.7030679" lon="9.3357648"><ele>713.0</ele><time>2026-04-19T13:01:26.729Z</time></trkpt><trkpt lat="44.7030403" lon="9.3355851"><ele>711.4</ele><time>2026-04-19T13:01:27.728Z</time></trkpt><trkpt lat="44.7030381" lon="9.3354346"><ele>709.8</ele><time>2026-04-19T13:01:28.729Z</time></trkpt><trkpt lat="44.7030704" lon="9.3353212"><ele>708.2</ele><time>2026-04-19T13:01:29.728Z</time></trkpt><trkpt lat="44.7031358" lon="9.3352315"><ele>706.6</ele><time>2026-04-19T13:01:30.729Z</time></trkpt><trkpt lat="44.7032319" lon="9.3351497"><ele>705.0</ele><time>2026-04-19T13:01:31.729Z</time></trkpt><trkpt lat="44.7033365" lon="9.3350646"><ele>705.0</ele><time>2026-04-19T13:01:32.729Z</time></trkpt><trkpt lat="44.703423" lon="9.3349841"><ele>705.0</ele><time>2026-04-19T13:01:33.729Z</time></trkpt><trkpt lat="44.7035051" lon="9.3349041"><ele>705.0</ele><time>2026-04-19T13:01:34.728Z</time></trkpt><trkpt lat="44.7035793" lon="9.3348189"><ele>705.0</ele><time>2026-04-19T13:01:35.729Z</time></trkpt><trkpt lat="44.7036354" lon="9.3347145"><ele>705.0</ele><time>2026-04-19T13:01:36.729Z</time></trkpt><trkpt lat="44.7036538" lon="9.3345846"><ele>704.0</ele><time>2026-04-19T13:01:37.729Z</time></trkpt><trkpt lat="44.7036387" lon="9.3344438"><ele>703.0</ele><time>2026-04-19T13:01:38.729Z</time></trkpt><trkpt lat="44.7036017" lon="9.3342995"><ele>702.0</ele><time>2026-04-19T13:01:39.729Z</time></trkpt><trkpt lat="44.7035476" lon="9.334142"><ele>701.0</ele><time>2026-04-19T13:01:40.728Z</time></trkpt><trkpt lat="44.7034711" lon="9.3339838"><ele>704.0</ele><time>2026-04-19T13:01:41.729Z</time></trkpt><trkpt lat="44.7033852" lon="9.3338415"><ele>707.0</ele><time>2026-04-19T13:01:42.728Z</time></trkpt><trkpt lat="44.7032035" lon="9.3336293"><ele>710.0</ele><time>2026-04-19T13:01:44.729Z</time></trkpt><trkpt lat="44.7031239" lon="9.3335497"><ele>710.0</ele><time>2026-04-19T13:01:45.729Z</time></trkpt><trkpt lat="44.7030635" lon="9.33346"><ele>710.0</ele><time>2026-04-19T13:01:46.729Z</time></trkpt><trkpt lat="44.7030148" lon="9.333357"><ele>710.0</ele><time>2026-04-19T13:01:47.728Z</time></trkpt><trkpt lat="44.7029994" lon="9.3332488"><ele>710.0</ele><time>2026-04-19T13:01:48.729Z</time></trkpt><trkpt lat="44.703022" lon="9.3331493"><ele>710.0</ele><time>2026-04-19T13:01:49.729Z</time></trkpt><trkpt lat="44.7030776" lon="9.3330592"><ele>710.0</ele><time>2026-04-19T13:01:50.729Z</time></trkpt><trkpt lat="44.7031633" lon="9.332985"><ele>708.3333333333333</ele><time>2026-04-19T13:01:51.729Z</time></trkpt><trkpt lat="44.7032722" lon="9.332911"><ele>706.6666666666666</ele><time>2026-04-19T13:01:52.729Z</time></trkpt><trkpt lat="44.7033896" lon="9.332834"><ele>705.0</ele><time>2026-04-19T13:01:53.729Z</time></trkpt><trkpt lat="44.7036305" lon="9.3326646"><ele>708.0</ele><time>2026-04-19T13:01:55.729Z</time></trkpt><trkpt lat="44.7037439" lon="9.3325685"><ele>711.0</ele><time>2026-04-19T13:01:56.729Z</time></trkpt><trkpt lat="44.7038487" lon="9.3324839"><ele>714.0</ele><time>2026-04-19T13:01:57.729Z</time></trkpt><trkpt lat="44.7039328" lon="9.3323983"><ele>717.0</ele><time>2026-04-19T13:01:58.729Z</time></trkpt><trkpt lat="44.7039914" lon="9.3323228"><ele>720.0</ele><time>2026-04-19T13:01:59.728Z</time></trkpt><trkpt lat="44.7040373" lon="9.3322195"><ele>720.1666666666666</ele><time>2026-04-19T13:02:00.729Z</time></trkpt><trkpt lat="44.7040492" lon="9.3320972"><ele>720.3333333333334</ele><time>2026-04-19T13:02:01.729Z</time></trkpt><trkpt lat="44.7040441" lon="9.3319753"><ele>720.5</ele><time>2026-04-19T13:02:02.729Z</time></trkpt><trkpt lat="44.7040223" lon="9.3318613"><ele>720.6666666666667</ele><time>2026-04-19T13:02:03.729Z</time></trkpt><trkpt lat="44.7040015" lon="9.3317736"><ele>720.8333333333334</ele><time>2026-04-19T13:02:04.729Z</time></trkpt><trkpt lat="44.704014" lon="9.3316865"><ele>721.0</ele><time>2026-04-19T13:02:06.729Z</time></trkpt><trkpt lat="44.7041153" lon="9.3317351"><ele>721.0</ele><time>2026-04-19T13:02:09.729Z</time></trkpt><trkpt lat="44.7041729" lon="9.3317849"><ele>721.0</ele><time>2026-04-19T13:02:10.729Z</time></trkpt><trkpt lat="44.7042452" lon="9.3318351"><ele>721.0</ele><time>2026-04-19T13:02:11.729Z</time></trkpt><trkpt lat="44.7043187" lon="9.3318745"><ele>721.0</ele><time>2026-04-19T13:02:12.729Z</time></trkpt><trkpt lat="44.7043959" lon="9.3319058"><ele>721.0</ele><time>2026-04-19T13:02:13.729Z</time></trkpt><trkpt lat="44.7044669" lon="9.3319392"><ele>721.0</ele><time>2026-04-19T13:02:14.729Z</time></trkpt><trkpt lat="44.704538" lon="9.3319908"><ele>724.5999999999999</ele><time>2026-04-19T13:02:15.728Z</time></trkpt><trkpt lat="44.704584" lon="9.3320785"><ele>728.2</ele><time>2026-04-19T13:02:16.728Z</time></trkpt><trkpt lat="44.7046066" lon="9.3322116"><ele>731.8</ele><time>2026-04-19T13:02:17.729Z</time></trkpt><trkpt lat="44.704606" lon="9.3323632"><ele>735.4000000000001</ele><time>2026-04-19T13:02:18.729Z</time></trkpt><trkpt lat="44.7045844" lon="9.3325281"><ele>739.0</ele><time>2026-04-19T13:02:19.729Z</time></trkpt><trkpt lat="44.7045464" lon="9.3327014"><ele>740.75</ele><time>2026-04-19T13:02:20.728Z</time></trkpt><trkpt lat="44.7044852" lon="9.3328559"><ele>742.5</ele><time>2026-04-19T13:02:21.729Z</time></trkpt><trkpt lat="44.7044084" lon="9.3329797"><ele>744.25</ele><time>2026-04-19T13:02:22.729Z</time></trkpt><trkpt lat="44.7043282" lon="9.3330779"><ele>746.0</ele><time>2026-04-19T13:02:23.729Z</time></trkpt><trkpt lat="44.704245" lon="9.3331669"><ele>742.6666666666666</ele><time>2026-04-19T13:02:24.728Z</time></trkpt><trkpt lat="44.7041628" lon="9.3332578"><ele>739.3333333333333</ele><time>2026-04-19T13:02:25.728Z</time></trkpt><trkpt lat="44.7040929" lon="9.3333489"><ele>736.0</ele><time>2026-04-19T13:02:26.729Z</time></trkpt><trkpt lat="44.7040421" lon="9.333437"><ele>732.6666666666666</ele><time>2026-04-19T13:02:27.729Z</time></trkpt><trkpt lat="44.7040228" lon="9.3335294"><ele>729.3333333333334</ele><time>2026-04-19T13:02:28.729Z</time></trkpt><trkpt lat="44.7040272" lon="9.3336287"><ele>726.0</ele><time>2026-04-19T13:02:29.729Z</time></trkpt><trkpt lat="44.7040681" lon="9.3337379"><ele>726.0</ele><time>2026-04-19T13:02:30.728Z</time></trkpt><trkpt lat="44.7041381" lon="9.3338655"><ele>726.0</ele><time>2026-04-19T13:02:31.729Z</time></trkpt><trkpt lat="44.7042333" lon="9.3339918"><ele>726.0</ele><time>2026-04-19T13:02:32.728Z</time></trkpt><trkpt lat="44.7043296" lon="9.3341054"><ele>726.0</ele><time>2026-04-19T13:02:33.728Z</time></trkpt><trkpt lat="44.7044132" lon="9.3341725"><ele>730.5999999999999</ele><time>2026-04-19T13:02:34.729Z</time></trkpt><trkpt lat="44.7044861" lon="9.334199"><ele>735.2</ele><time>2026-04-19T13:02:35.729Z</time></trkpt><trkpt lat="44.7045676" lon="9.3341983"><ele>739.8</ele><time>2026-04-19T13:02:36.729Z</time></trkpt><trkpt lat="44.7046639" lon="9.3341872"><ele>744.4000000000001</ele><time>2026-04-19T13:02:37.729Z</time></trkpt><trkpt lat="44.7047663" lon="9.3341857"><ele>749.0</ele><time>2026-04-19T13:02:38.728Z</time></trkpt><trkpt lat="44.7048782" lon="9.3342104"><ele>749.0</ele><time>2026-04-19T13:02:39.729Z</time></trkpt><trkpt lat="44.7049704" lon="9.3342652"><ele>749.0</ele><time>2026-04-19T13:02:40.728Z</time></trkpt><trkpt lat="44.7050386" lon="9.3343272"><ele>749.0</ele><time>2026-04-19T13:02:41.729Z</time></trkpt><trkpt lat="44.7050928" lon="9.3344068"><ele>749.0</ele><time>2026-04-19T13:02:42.729Z</time></trkpt><trkpt lat="44.7051385" lon="9.3345123"><ele>749.0</ele><time>2026-04-19T13:02:43.729Z</time></trkpt><trkpt lat="44.7051728" lon="9.3346395"><ele>749.0</ele><time>2026-04-19T13:02:44.729Z</time></trkpt><trkpt lat="44.7052066" lon="9.3347923"><ele>748.4000000000001</ele><time>2026-04-19T13:02:45.729Z</time></trkpt><trkpt lat="44.7052336" lon="9.3349676"><ele>747.8</ele><time>2026-04-19T13:02:46.729Z</time></trkpt><trkpt lat="44.7052496" lon="9.3351274"><ele>747.2</ele><time>2026-04-19T13:02:47.729Z</time></trkpt><trkpt lat="44.7052521" lon="9.3352579"><ele>746.5999999999999</ele><time>2026-04-19T13:02:48.729Z</time></trkpt><trkpt lat="44.7052566" lon="9.3353634"><ele>746.0</ele><time>2026-04-19T13:02:49.728Z</time></trkpt><trkpt lat="44.7052744" lon="9.335512"><ele>749.5999999999999</ele><time>2026-04-19T13:02:51.729Z</time></trkpt><trkpt lat="44.705366" lon="9.3356198"><ele>753.2</ele><time>2026-04-19T13:02:53.729Z</time></trkpt><trkpt lat="44.7054441" lon="9.3356909"><ele>756.8</ele><time>2026-04-19T13:02:54.728Z</time></trkpt><trkpt lat="44.7055385" lon="9.3357717"><ele>760.4000000000001</ele><time>2026-04-19T13:02:55.729Z</time></trkpt><trkpt lat="44.7056432" lon="9.3358651"><ele>764.0</ele><time>2026-04-19T13:02:56.728Z</time></trkpt><trkpt lat="44.7057344" lon="9.3359705"><ele>764.0</ele><time>2026-04-19T13:02:57.729Z</time></trkpt><trkpt lat="44.7058006" lon="9.3360709"><ele>764.0</ele><time>2026-04-19T13:02:58.729Z</time></trkpt><trkpt lat="44.7058612" lon="9.3361878"><ele>764.0</ele><time>2026-04-19T13:02:59.728Z</time></trkpt><trkpt lat="44.7059104" lon="9.3363183"><ele>764.0</ele><time>2026-04-19T13:03:00.729Z</time></trkpt><trkpt lat="44.7059472" lon="9.3364466"><ele>764.0</ele><time>2026-04-19T13:03:01.729Z</time></trkpt><trkpt lat="44.7059685" lon="9.3365546"><ele>762.1666666666666</ele><time>2026-04-19T13:03:02.729Z</time></trkpt><trkpt lat="44.7060048" lon="9.3366322"><ele>760.3333333333333</ele><time>2026-04-19T13:03:03.729Z</time></trkpt><trkpt lat="44.7061004" lon="9.3367611"><ele>758.5</ele><time>2026-04-19T13:03:05.729Z</time></trkpt><trkpt lat="44.7061576" lon="9.3368312"><ele>756.6666666666666</ele><time>2026-04-19T13:03:06.729Z</time></trkpt><trkpt lat="44.7062208" lon="9.3368866"><ele>754.8333333333334</ele><time>2026-04-19T13:03:07.729Z</time></trkpt><trkpt lat="44.7062889" lon="9.3369249"><ele>753.0</ele><time>2026-04-19T13:03:08.728Z</time></trkpt><trkpt lat="44.7063552" lon="9.3369456"><ele>759.5</ele><time>2026-04-19T13:03:09.728Z</time></trkpt><trkpt lat="44.7064508" lon="9.3369365"><ele>766.0</ele><time>2026-04-19T13:03:10.729Z</time></trkpt><trkpt lat="44.7065571" lon="9.3369056"><ele>772.5</ele><time>2026-04-19T13:03:11.728Z</time></trkpt><trkpt lat="44.7066737" lon="9.3368761"><ele>779.0</ele><time>2026-04-19T13:03:12.729Z</time></trkpt><trkpt lat="44.7069083" lon="9.3368318"><ele>782.0</ele><time>2026-04-19T13:03:14.729Z</time></trkpt><trkpt lat="44.7070291" lon="9.3368164"><ele>785.0</ele><time>2026-04-19T13:03:15.729Z</time></trkpt><trkpt lat="44.7071396" lon="9.3368065"><ele>788.0</ele><time>2026-04-19T13:03:16.729Z</time></trkpt><trkpt lat="44.7072489" lon="9.3367771"><ele>791.0</ele><time>2026-04-19T13:03:17.729Z</time></trkpt><trkpt lat="44.707357" lon="9.3367296"><ele>791.0</ele><time>2026-04-19T13:03:18.729Z</time></trkpt><trkpt lat="44.7074718" lon="9.3366732"><ele>791.0</ele><time>2026-04-19T13:03:19.729Z</time></trkpt><trkpt lat="44.7075997" lon="9.3366261"><ele>791.0</ele><time>2026-04-19T13:03:20.728Z</time></trkpt><trkpt lat="44.7077339" lon="9.3365938"><ele>791.0</ele><time>2026-04-19T13:03:21.729Z</time></trkpt><trkpt lat="44.7081134" lon="9.3366229"><ele>792.5</ele><time>2026-04-19T13:03:24.729Z</time></trkpt><trkpt lat="44.70842" lon="9.3367747"><ele>794.0</ele><time>2026-04-19T13:03:26.728Z</time></trkpt><trkpt lat="44.7085747" lon="9.3368598"><ele>796.5</ele><time>2026-04-19T13:03:27.729Z</time></trkpt><trkpt lat="44.7087244" lon="9.3369273"><ele>799.0</ele><time>2026-04-19T13:03:28.729Z</time></trkpt><trkpt lat="44.7088588" lon="9.3369948"><ele>801.5</ele><time>2026-04-19T13:03:29.729Z</time></trkpt><trkpt lat="44.7089911" lon="9.3370568"><ele>804.0</ele><time>2026-04-19T13:03:30.729Z</time></trkpt><trkpt lat="44.7092575" lon="9.3371671"><ele>803.5</ele><time>2026-04-19T13:03:32.729Z</time></trkpt><trkpt lat="44.7093828" lon="9.3372237"><ele>803.0</ele><time>2026-04-19T13:03:33.729Z</time></trkpt><trkpt lat="44.7094947" lon="9.3372986"><ele>802.5</ele><time>2026-04-19T13:03:34.729Z</time></trkpt><trkpt lat="44.7095919" lon="9.3373709"><ele>802.0</ele><time>2026-04-19T13:03:35.729Z</time></trkpt><trkpt lat="44.7097427" lon="9.3374251"><ele>804.75</ele><time>2026-04-19T13:03:37.729Z</time></trkpt><trkpt lat="44.7098597" lon="9.3373335"><ele>807.5</ele><time>2026-04-19T13:03:39.729Z</time></trkpt><trkpt lat="44.7098934" lon="9.3372008"><ele>810.25</ele><time>2026-04-19T13:03:40.729Z</time></trkpt><trkpt lat="44.7099324" lon="9.3370411"><ele>813.0</ele><time>2026-04-19T13:03:41.728Z</time></trkpt><trkpt lat="44.7099929" lon="9.3369075"><ele>813.0</ele><time>2026-04-19T13:03:42.729Z</time></trkpt><trkpt lat="44.7100719" lon="9.3368209"><ele>813.0</ele><time>2026-04-19T13:03:43.729Z</time></trkpt><trkpt lat="44.7101575" lon="9.3367658"><ele>813.0</ele><time>2026-04-19T13:03:44.729Z</time></trkpt><trkpt lat="44.7102588" lon="9.336734"><ele>813.0</ele><time>2026-04-19T13:03:45.729Z</time></trkpt><trkpt lat="44.7103603" lon="9.3367141"><ele>813.0</ele><time>2026-04-19T13:03:46.729Z</time></trkpt><trkpt lat="44.7104728" lon="9.3367011"><ele>815.25</ele><time>2026-04-19T13:03:47.728Z</time></trkpt><trkpt lat="44.7105862" lon="9.3366943"><ele>817.5</ele><time>2026-04-19T13:03:48.728Z</time></trkpt><trkpt lat="44.710785" lon="9.3367031"><ele>819.75</ele><time>2026-04-19T13:03:50.729Z</time></trkpt><trkpt lat="44.7108658" lon="9.3367207"><ele>822.0</ele><time>2026-04-19T13:03:51.729Z</time></trkpt><trkpt lat="44.710931" lon="9.336756"><ele>822.0</ele><time>2026-04-19T13:03:52.729Z</time></trkpt><trkpt lat="44.7109971" lon="9.3368031"><ele>822.0</ele><time>2026-04-19T13:03:53.729Z</time></trkpt><trkpt lat="44.7110601" lon="9.3368561"><ele>822.0</ele><time>2026-04-19T13:03:54.729Z</time></trkpt><trkpt lat="44.7111155" lon="9.3369132"><ele>822.0</ele><time>2026-04-19T13:03:55.729Z</time></trkpt><trkpt lat="44.7112169" lon="9.3370253"><ele>822.0</ele><time>2026-04-19T13:03:57.728Z</time></trkpt><trkpt lat="44.7112768" lon="9.3370787"><ele>822.0</ele><time>2026-04-19T13:03:58.729Z</time></trkpt><trkpt lat="44.7113354" lon="9.3371425"><ele>822.4000000000001</ele><time>2026-04-19T13:03:59.729Z</time></trkpt><trkpt lat="44.711406" lon="9.3372143"><ele>822.8000000000001</ele><time>2026-04-19T13:04:00.729Z</time></trkpt><trkpt lat="44.7114783" lon="9.3372717"><ele>823.2</ele><time>2026-04-19T13:04:01.728Z</time></trkpt><trkpt lat="44.7115607" lon="9.3373073"><ele>823.6</ele><time>2026-04-19T13:04:02.729Z</time></trkpt><trkpt lat="44.7117456" lon="9.3373504"><ele>824.0</ele><time>2026-04-19T13:04:04.728Z</time></trkpt><trkpt lat="44.7118466" lon="9.3373674"><ele>822.8333333333334</ele><time>2026-04-19T13:04:05.729Z</time></trkpt><trkpt lat="44.7119411" lon="9.3373819"><ele>821.6666666666667</ele><time>2026-04-19T13:04:06.729Z</time></trkpt><trkpt lat="44.7120383" lon="9.3373928"><ele>820.5</ele><time>2026-04-19T13:04:07.729Z</time></trkpt><trkpt lat="44.7121221" lon="9.3374177"><ele>819.3333333333333</ele><time>2026-04-19T13:04:08.729Z</time></trkpt><trkpt lat="44.7121966" lon="9.3374607"><ele>818.1666666666666</ele><time>2026-04-19T13:04:09.729Z</time></trkpt><trkpt lat="44.7122602" lon="9.3375279"><ele>817.0</ele><time>2026-04-19T13:04:10.729Z</time></trkpt><trkpt lat="44.7123148" lon="9.3376153"><ele>816.9999999999999</ele><time>2026-04-19T13:04:11.729Z</time></trkpt><trkpt lat="44.7123631" lon="9.3377027"><ele>817.0</ele><time>2026-04-19T13:04:12.729Z</time></trkpt><trkpt lat="44.712404" lon="9.3377926"><ele>817.0</ele><time>2026-04-19T13:04:13.729Z</time></trkpt><trkpt lat="44.7124071" lon="9.3378813"><ele>817.0</ele><time>2026-04-19T13:04:14.729Z</time></trkpt><trkpt lat="44.7123722" lon="9.3379576"><ele>816.9999999999999</ele><time>2026-04-19T13:04:15.729Z</time></trkpt><trkpt lat="44.7123075" lon="9.3380215"><ele>817.0</ele><time>2026-04-19T13:04:16.729Z</time></trkpt><trkpt lat="44.7122289" lon="9.3380819"><ele>817.8</ele><time>2026-04-19T13:04:17.729Z</time></trkpt><trkpt lat="44.7121313" lon="9.3381361"><ele>818.6</ele><time>2026-04-19T13:04:18.729Z</time></trkpt><trkpt lat="44.712022" lon="9.3381885"><ele>819.4</ele><time>2026-04-19T13:04:19.729Z</time></trkpt><trkpt lat="44.7119253" lon="9.3382274"><ele>820.1999999999999</ele><time>2026-04-19T13:04:20.729Z</time></trkpt><trkpt lat="44.7118344" lon="9.3382716"><ele>821.0</ele><time>2026-04-19T13:04:21.729Z</time></trkpt><trkpt lat="44.7117545" lon="9.3383251"><ele>821.0000000000001</ele><time>2026-04-19T13:04:22.729Z</time></trkpt><trkpt lat="44.7116861" lon="9.3384013"><ele>821.0</ele><time>2026-04-19T13:04:23.728Z</time></trkpt><trkpt lat="44.7116276" lon="9.3384857"><ele>821.0</ele><time>2026-04-19T13:04:24.728Z</time></trkpt><trkpt lat="44.7115882" lon="9.3385776"><ele>821.0</ele><time>2026-04-19T13:04:25.729Z</time></trkpt><trkpt lat="44.711566" lon="9.3386917"><ele>821.0000000000001</ele><time>2026-04-19T13:04:26.729Z</time></trkpt><trkpt lat="44.7115656" lon="9.3388347"><ele>821.0</ele><time>2026-04-19T13:04:27.729Z</time></trkpt><trkpt lat="44.7115746" lon="9.3390075"><ele>824.0</ele><time>2026-04-19T13:04:28.729Z</time></trkpt><trkpt lat="44.7115826" lon="9.3391885"><ele>827.0</ele><time>2026-04-19T13:04:29.729Z</time></trkpt><trkpt lat="44.7116209" lon="9.3396612"><ele>827.0</ele><time>2026-04-19T13:04:32.729Z</time></trkpt><trkpt lat="44.7116534" lon="9.3397536"><ele>827.0</ele><time>2026-04-19T13:04:33.729Z</time></trkpt><trkpt lat="44.7117336" lon="9.3398132"><ele>827.0</ele><time>2026-04-19T13:04:35.729Z</time></trkpt><trkpt lat="44.7118092" lon="9.3396663"><ele>827.0</ele><time>2026-04-19T13:04:37.728Z</time></trkpt><trkpt lat="44.7118139" lon="9.3395295"><ele>827.0</ele><time>2026-04-19T13:04:38.729Z</time></trkpt><trkpt lat="44.7118107" lon="9.3393823"><ele>827.0</ele><time>2026-04-19T13:04:39.729Z</time></trkpt><trkpt lat="44.7118273" lon="9.3392438"><ele>827.0</ele><time>2026-04-19T13:04:40.728Z</time></trkpt><trkpt lat="44.7118615" lon="9.3391235"><ele>827.0</ele><time>2026-04-19T13:04:41.729Z</time></trkpt><trkpt lat="44.7119157" lon="9.3390174"><ele>827.0</ele><time>2026-04-19T13:04:42.729Z</time></trkpt><trkpt lat="44.7119857" lon="9.3389279"><ele>827.0</ele><time>2026-04-19T13:04:43.729Z</time></trkpt><trkpt lat="44.7120693" lon="9.3388678"><ele>827.0</ele><time>2026-04-19T13:04:44.729Z</time></trkpt><trkpt lat="44.7121583" lon="9.3388238"><ele>827.0</ele><time>2026-04-19T13:04:45.728Z</time></trkpt><trkpt lat="44.7122579" lon="9.3387918"><ele>827.0</ele><time>2026-04-19T13:04:46.729Z</time></trkpt><trkpt lat="44.7123653" lon="9.3387681"><ele>827.0</ele><time>2026-04-19T13:04:47.729Z</time></trkpt><trkpt lat="44.7125665" lon="9.3387431"><ele>827.0</ele><time>2026-04-19T13:04:49.729Z</time></trkpt><trkpt lat="44.71266" lon="9.3387549"><ele>827.0</ele><time>2026-04-19T13:04:50.729Z</time></trkpt><trkpt lat="44.7127564" lon="9.3387952"><ele>827.0</ele><time>2026-04-19T13:04:51.729Z</time></trkpt><trkpt lat="44.7128313" lon="9.338861"><ele>827.0</ele><time>2026-04-19T13:04:52.729Z</time></trkpt><trkpt lat="44.7128926" lon="9.3389536"><ele>827.0</ele><time>2026-04-19T13:04:53.729Z</time></trkpt><trkpt lat="44.7129309" lon="9.33907"><ele>830.0</ele><time>2026-04-19T13:04:54.729Z</time></trkpt><trkpt lat="44.7129424" lon="9.3391928"><ele>833.0</ele><time>2026-04-19T13:04:55.729Z</time></trkpt><trkpt lat="44.7129242" lon="9.3393136"><ele>836.0</ele><time>2026-04-19T13:04:56.728Z</time></trkpt><trkpt lat="44.7128814" lon="9.3394239"><ele>839.0</ele><time>2026-04-19T13:04:57.728Z</time></trkpt><trkpt lat="44.7128193" lon="9.3395276"><ele>842.0</ele><time>2026-04-19T13:04:58.729Z</time></trkpt><trkpt lat="44.7127464" lon="9.3396438"><ele>842.0</ele><time>2026-04-19T13:04:59.729Z</time></trkpt><trkpt lat="44.7126787" lon="9.3397716"><ele>842.0</ele><time>2026-04-19T13:05:00.729Z</time></trkpt><trkpt lat="44.7126311" lon="9.3399024"><ele>842.0</ele><time>2026-04-19T13:05:01.729Z</time></trkpt><trkpt lat="44.7125921" lon="9.3400396"><ele>842.0</ele><time>2026-04-19T13:05:02.729Z</time></trkpt><trkpt lat="44.7125629" lon="9.3401612"><ele>842.0</ele><time>2026-04-19T13:05:03.728Z</time></trkpt><trkpt lat="44.7125352" lon="9.3402791"><ele>842.0000000000001</ele><time>2026-04-19T13:05:04.729Z</time></trkpt><trkpt lat="44.7125181" lon="9.3403916"><ele>842.0</ele><time>2026-04-19T13:05:05.729Z</time></trkpt><trkpt lat="44.7125047" lon="9.3405101"><ele>842.0</ele><time>2026-04-19T13:05:06.729Z</time></trkpt><trkpt lat="44.7124925" lon="9.3406371"><ele>842.0</ele><time>2026-04-19T13:05:07.728Z</time></trkpt><trkpt lat="44.7124875" lon="9.3407634"><ele>842.0000000000001</ele><time>2026-04-19T13:05:08.729Z</time></trkpt><trkpt lat="44.7124844" lon="9.3408824"><ele>842.0</ele><time>2026-04-19T13:05:09.729Z</time></trkpt><trkpt lat="44.7124936" lon="9.3410046"><ele>842.0</ele><time>2026-04-19T13:05:10.729Z</time></trkpt><trkpt lat="44.7125196" lon="9.3411319"><ele>842.0</ele><time>2026-04-19T13:05:11.729Z</time></trkpt><trkpt lat="44.7125685" lon="9.3412591"><ele>842.0</ele><time>2026-04-19T13:05:12.729Z</time></trkpt><trkpt lat="44.7126242" lon="9.3413876"><ele>842.0</ele><time>2026-04-19T13:05:13.729Z</time></trkpt><trkpt lat="44.7126836" lon="9.3414925"><ele>842.0</ele><time>2026-04-19T13:05:14.729Z</time></trkpt><trkpt lat="44.7127484" lon="9.3415633"><ele>842.5000000000001</ele><time>2026-04-19T13:05:15.729Z</time></trkpt><trkpt lat="44.7128219" lon="9.3416172"><ele>843.0</ele><time>2026-04-19T13:05:16.729Z</time></trkpt><trkpt lat="44.7128965" lon="9.3416644"><ele>843.5</ele><time>2026-04-19T13:05:17.729Z</time></trkpt><trkpt lat="44.7129685" lon="9.341687"><ele>844.0</ele><time>2026-04-19T13:05:18.728Z</time></trkpt><trkpt lat="44.7130486" lon="9.3416828"><ele>844.5000000000001</ele><time>2026-04-19T13:05:19.729Z</time></trkpt><trkpt lat="44.71314" lon="9.3416547"><ele>845.0</ele><time>2026-04-19T13:05:20.729Z</time></trkpt><trkpt lat="44.713236" lon="9.3416272"><ele>845.0</ele><time>2026-04-19T13:05:21.729Z</time></trkpt><trkpt lat="44.7133297" lon="9.3416144"><ele>845.0</ele><time>2026-04-19T13:05:22.729Z</time></trkpt><trkpt lat="44.713412" lon="9.3416366"><ele>845.0</ele><time>2026-04-19T13:05:23.729Z</time></trkpt><trkpt lat="44.7135411" lon="9.3417346"><ele>845.0</ele><time>2026-04-19T13:05:25.729Z</time></trkpt><trkpt lat="44.7136004" lon="9.3418003"><ele>845.0</ele><time>2026-04-19T13:05:26.729Z</time></trkpt><trkpt lat="44.7136527" lon="9.3418708"><ele>845.8</ele><time>2026-04-19T13:05:27.729Z</time></trkpt><trkpt lat="44.7137105" lon="9.3419519"><ele>846.6</ele><time>2026-04-19T13:05:28.729Z</time></trkpt><trkpt lat="44.7137644" lon="9.3420464"><ele>847.4000000000001</ele><time>2026-04-19T13:05:29.729Z</time></trkpt><trkpt lat="44.7138205" lon="9.3421567"><ele>848.2</ele><time>2026-04-19T13:05:30.728Z</time></trkpt><trkpt lat="44.7138769" lon="9.3422803"><ele>849.0</ele><time>2026-04-19T13:05:31.729Z</time></trkpt><trkpt lat="44.7139287" lon="9.3424145"><ele>849.75</ele><time>2026-04-19T13:05:32.728Z</time></trkpt><trkpt lat="44.7139863" lon="9.3425579"><ele>850.5</ele><time>2026-04-19T13:05:33.728Z</time></trkpt><trkpt lat="44.7140434" lon="9.3427148"><ele>851.25</ele><time>2026-04-19T13:05:34.729Z</time></trkpt><trkpt lat="44.7141017" lon="9.342877"><ele>852.0</ele><time>2026-04-19T13:05:35.729Z</time></trkpt><trkpt lat="44.714159" lon="9.3430506"><ele>852.8</ele><time>2026-04-19T13:05:36.729Z</time></trkpt><trkpt lat="44.7142035" lon="9.3432145"><ele>853.6</ele><time>2026-04-19T13:05:37.729Z</time></trkpt><trkpt lat="44.7142452" lon="9.3433659"><ele>854.3999999999999</ele><time>2026-04-19T13:05:38.728Z</time></trkpt><trkpt lat="44.7142963" lon="9.3434998"><ele>855.1999999999999</ele><time>2026-04-19T13:05:39.729Z</time></trkpt><trkpt lat="44.7143548" lon="9.3436045"><ele>856.0</ele><time>2026-04-19T13:05:40.729Z</time></trkpt><trkpt lat="44.7144258" lon="9.3437015"><ele>858.0</ele><time>2026-04-19T13:05:41.729Z</time></trkpt><trkpt lat="44.7145136" lon="9.3437778"><ele>860.0</ele><time>2026-04-19T13:05:42.728Z</time></trkpt><trkpt lat="44.7147905" lon="9.343828"><ele>862.0</ele><time>2026-04-19T13:05:45.729Z</time></trkpt><trkpt lat="44.7150153" lon="9.3437429"><ele>862.0</ele><time>2026-04-19T13:05:47.729Z</time></trkpt><trkpt lat="44.7151248" lon="9.3436713"><ele>862.0</ele><time>2026-04-19T13:05:48.728Z</time></trkpt><trkpt lat="44.7152439" lon="9.3435746"><ele>862.0</ele><time>2026-04-19T13:05:49.728Z</time></trkpt><trkpt lat="44.7153667" lon="9.3434602"><ele>862.0</ele><time>2026-04-19T13:05:50.729Z</time></trkpt><trkpt lat="44.7154859" lon="9.3433578"><ele>863.9999999999999</ele><time>2026-04-19T13:05:51.729Z</time></trkpt><trkpt lat="44.7155914" lon="9.3432787"><ele>866.0</ele><time>2026-04-19T13:05:52.729Z</time></trkpt><trkpt lat="44.715678" lon="9.3432336"><ele>868.0</ele><time>2026-04-19T13:05:53.729Z</time></trkpt><trkpt lat="44.7157559" lon="9.3432209"><ele>870.0</ele><time>2026-04-19T13:05:54.729Z</time></trkpt><trkpt lat="44.7158295" lon="9.3432304"><ele>871.9999999999999</ele><time>2026-04-19T13:05:55.729Z</time></trkpt><trkpt lat="44.7159008" lon="9.3432616"><ele>874.0</ele><time>2026-04-19T13:05:56.728Z</time></trkpt><trkpt lat="44.7159582" lon="9.3433017"><ele>874.0</ele><time>2026-04-19T13:05:57.729Z</time></trkpt><trkpt lat="44.7160309" lon="9.3433742"><ele>874.0000000000001</ele><time>2026-04-19T13:05:59.728Z</time></trkpt><trkpt lat="44.7159501" lon="9.3432897"><ele>874.0000000000001</ele><time>2026-04-19T13:06:22.729Z</time></trkpt><trkpt lat="44.7158294" lon="9.3432338"><ele>874.0</ele><time>2026-04-19T13:06:24.729Z</time></trkpt><trkpt lat="44.7157495" lon="9.3432239"><ele>874.0</ele><time>2026-04-19T13:06:25.729Z</time></trkpt><trkpt lat="44.7156777" lon="9.343235"><ele>873.9999999999999</ele><time>2026-04-19T13:06:26.729Z</time></trkpt><trkpt lat="44.7156032" lon="9.3432657"><ele>874.0</ele><time>2026-04-19T13:06:27.728Z</time></trkpt><trkpt lat="44.7155344" lon="9.3433057"><ele>874.0</ele><time>2026-04-19T13:06:28.729Z</time></trkpt><trkpt lat="44.7154665" lon="9.3433628"><ele>874.0</ele><time>2026-04-19T13:06:29.728Z</time></trkpt><trkpt lat="44.715395" lon="9.3434271"><ele>873.9999999999999</ele><time>2026-04-19T13:06:30.729Z</time></trkpt><trkpt lat="44.7153203" lon="9.3434944"><ele>874.0</ele><time>2026-04-19T13:06:31.729Z</time></trkpt><trkpt lat="44.715247" lon="9.3435526"><ele>871.9999999999999</ele><time>2026-04-19T13:06:32.729Z</time></trkpt><trkpt lat="44.7151782" lon="9.3436092"><ele>870.0</ele><time>2026-04-19T13:06:33.728Z</time></trkpt><trkpt lat="44.7151099" lon="9.3436639"><ele>868.0</ele><time>2026-04-19T13:06:34.728Z</time></trkpt><trkpt lat="44.7150371" lon="9.3437096"><ele>866.0</ele><time>2026-04-19T13:06:35.729Z</time></trkpt><trkpt lat="44.7149651" lon="9.3437448"><ele>863.9999999999999</ele><time>2026-04-19T13:06:36.729Z</time></trkpt><trkpt lat="44.7148946" lon="9.3437727"><ele>862.0</ele><time>2026-04-19T13:06:37.728Z</time></trkpt><trkpt lat="44.7148177" lon="9.343794"><ele>861.9999999999999</ele><time>2026-04-19T13:06:38.729Z</time></trkpt><trkpt lat="44.7147393" lon="9.3438013"><ele>862.0</ele><time>2026-04-19T13:06:39.729Z</time></trkpt><trkpt lat="44.7146592" lon="9.3437994"><ele>862.0</ele><time>2026-04-19T13:06:40.729Z</time></trkpt><trkpt lat="44.7145802" lon="9.3437881"><ele>862.0</ele><time>2026-04-19T13:06:41.728Z</time></trkpt><trkpt lat="44.7145035" lon="9.3437513"><ele>861.9999999999999</ele><time>2026-04-19T13:06:42.729Z</time></trkpt><trkpt lat="44.7144252" lon="9.3436892"><ele>862.0</ele><time>2026-04-19T13:06:43.729Z</time></trkpt><trkpt lat="44.7143555" lon="9.3436049"><ele>860.8</ele><time>2026-04-19T13:06:44.729Z</time></trkpt><trkpt lat="44.7142964" lon="9.3435059"><ele>859.6</ele><time>2026-04-19T13:06:45.729Z</time></trkpt><trkpt lat="44.7142493" lon="9.3433958"><ele>858.3999999999999</ele><time>2026-04-19T13:06:46.729Z</time></trkpt><trkpt lat="44.7142104" lon="9.3432659"><ele>857.1999999999999</ele><time>2026-04-19T13:06:47.729Z</time></trkpt><trkpt lat="44.7141756" lon="9.3431315"><ele>856.0</ele><time>2026-04-19T13:06:48.729Z</time></trkpt><trkpt lat="44.7141401" lon="9.3429979"><ele>855.1999999999999</ele><time>2026-04-19T13:06:49.729Z</time></trkpt><trkpt lat="44.7141002" lon="9.3428642"><ele>854.3999999999999</ele><time>2026-04-19T13:06:50.729Z</time></trkpt><trkpt lat="44.7140528" lon="9.3427367"><ele>853.6</ele><time>2026-04-19T13:06:51.728Z</time></trkpt><trkpt lat="44.7140045" lon="9.3426089"><ele>852.8</ele><time>2026-04-19T13:06:52.729Z</time></trkpt><trkpt lat="44.7139565" lon="9.342477"><ele>852.0</ele><time>2026-04-19T13:06:53.729Z</time></trkpt><trkpt lat="44.7138994" lon="9.3423296"><ele>851.25</ele><time>2026-04-19T13:06:54.729Z</time></trkpt><trkpt lat="44.7138328" lon="9.3421732"><ele>850.5</ele><time>2026-04-19T13:06:55.729Z</time></trkpt><trkpt lat="44.7137635" lon="9.3420307"><ele>849.75</ele><time>2026-04-19T13:06:56.729Z</time></trkpt><trkpt lat="44.7136856" lon="9.3419009"><ele>849.0</ele><time>2026-04-19T13:06:57.729Z</time></trkpt><trkpt lat="44.7136009" lon="9.3417927"><ele>848.2</ele><time>2026-04-19T13:06:58.729Z</time></trkpt><trkpt lat="44.7135156" lon="9.3417003"><ele>847.4000000000001</ele><time>2026-04-19T13:06:59.728Z</time></trkpt><trkpt lat="44.713426" lon="9.34163"><ele>846.6</ele><time>2026-04-19T13:07:00.729Z</time></trkpt><trkpt lat="44.7133311" lon="9.3415925"><ele>845.8</ele><time>2026-04-19T13:07:01.729Z</time></trkpt><trkpt lat="44.7132325" lon="9.3415839"><ele>845.0</ele><time>2026-04-19T13:07:02.729Z</time></trkpt><trkpt lat="44.7131279" lon="9.3416017"><ele>845.0</ele><time>2026-04-19T13:07:03.729Z</time></trkpt><trkpt lat="44.7130257" lon="9.34163"><ele>845.0</ele><time>2026-04-19T13:07:04.729Z</time></trkpt><trkpt lat="44.7129278" lon="9.3416478"><ele>845.0</ele><time>2026-04-19T13:07:05.728Z</time></trkpt><trkpt lat="44.7128399" lon="9.341629"><ele>845.0</ele><time>2026-04-19T13:07:06.729Z</time></trkpt><trkpt lat="44.712767" lon="9.3415738"><ele>845.0</ele><time>2026-04-19T13:07:07.728Z</time></trkpt><trkpt lat="44.7127022" lon="9.341498"><ele>844.8</ele><time>2026-04-19T13:07:08.729Z</time></trkpt><trkpt lat="44.7126375" lon="9.3414057"><ele>844.6</ele><time>2026-04-19T13:07:09.728Z</time></trkpt><trkpt lat="44.7125753" lon="9.3412837"><ele>844.4000000000001</ele><time>2026-04-19T13:07:10.729Z</time></trkpt><trkpt lat="44.7125251" lon="9.341146"><ele>844.2</ele><time>2026-04-19T13:07:11.729Z</time></trkpt><trkpt lat="44.7124936" lon="9.3409936"><ele>844.0</ele><time>2026-04-19T13:07:12.729Z</time></trkpt><trkpt lat="44.712483" lon="9.3408331"><ele>843.5</ele><time>2026-04-19T13:07:13.728Z</time></trkpt><trkpt lat="44.7124922" lon="9.3406682"><ele>843.0</ele><time>2026-04-19T13:07:14.729Z</time></trkpt><trkpt lat="44.7125116" lon="9.340496"><ele>842.5</ele><time>2026-04-19T13:07:15.729Z</time></trkpt><trkpt lat="44.7125311" lon="9.3403349"><ele>842.0</ele><time>2026-04-19T13:07:16.728Z</time></trkpt><trkpt lat="44.7125531" lon="9.3401919"><ele>842.0</ele><time>2026-04-19T13:07:17.729Z</time></trkpt><trkpt lat="44.7125868" lon="9.3400497"><ele>842.0</ele><time>2026-04-19T13:07:18.729Z</time></trkpt><trkpt lat="44.712628" lon="9.3399157"><ele>842.0</ele><time>2026-04-19T13:07:19.729Z</time></trkpt><trkpt lat="44.7126689" lon="9.3397937"><ele>842.0</ele><time>2026-04-19T13:07:20.729Z</time></trkpt><trkpt lat="44.7127125" lon="9.3396726"><ele>842.0</ele><time>2026-04-19T13:07:21.729Z</time></trkpt><trkpt lat="44.7127596" lon="9.3395655"><ele>842.0000000000001</ele><time>2026-04-19T13:07:22.729Z</time></trkpt><trkpt lat="44.7128135" lon="9.3394652"><ele>842.0</ele><time>2026-04-19T13:07:23.729Z</time></trkpt><trkpt lat="44.7128687" lon="9.3393759"><ele>842.0</ele><time>2026-04-19T13:07:24.728Z</time></trkpt><trkpt lat="44.7129069" lon="9.3392913"><ele>842.0</ele><time>2026-04-19T13:07:25.729Z</time></trkpt><trkpt lat="44.7129254" lon="9.3392015"><ele>842.0</ele><time>2026-04-19T13:07:26.729Z</time></trkpt><trkpt lat="44.71292" lon="9.3391078"><ele>842.0000000000001</ele><time>2026-04-19T13:07:27.729Z</time></trkpt><trkpt lat="44.7129007" lon="9.3390169"><ele>842.0</ele><time>2026-04-19T13:07:28.728Z</time></trkpt><trkpt lat="44.7128569" lon="9.3389274"><ele>839.8333333333334</ele><time>2026-04-19T13:07:29.729Z</time></trkpt><trkpt lat="44.7127992" lon="9.3388455"><ele>837.6666666666667</ele><time>2026-04-19T13:07:30.729Z</time></trkpt><trkpt lat="44.712728" lon="9.3387857"><ele>835.5</ele><time>2026-04-19T13:07:31.729Z</time></trkpt><trkpt lat="44.7126454" lon="9.3387556"><ele>833.3333333333333</ele><time>2026-04-19T13:07:32.728Z</time></trkpt><trkpt lat="44.7125608" lon="9.3387507"><ele>831.1666666666666</ele><time>2026-04-19T13:07:33.729Z</time></trkpt><trkpt lat="44.7124674" lon="9.338761"><ele>829.0</ele><time>2026-04-19T13:07:34.728Z</time></trkpt><trkpt lat="44.7123675" lon="9.3387764"><ele>828.6</ele><time>2026-04-19T13:07:35.729Z</time></trkpt><trkpt lat="44.7122674" lon="9.3387887"><ele>828.2</ele><time>2026-04-19T13:07:36.729Z</time></trkpt><trkpt lat="44.7121745" lon="9.3388092"><ele>827.8000000000001</ele><time>2026-04-19T13:07:37.729Z</time></trkpt><trkpt lat="44.7120884" lon="9.3388541"><ele>827.4000000000001</ele><time>2026-04-19T13:07:38.729Z</time></trkpt><trkpt lat="44.7120057" lon="9.3389151"><ele>827.0</ele><time>2026-04-19T13:07:39.729Z</time></trkpt><trkpt lat="44.7119354" lon="9.3389949"><ele>827.0000000000001</ele><time>2026-04-19T13:07:40.729Z</time></trkpt><trkpt lat="44.7118801" lon="9.3390872"><ele>827.0</ele><time>2026-04-19T13:07:41.729Z</time></trkpt><trkpt lat="44.7118388" lon="9.3391966"><ele>827.0</ele><time>2026-04-19T13:07:42.729Z</time></trkpt><trkpt lat="44.7118165" lon="9.3393124"><ele>827.0</ele><time>2026-04-19T13:07:43.729Z</time></trkpt><trkpt lat="44.7118028" lon="9.3394327"><ele>827.0000000000001</ele><time>2026-04-19T13:07:44.729Z</time></trkpt><trkpt lat="44.7117997" lon="9.3395565"><ele>827.0</ele><time>2026-04-19T13:07:45.729Z</time></trkpt><trkpt lat="44.7117933" lon="9.3396537"><ele>827.0</ele><time>2026-04-19T13:07:46.728Z</time></trkpt><trkpt lat="44.7117344" lon="9.3397776"><ele>827.0</ele><time>2026-04-19T13:07:48.729Z</time></trkpt><trkpt lat="44.7116571" lon="9.339742"><ele>827.0</ele><time>2026-04-19T13:07:50.728Z</time></trkpt><trkpt lat="44.711618" lon="9.3395747"><ele>827.0</ele><time>2026-04-19T13:07:52.729Z</time></trkpt><trkpt lat="44.7116117" lon="9.3394568"><ele>827.0</ele><time>2026-04-19T13:07:53.729Z</time></trkpt><trkpt lat="44.7116061" lon="9.3393194"><ele>827.0</ele><time>2026-04-19T13:07:54.729Z</time></trkpt><trkpt lat="44.7116013" lon="9.3391735"><ele>827.0</ele><time>2026-04-19T13:07:55.728Z</time></trkpt><trkpt lat="44.7115963" lon="9.3390237"><ele>827.0</ele><time>2026-04-19T13:07:56.728Z</time></trkpt><trkpt lat="44.711588" lon="9.3387416"><ele>827.0</ele><time>2026-04-19T13:07:58.729Z</time></trkpt><trkpt lat="44.7115939" lon="9.3386095"><ele>827.0000000000001</ele><time>2026-04-19T13:07:59.728Z</time></trkpt><trkpt lat="44.7116091" lon="9.3384971"><ele>827.0</ele><time>2026-04-19T13:08:00.729Z</time></trkpt><trkpt lat="44.7116446" lon="9.3384061"><ele>827.0</ele><time>2026-04-19T13:08:01.729Z</time></trkpt><trkpt lat="44.7116976" lon="9.3383349"><ele>827.0</ele><time>2026-04-19T13:08:02.728Z</time></trkpt><trkpt lat="44.711763" lon="9.3382645"><ele>827.0000000000001</ele><time>2026-04-19T13:08:03.729Z</time></trkpt><trkpt lat="44.7118524" lon="9.338197"><ele>827.0</ele><time>2026-04-19T13:08:04.729Z</time></trkpt><trkpt lat="44.7119502" lon="9.3381447"><ele>827.0</ele><time>2026-04-19T13:08:05.729Z</time></trkpt><trkpt lat="44.7120575" lon="9.3380855"><ele>827.0</ele><time>2026-04-19T13:08:06.729Z</time></trkpt><trkpt lat="44.7121616" lon="9.3380317"><ele>827.0</ele><time>2026-04-19T13:08:07.728Z</time></trkpt><trkpt lat="44.7122573" lon="9.3379774"><ele>827.0</ele><time>2026-04-19T13:08:08.728Z</time></trkpt><trkpt lat="44.7123311" lon="9.3379108"><ele>827.0</ele><time>2026-04-19T13:08:09.729Z</time></trkpt><trkpt lat="44.7123839" lon="9.3378418"><ele>825.3333333333334</ele><time>2026-04-19T13:08:10.729Z</time></trkpt><trkpt lat="44.712407" lon="9.3377068"><ele>823.6666666666667</ele><time>2026-04-19T13:08:12.728Z</time></trkpt><trkpt lat="44.7123762" lon="9.3376223"><ele>822.0</ele><time>2026-04-19T13:08:13.728Z</time></trkpt><trkpt lat="44.7123196" lon="9.3375293"><ele>820.3333333333333</ele><time>2026-04-19T13:08:14.729Z</time></trkpt><trkpt lat="44.7122457" lon="9.3374431"><ele>818.6666666666666</ele><time>2026-04-19T13:08:15.729Z</time></trkpt><trkpt lat="44.7121581" lon="9.3373916"><ele>817.0</ele><time>2026-04-19T13:08:16.728Z</time></trkpt><trkpt lat="44.7120533" lon="9.3373659"><ele>817.0</ele><time>2026-04-19T13:08:17.729Z</time></trkpt><trkpt lat="44.7119433" lon="9.3373588"><ele>817.0</ele><time>2026-04-19T13:08:18.728Z</time></trkpt><trkpt lat="44.7118222" lon="9.3373436"><ele>817.0</ele><time>2026-04-19T13:08:19.728Z</time></trkpt><trkpt lat="44.7117048" lon="9.3373235"><ele>817.0</ele><time>2026-04-19T13:08:20.729Z</time></trkpt><trkpt lat="44.7116012" lon="9.3372897"><ele>817.2</ele><time>2026-04-19T13:08:21.728Z</time></trkpt><trkpt lat="44.7115081" lon="9.3372373"><ele>817.4000000000001</ele><time>2026-04-19T13:08:22.729Z</time></trkpt><trkpt lat="44.7114148" lon="9.337182"><ele>817.5999999999999</ele><time>2026-04-19T13:08:23.729Z</time></trkpt><trkpt lat="44.7113369" lon="9.3371183"><ele>817.8</ele><time>2026-04-19T13:08:24.729Z</time></trkpt><trkpt lat="44.7112498" lon="9.3370374"><ele>818.0</ele><time>2026-04-19T13:08:25.729Z</time></trkpt><trkpt lat="44.7111776" lon="9.3369619"><ele>818.6666666666667</ele><time>2026-04-19T13:08:26.729Z</time></trkpt><trkpt lat="44.711117" lon="9.3369003"><ele>819.3333333333334</ele><time>2026-04-19T13:08:27.728Z</time></trkpt><trkpt lat="44.7110561" lon="9.3368456"><ele>820.0</ele><time>2026-04-19T13:08:28.728Z</time></trkpt><trkpt lat="44.7109955" lon="9.3368001"><ele>820.6666666666667</ele><time>2026-04-19T13:08:29.729Z</time></trkpt><trkpt lat="44.7109341" lon="9.3367587"><ele>821.3333333333334</ele><time>2026-04-19T13:08:30.729Z</time></trkpt><trkpt lat="44.7108737" lon="9.3367237"><ele>822.0</ele><time>2026-04-19T13:08:31.729Z</time></trkpt><trkpt lat="44.7107506" lon="9.3366771"><ele>822.0</ele><time>2026-04-19T13:08:33.729Z</time></trkpt><trkpt lat="44.7106753" lon="9.336671"><ele>822.0</ele><time>2026-04-19T13:08:34.729Z</time></trkpt><trkpt lat="44.7105842" lon="9.3366693"><ele>822.0</ele><time>2026-04-19T13:08:35.729Z</time></trkpt><trkpt lat="44.7104832" lon="9.3366772"><ele>822.0</ele><time>2026-04-19T13:08:36.728Z</time></trkpt><trkpt lat="44.7103856" lon="9.3366951"><ele>822.0</ele><time>2026-04-19T13:08:37.728Z</time></trkpt><trkpt lat="44.7102904" lon="9.3367232"><ele>820.2</ele><time>2026-04-19T13:08:38.728Z</time></trkpt><trkpt lat="44.7101926" lon="9.3367547"><ele>818.4000000000001</ele><time>2026-04-19T13:08:39.728Z</time></trkpt><trkpt lat="44.7100982" lon="9.3367971"><ele>816.5999999999999</ele><time>2026-04-19T13:08:40.728Z</time></trkpt><trkpt lat="44.7100162" lon="9.336852"><ele>814.8</ele><time>2026-04-19T13:08:41.729Z</time></trkpt><trkpt lat="44.709946" lon="9.3369269"><ele>813.0</ele><time>2026-04-19T13:08:42.729Z</time></trkpt><trkpt lat="44.7098859" lon="9.3370261"><ele>813.0</ele><time>2026-04-19T13:08:43.729Z</time></trkpt><trkpt lat="44.7098334" lon="9.3371476"><ele>813.0</ele><time>2026-04-19T13:08:44.729Z</time></trkpt><trkpt lat="44.7098002" lon="9.3372688"><ele>813.0</ele><time>2026-04-19T13:08:45.729Z</time></trkpt><trkpt lat="44.7097741" lon="9.337368"><ele>813.0</ele><time>2026-04-19T13:08:46.729Z</time></trkpt><trkpt lat="44.7096752" lon="9.3374408"><ele>813.0</ele><time>2026-04-19T13:08:48.729Z</time></trkpt><trkpt lat="44.7095967" lon="9.3374163"><ele>813.25</ele><time>2026-04-19T13:08:49.729Z</time></trkpt><trkpt lat="44.7094991" lon="9.337357"><ele>813.5</ele><time>2026-04-19T13:08:50.729Z</time></trkpt><trkpt lat="44.7093815" lon="9.337268"><ele>813.75</ele><time>2026-04-19T13:08:51.728Z</time></trkpt><trkpt lat="44.7092657" lon="9.3371853"><ele>814.0</ele><time>2026-04-19T13:08:52.729Z</time></trkpt><trkpt lat="44.709146" lon="9.3371282"><ele>811.5</ele><time>2026-04-19T13:08:53.729Z</time></trkpt><trkpt lat="44.7090263" lon="9.3370804"><ele>809.0</ele><time>2026-04-19T13:08:54.728Z</time></trkpt><trkpt lat="44.7089079" lon="9.3370266"><ele>806.5</ele><time>2026-04-19T13:08:55.728Z</time></trkpt><trkpt lat="44.7088004" lon="9.3369716"><ele>804.0</ele><time>2026-04-19T13:08:56.729Z</time></trkpt><trkpt lat="44.708691" lon="9.3369101"><ele>804.0</ele><time>2026-04-19T13:08:57.729Z</time></trkpt><trkpt lat="44.7085817" lon="9.3368479"><ele>804.0</ele><time>2026-04-19T13:08:58.729Z</time></trkpt><trkpt lat="44.7084632" lon="9.336801"><ele>804.0</ele><time>2026-04-19T13:08:59.728Z</time></trkpt><trkpt lat="44.7082237" lon="9.3367048"><ele>801.5</ele><time>2026-04-19T13:09:01.728Z</time></trkpt><trkpt lat="44.7081081" lon="9.3366535"><ele>799.0</ele><time>2026-04-19T13:09:02.729Z</time></trkpt><trkpt lat="44.7079856" lon="9.3366098"><ele>796.5</ele><time>2026-04-19T13:09:03.729Z</time></trkpt><trkpt lat="44.7078695" lon="9.3365866"><ele>794.0</ele><time>2026-04-19T13:09:04.729Z</time></trkpt><trkpt lat="44.7077536" lon="9.3365904"><ele>793.25</ele><time>2026-04-19T13:09:05.729Z</time></trkpt><trkpt lat="44.7076305" lon="9.3366181"><ele>792.5</ele><time>2026-04-19T13:09:06.729Z</time></trkpt><trkpt lat="44.707508" lon="9.3366508"><ele>791.75</ele><time>2026-04-19T13:09:07.729Z</time></trkpt><trkpt lat="44.7073976" lon="9.3366949"><ele>791.0</ele><time>2026-04-19T13:09:08.728Z</time></trkpt><trkpt lat="44.7073012" lon="9.3367493"><ele>791.0</ele><time>2026-04-19T13:09:09.729Z</time></trkpt><trkpt lat="44.7072126" lon="9.3368011"><ele>791.0</ele><time>2026-04-19T13:09:10.729Z</time></trkpt><trkpt lat="44.7071169" lon="9.3368276"><ele>791.0</ele><time>2026-04-19T13:09:11.729Z</time></trkpt><trkpt lat="44.707014" lon="9.3368327"><ele>791.0</ele><time>2026-04-19T13:09:12.728Z</time></trkpt><trkpt lat="44.706907" lon="9.3368405"><ele>791.0</ele><time>2026-04-19T13:09:13.729Z</time></trkpt><trkpt lat="44.7067984" lon="9.336854"><ele>788.0</ele><time>2026-04-19T13:09:14.729Z</time></trkpt><trkpt lat="44.7066878" lon="9.3368758"><ele>785.0</ele><time>2026-04-19T13:09:15.729Z</time></trkpt><trkpt lat="44.706581" lon="9.3368791"><ele>782.0</ele><time>2026-04-19T13:09:16.729Z</time></trkpt><trkpt lat="44.7063856" lon="9.3369047"><ele>779.0</ele><time>2026-04-19T13:09:18.729Z</time></trkpt><trkpt lat="44.7063019" lon="9.336892"><ele>779.0</ele><time>2026-04-19T13:09:19.728Z</time></trkpt><trkpt lat="44.7062226" lon="9.3368536"><ele>779.0</ele><time>2026-04-19T13:09:20.729Z</time></trkpt><trkpt lat="44.7061519" lon="9.3367965"><ele>779.0</ele><time>2026-04-19T13:09:21.729Z</time></trkpt><trkpt lat="44.7060893" lon="9.3367199"><ele>779.0</ele><time>2026-04-19T13:09:22.728Z</time></trkpt><trkpt lat="44.7060155" lon="9.3366145"><ele>779.0</ele><time>2026-04-19T13:09:23.729Z</time></trkpt><trkpt lat="44.7059536" lon="9.3365011"><ele>776.0</ele><time>2026-04-19T13:09:24.728Z</time></trkpt><trkpt lat="44.7059097" lon="9.3363719"><ele>773.0</ele><time>2026-04-19T13:09:25.729Z</time></trkpt><trkpt lat="44.7058739" lon="9.336246"><ele>770.0</ele><time>2026-04-19T13:09:26.729Z</time></trkpt><trkpt lat="44.7058286" lon="9.3361238"><ele>767.0</ele><time>2026-04-19T13:09:27.729Z</time></trkpt><trkpt lat="44.7057682" lon="9.3360185"><ele>764.0</ele><time>2026-04-19T13:09:28.729Z</time></trkpt><trkpt lat="44.7056978" lon="9.3359211"><ele>764.0</ele><time>2026-04-19T13:09:29.728Z</time></trkpt><trkpt lat="44.7056232" lon="9.3358284"><ele>764.0</ele><time>2026-04-19T13:09:30.729Z</time></trkpt><trkpt lat="44.7055466" lon="9.3357344"><ele>764.0</ele><time>2026-04-19T13:09:31.729Z</time></trkpt><trkpt lat="44.7054716" lon="9.3356676"><ele>764.0</ele><time>2026-04-19T13:09:32.728Z</time></trkpt><trkpt lat="44.7053962" lon="9.3356068"><ele>764.0</ele><time>2026-04-19T13:09:33.728Z</time></trkpt><trkpt lat="44.7053271" lon="9.3355478"><ele>767.0</ele><time>2026-04-19T13:09:34.729Z</time></trkpt><trkpt lat="44.7052473" lon="9.3354454"><ele>770.0</ele><time>2026-04-19T13:09:36.729Z</time></trkpt><trkpt lat="44.7052227" lon="9.3350881"><ele>773.0</ele><time>2026-04-19T13:09:40.728Z</time></trkpt><trkpt lat="44.7052172" lon="9.3349608"><ele>768.2</ele><time>2026-04-19T13:09:41.728Z</time></trkpt><trkpt lat="44.7052025" lon="9.3348421"><ele>763.4</ele><time>2026-04-19T13:09:42.729Z</time></trkpt><trkpt lat="44.7051752" lon="9.3347211"><ele>758.6</ele><time>2026-04-19T13:09:43.729Z</time></trkpt><trkpt lat="44.7051416" lon="9.3345926"><ele>753.8000000000001</ele><time>2026-04-19T13:09:44.729Z</time></trkpt><trkpt lat="44.705104" lon="9.3344646"><ele>749.0</ele><time>2026-04-19T13:09:45.729Z</time></trkpt><trkpt lat="44.7050579" lon="9.3343521"><ele>749.0</ele><time>2026-04-19T13:09:46.728Z</time></trkpt><trkpt lat="44.7050006" lon="9.3342586"><ele>749.0</ele><time>2026-04-19T13:09:47.728Z</time></trkpt><trkpt lat="44.7049334" lon="9.3341858"><ele>749.0</ele><time>2026-04-19T13:09:48.729Z</time></trkpt><trkpt lat="44.7048513" lon="9.3341435"><ele>749.0</ele><time>2026-04-19T13:09:49.729Z</time></trkpt><trkpt lat="44.704754" lon="9.334132"><ele>749.0</ele><time>2026-04-19T13:09:50.729Z</time></trkpt><trkpt lat="44.7046477" lon="9.334141"><ele>749.0</ele><time>2026-04-19T13:09:51.729Z</time></trkpt><trkpt lat="44.7045448" lon="9.3341454"><ele>749.0</ele><time>2026-04-19T13:09:52.729Z</time></trkpt><trkpt lat="44.704462" lon="9.3341433"><ele>749.0</ele><time>2026-04-19T13:09:53.729Z</time></trkpt><trkpt lat="44.7043895" lon="9.3341089"><ele>749.0</ele><time>2026-04-19T13:09:54.729Z</time></trkpt><trkpt lat="44.7043211" lon="9.3340448"><ele>749.0</ele><time>2026-04-19T13:09:55.728Z</time></trkpt><trkpt lat="44.7042606" lon="9.3339693"><ele>749.0</ele><time>2026-04-19T13:09:56.729Z</time></trkpt><trkpt lat="44.7042056" lon="9.3338846"><ele>744.4000000000001</ele><time>2026-04-19T13:09:57.729Z</time></trkpt><trkpt lat="44.7041531" lon="9.333786"><ele>739.8</ele><time>2026-04-19T13:09:58.729Z</time></trkpt><trkpt lat="44.7041063" lon="9.3336736"><ele>735.2</ele><time>2026-04-19T13:09:59.729Z</time></trkpt><trkpt lat="44.7040721" lon="9.3335694"><ele>730.5999999999999</ele><time>2026-04-19T13:10:00.728Z</time></trkpt><trkpt lat="44.7040548" lon="9.3334769"><ele>726.0</ele><time>2026-04-19T13:10:01.728Z</time></trkpt><trkpt lat="44.7041143" lon="9.3333216"><ele>726.0</ele><time>2026-04-19T13:10:03.729Z</time></trkpt><trkpt lat="44.7041852" lon="9.3332287"><ele>726.0</ele><time>2026-04-19T13:10:04.728Z</time></trkpt><trkpt lat="44.7042587" lon="9.3331262"><ele>726.0</ele><time>2026-04-19T13:10:05.729Z</time></trkpt><trkpt lat="44.7043278" lon="9.3330347"><ele>726.0</ele><time>2026-04-19T13:10:06.728Z</time></trkpt><trkpt lat="44.7043926" lon="9.3329619"><ele>726.0</ele><time>2026-04-19T13:10:07.729Z</time></trkpt><trkpt lat="44.7044458" lon="9.3328917"><ele>728.1666666666666</ele><time>2026-04-19T13:10:08.728Z</time></trkpt><trkpt lat="44.7044886" lon="9.3328028"><ele>730.3333333333334</ele><time>2026-04-19T13:10:09.729Z</time></trkpt><trkpt lat="44.7045251" lon="9.3326965"><ele>732.5</ele><time>2026-04-19T13:10:10.729Z</time></trkpt><trkpt lat="44.7045541" lon="9.3325783"><ele>734.6666666666667</ele><time>2026-04-19T13:10:11.729Z</time></trkpt><trkpt lat="44.7045804" lon="9.332459"><ele>736.8333333333334</ele><time>2026-04-19T13:10:12.728Z</time></trkpt><trkpt lat="44.7045977" lon="9.3323341"><ele>739.0</ele><time>2026-04-19T13:10:13.729Z</time></trkpt><trkpt lat="44.7046043" lon="9.3322077"><ele>739.0</ele><time>2026-04-19T13:10:14.729Z</time></trkpt><trkpt lat="44.7045924" lon="9.3320946"><ele>739.0</ele><time>2026-04-19T13:10:15.728Z</time></trkpt><trkpt lat="44.7045635" lon="9.3320022"><ele>739.0</ele><time>2026-04-19T13:10:16.729Z</time></trkpt><trkpt lat="44.7045144" lon="9.3319346"><ele>739.0</ele><time>2026-04-19T13:10:17.729Z</time></trkpt><trkpt lat="44.7044531" lon="9.3318951"><ele>739.0</ele><time>2026-04-19T13:10:18.729Z</time></trkpt><trkpt lat="44.7043794" lon="9.3318758"><ele>739.0</ele><time>2026-04-19T13:10:19.729Z</time></trkpt><trkpt lat="44.7042986" lon="9.3318616"><ele>739.0</ele><time>2026-04-19T13:10:20.729Z</time></trkpt><trkpt lat="44.7042177" lon="9.3318263"><ele>736.0</ele><time>2026-04-19T13:10:21.729Z</time></trkpt><trkpt lat="44.7041418" lon="9.3317788"><ele>733.0</ele><time>2026-04-19T13:10:22.729Z</time></trkpt><trkpt lat="44.7040756" lon="9.331733"><ele>730.0</ele><time>2026-04-19T13:10:23.729Z</time></trkpt><trkpt lat="44.7039964" lon="9.3316714"><ele>727.0</ele><time>2026-04-19T13:10:25.729Z</time></trkpt><trkpt lat="44.7039411" lon="9.3317193"><ele>724.0</ele><time>2026-04-19T13:11:06.729Z</time></trkpt><trkpt lat="44.7039886" lon="9.3318447"><ele>721.0</ele><time>2026-04-19T13:11:09.729Z</time></trkpt><trkpt lat="44.7040311" lon="9.3320009"><ele>721.0</ele><time>2026-04-19T13:11:11.728Z</time></trkpt><trkpt lat="44.7040361" lon="9.3320942"><ele>721.0</ele><time>2026-04-19T13:11:12.729Z</time></trkpt><trkpt lat="44.7040372" lon="9.3321854"><ele>721.0</ele><time>2026-04-19T13:11:13.729Z</time></trkpt><trkpt lat="44.7039713" lon="9.3323469"><ele>721.0</ele><time>2026-04-19T13:11:15.729Z</time></trkpt><trkpt lat="44.7038242" lon="9.3324935"><ele>721.0</ele><time>2026-04-19T13:11:17.729Z</time></trkpt><trkpt lat="44.7037312" lon="9.3325742"><ele>720.75</ele><time>2026-04-19T13:11:18.729Z</time></trkpt><trkpt lat="44.7036276" lon="9.3326526"><ele>720.5</ele><time>2026-04-19T13:11:19.728Z</time></trkpt><trkpt lat="44.7035103" lon="9.3327494"><ele>720.25</ele><time>2026-04-19T13:11:20.729Z</time></trkpt><trkpt lat="44.7033855" lon="9.3328456"><ele>720.0</ele><time>2026-04-19T13:11:21.729Z</time></trkpt><trkpt lat="44.7032701" lon="9.3329356"><ele>718.0</ele><time>2026-04-19T13:11:22.729Z</time></trkpt><trkpt lat="44.7031749" lon="9.3330016"><ele>716.0</ele><time>2026-04-19T13:11:23.729Z</time></trkpt><trkpt lat="44.7030979" lon="9.3330729"><ele>714.0</ele><time>2026-04-19T13:11:24.729Z</time></trkpt><trkpt lat="44.7030363" lon="9.3331622"><ele>712.0</ele><time>2026-04-19T13:11:25.728Z</time></trkpt><trkpt lat="44.7029884" lon="9.333258"><ele>710.0</ele><time>2026-04-19T13:11:26.729Z</time></trkpt><trkpt lat="44.7029829" lon="9.3333781"><ele>710.0</ele><time>2026-04-19T13:11:27.729Z</time></trkpt><trkpt lat="44.7030164" lon="9.333504"><ele>710.0</ele><time>2026-04-19T13:11:28.728Z</time></trkpt><trkpt lat="44.7030882" lon="9.3336233"><ele>710.0</ele><time>2026-04-19T13:11:29.728Z</time></trkpt><trkpt lat="44.7032052" lon="9.3337282"><ele>710.0</ele><time>2026-04-19T13:11:30.729Z</time></trkpt><trkpt lat="44.7034327" lon="9.3339473"><ele>707.75</ele><time>2026-04-19T13:11:32.729Z</time></trkpt><trkpt lat="44.7035099" lon="9.3340762"><ele>705.5</ele><time>2026-04-19T13:11:33.729Z</time></trkpt><trkpt lat="44.7035649" lon="9.3342217"><ele>703.25</ele><time>2026-04-19T13:11:34.729Z</time></trkpt><trkpt lat="44.7036114" lon="9.334379"><ele>701.0</ele><time>2026-04-19T13:11:35.728Z</time></trkpt><trkpt lat="44.7036402" lon="9.3345219"><ele>702.3333333333333</ele><time>2026-04-19T13:11:36.729Z</time></trkpt><trkpt lat="44.7036478" lon="9.3346588"><ele>703.6666666666666</ele><time>2026-04-19T13:11:37.729Z</time></trkpt><trkpt lat="44.7035511" lon="9.3349219"><ele>705.0</ele><time>2026-04-19T13:11:39.729Z</time></trkpt><trkpt lat="44.7033116" lon="9.3351087"><ele>705.0</ele><time>2026-04-19T13:11:41.729Z</time></trkpt><trkpt lat="44.7031821" lon="9.3351898"><ele>705.0</ele><time>2026-04-19T13:11:42.729Z</time></trkpt><trkpt lat="44.7030919" lon="9.3352785"><ele>705.0</ele><time>2026-04-19T13:11:43.729Z</time></trkpt><trkpt lat="44.7030352" lon="9.335382"><ele>705.0</ele><time>2026-04-19T13:11:44.728Z</time></trkpt><trkpt lat="44.7030067" lon="9.3355026"><ele>705.0</ele><time>2026-04-19T13:11:45.729Z</time></trkpt><trkpt lat="44.7030145" lon="9.3356508"><ele>707.6666666666666</ele><time>2026-04-19T13:11:46.729Z</time></trkpt><trkpt lat="44.7030417" lon="9.3358225"><ele>710.3333333333333</ele><time>2026-04-19T13:11:47.729Z</time></trkpt><trkpt lat="44.7030644" lon="9.3359962"><ele>713.0</ele><time>2026-04-19T13:11:48.729Z</time></trkpt><trkpt lat="44.7030656" lon="9.3363087"><ele>712.5</ele><time>2026-04-19T13:11:50.729Z</time></trkpt><trkpt lat="44.7030171" lon="9.3365728"><ele>712.0</ele><time>2026-04-19T13:11:52.728Z</time></trkpt><trkpt lat="44.7029415" lon="9.3367049"><ele>711.5</ele><time>2026-04-19T13:11:53.729Z</time></trkpt><trkpt lat="44.7028387" lon="9.3368217"><ele>711.0</ele><time>2026-04-19T13:11:54.728Z</time></trkpt><trkpt lat="44.7027408" lon="9.336931"><ele>709.0</ele><time>2026-04-19T13:11:55.728Z</time></trkpt><trkpt lat="44.7026606" lon="9.337031"><ele>707.0</ele><time>2026-04-19T13:11:56.728Z</time></trkpt><trkpt lat="44.7026098" lon="9.3371361"><ele>705.0</ele><time>2026-04-19T13:11:57.729Z</time></trkpt><trkpt lat="44.7025928" lon="9.3372508"><ele>703.0</ele><time>2026-04-19T13:11:58.729Z</time></trkpt><trkpt lat="44.7025995" lon="9.3373601"><ele>701.0</ele><time>2026-04-19T13:11:59.729Z</time></trkpt><trkpt lat="44.70264" lon="9.3374505"><ele>699.0</ele><time>2026-04-19T13:12:00.728Z</time></trkpt><trkpt lat="44.7029136" lon="9.3375278"><ele>699.0</ele><time>2026-04-19T13:12:03.729Z</time></trkpt><trkpt lat="44.7030511" lon="9.3374789"><ele>699.0</ele><time>2026-04-19T13:12:04.729Z</time></trkpt><trkpt lat="44.7031981" lon="9.3374293"><ele>699.0</ele><time>2026-04-19T13:12:05.729Z</time></trkpt><trkpt lat="44.7033312" lon="9.3374315"><ele>699.0</ele><time>2026-04-19T13:12:06.729Z</time></trkpt><trkpt lat="44.7034383" lon="9.3375056"><ele>699.0</ele><time>2026-04-19T13:12:07.729Z</time></trkpt><trkpt lat="44.703513" lon="9.3376626"><ele>699.0</ele><time>2026-04-19T13:12:08.729Z</time></trkpt><trkpt lat="44.7035699" lon="9.3378426"><ele>699.0</ele><time>2026-04-19T13:12:09.729Z</time></trkpt><trkpt lat="44.7036222" lon="9.3380236"><ele>699.0</ele><time>2026-04-19T13:12:10.728Z</time></trkpt><trkpt lat="44.7037429" lon="9.3383154"><ele>698.8000000000001</ele><time>2026-04-19T13:12:12.729Z</time></trkpt><trkpt lat="44.7038128" lon="9.338415"><ele>698.6</ele><time>2026-04-19T13:12:13.729Z</time></trkpt><trkpt lat="44.7039005" lon="9.3384982"><ele>698.4</ele><time>2026-04-19T13:12:14.729Z</time></trkpt><trkpt lat="44.7040041" lon="9.3385706"><ele>698.2</ele><time>2026-04-19T13:12:15.728Z</time></trkpt><trkpt lat="44.7041031" lon="9.3386378"><ele>698.0</ele><time>2026-04-19T13:12:16.728Z</time></trkpt><trkpt lat="44.7041839" lon="9.3387082"><ele>698.0</ele><time>2026-04-19T13:12:17.729Z</time></trkpt><trkpt lat="44.704241" lon="9.3388153"><ele>698.0</ele><time>2026-04-19T13:12:18.729Z</time></trkpt><trkpt lat="44.70426" lon="9.3389501"><ele>698.0</ele><time>2026-04-19T13:12:19.729Z</time></trkpt><trkpt lat="44.7042469" lon="9.3390925"><ele>698.0</ele><time>2026-04-19T13:12:20.729Z</time></trkpt><trkpt lat="44.7042024" lon="9.3392809"><ele>698.0</ele><time>2026-04-19T13:12:21.729Z</time></trkpt><trkpt lat="44.7041588" lon="9.3394993"><ele>696.3333333333333</ele><time>2026-04-19T13:12:22.728Z</time></trkpt><trkpt lat="44.7041308" lon="9.3397186"><ele>694.6666666666666</ele><time>2026-04-19T13:12:23.728Z</time></trkpt><trkpt lat="44.7041094" lon="9.3399253"><ele>693.0</ele><time>2026-04-19T13:12:24.729Z</time></trkpt><trkpt lat="44.7040724" lon="9.3403029"><ele>693.0</ele><time>2026-04-19T13:12:26.728Z</time></trkpt><trkpt lat="44.7040537" lon="9.34046"><ele>693.0</ele><time>2026-04-19T13:12:27.729Z</time></trkpt><trkpt lat="44.7040353" lon="9.3406099"><ele>693.0</ele><time>2026-04-19T13:12:28.729Z</time></trkpt><trkpt lat="44.7040107" lon="9.3407776"><ele>693.0</ele><time>2026-04-19T13:12:29.729Z</time></trkpt><trkpt lat="44.7039874" lon="9.3409469"><ele>693.0</ele><time>2026-04-19T13:12:30.729Z</time></trkpt><trkpt lat="44.7039974" lon="9.34126"><ele>693.0</ele><time>2026-04-19T13:12:32.729Z</time></trkpt><trkpt lat="44.7040359" lon="9.3414035"><ele>693.0</ele><time>2026-04-19T13:12:33.729Z</time></trkpt><trkpt lat="44.7040989" lon="9.3415346"><ele>693.0</ele><time>2026-04-19T13:12:34.729Z</time></trkpt><trkpt lat="44.7041913" lon="9.3416657"><ele>690.0</ele><time>2026-04-19T13:12:35.729Z</time></trkpt><trkpt lat="44.7043078" lon="9.3417972"><ele>687.0</ele><time>2026-04-19T13:12:36.729Z</time></trkpt><trkpt lat="44.704439" lon="9.3419257"><ele>684.0</ele><time>2026-04-19T13:12:37.729Z</time></trkpt><trkpt lat="44.7045764" lon="9.3420242"><ele>687.0</ele><time>2026-04-19T13:12:38.729Z</time></trkpt><trkpt lat="44.7046992" lon="9.3421159"><ele>690.0</ele><time>2026-04-19T13:12:39.729Z</time></trkpt><trkpt lat="44.7048661" lon="9.3423771"><ele>693.0</ele><time>2026-04-19T13:12:41.729Z</time></trkpt><trkpt lat="44.7049026" lon="9.3425468"><ele>693.0</ele><time>2026-04-19T13:12:42.728Z</time></trkpt><trkpt lat="44.7049272" lon="9.3427086"><ele>693.0</ele><time>2026-04-19T13:12:43.729Z</time></trkpt><trkpt lat="44.7049791" lon="9.3428502"><ele>693.0</ele><time>2026-04-19T13:12:44.729Z</time></trkpt><trkpt lat="44.7050636" lon="9.3429668"><ele>693.0</ele><time>2026-04-19T13:12:45.729Z</time></trkpt><trkpt lat="44.7052171" lon="9.3432008"><ele>691.25</ele><time>2026-04-19T13:12:47.729Z</time></trkpt><trkpt lat="44.7052479" lon="9.3433486"><ele>689.5</ele><time>2026-04-19T13:12:48.729Z</time></trkpt><trkpt lat="44.7052387" lon="9.3434987"><ele>687.75</ele><time>2026-04-19T13:12:49.729Z</time></trkpt><trkpt lat="44.7051738" lon="9.3436274"><ele>686.0</ele><time>2026-04-19T13:12:50.729Z</time></trkpt><trkpt lat="44.7050662" lon="9.3437179"><ele>686.0</ele><time>2026-04-19T13:12:51.729Z</time></trkpt><trkpt lat="44.7049355" lon="9.3437579"><ele>686.0</ele><time>2026-04-19T13:12:52.728Z</time></trkpt><trkpt lat="44.7048053" lon="9.3437508"><ele>686.0</ele><time>2026-04-19T13:12:53.728Z</time></trkpt><trkpt lat="44.7046941" lon="9.3437365"><ele>686.0</ele><time>2026-04-19T13:12:54.728Z</time></trkpt><trkpt lat="44.7045933" lon="9.3437459"><ele>686.0</ele><time>2026-04-19T13:12:55.729Z</time></trkpt><trkpt lat="44.704481" lon="9.3437748"><ele>686.0</ele><time>2026-04-19T13:12:56.728Z</time></trkpt><trkpt lat="44.7043595" lon="9.3438319"><ele>686.0</ele><time>2026-04-19T13:12:57.729Z</time></trkpt><trkpt lat="44.704228" lon="9.3439167"><ele>686.0</ele><time>2026-04-19T13:12:58.729Z</time></trkpt><trkpt lat="44.7040929" lon="9.3440144"><ele>685.3333333333333</ele><time>2026-04-19T13:12:59.729Z</time></trkpt><trkpt lat="44.7038278" lon="9.3441706"><ele>684.6666666666666</ele><time>2026-04-19T13:13:01.729Z</time></trkpt><trkpt lat="44.7037091" lon="9.3441947"><ele>684.0</ele><time>2026-04-19T13:13:02.729Z</time></trkpt><trkpt lat="44.7034905" lon="9.3441749"><ele>684.0</ele><time>2026-04-19T13:13:04.729Z</time></trkpt><trkpt lat="44.7034083" lon="9.3441891"><ele>684.0</ele><time>2026-04-19T13:13:05.729Z</time></trkpt><trkpt lat="44.7033294" lon="9.3442378"><ele>684.0</ele><time>2026-04-19T13:13:06.729Z</time></trkpt><trkpt lat="44.7032363" lon="9.3443042"><ele>684.0</ele><time>2026-04-19T13:13:07.729Z</time></trkpt><trkpt lat="44.7031365" lon="9.3443713"><ele>684.0</ele><time>2026-04-19T13:13:08.728Z</time></trkpt><trkpt lat="44.7030244" lon="9.3444136"><ele>684.0</ele><time>2026-04-19T13:13:09.729Z</time></trkpt><trkpt lat="44.7029108" lon="9.3444578"><ele>684.0</ele><time>2026-04-19T13:13:10.729Z</time></trkpt><trkpt lat="44.7028127" lon="9.3444946"><ele>684.0</ele><time>2026-04-19T13:13:11.729Z</time></trkpt><trkpt lat="44.7027374" lon="9.3445406"><ele>684.0</ele><time>2026-04-19T13:13:12.729Z</time></trkpt><trkpt lat="44.7026853" lon="9.3446117"><ele>684.0</ele><time>2026-04-19T13:13:13.729Z</time></trkpt><trkpt lat="44.7026516" lon="9.3446985"><ele>684.0</ele><time>2026-04-19T13:13:14.729Z</time></trkpt><trkpt lat="44.7026433" lon="9.344804"><ele>684.8000000000001</ele><time>2026-04-19T13:13:15.729Z</time></trkpt><trkpt lat="44.7026639" lon="9.3449221"><ele>685.6</ele><time>2026-04-19T13:13:16.729Z</time></trkpt><trkpt lat="44.7027212" lon="9.3450344"><ele>686.4</ele><time>2026-04-19T13:13:17.729Z</time></trkpt><trkpt lat="44.7028158" lon="9.345135"><ele>687.2</ele><time>2026-04-19T13:13:18.729Z</time></trkpt><trkpt lat="44.7029545" lon="9.3451955"><ele>688.0</ele><time>2026-04-19T13:13:19.729Z</time></trkpt><trkpt lat="44.7031157" lon="9.3452316"><ele>688.0</ele><time>2026-04-19T13:13:20.729Z</time></trkpt><trkpt lat="44.7032653" lon="9.3452669"><ele>688.0</ele><time>2026-04-19T13:13:21.728Z</time></trkpt><trkpt lat="44.7033851" lon="9.3453105"><ele>688.0</ele><time>2026-04-19T13:13:22.729Z</time></trkpt><trkpt lat="44.7034688" lon="9.3453906"><ele>688.0</ele><time>2026-04-19T13:13:23.728Z</time></trkpt><trkpt lat="44.7035169" lon="9.3455029"><ele>687.5999999999999</ele><time>2026-04-19T13:13:24.729Z</time></trkpt><trkpt lat="44.7035265" lon="9.3456267"><ele>687.1999999999999</ele><time>2026-04-19T13:13:25.729Z</time></trkpt><trkpt lat="44.7035087" lon="9.3457556"><ele>686.8</ele><time>2026-04-19T13:13:26.729Z</time></trkpt><trkpt lat="44.7034448" lon="9.3458567"><ele>686.4</ele><time>2026-04-19T13:13:27.729Z</time></trkpt><trkpt lat="44.7033288" lon="9.3459334"><ele>686.0</ele><time>2026-04-19T13:13:28.729Z</time></trkpt><trkpt lat="44.7031671" lon="9.3460068"><ele>686.0</ele><time>2026-04-19T13:13:29.729Z</time></trkpt><trkpt lat="44.7027972" lon="9.3462669"><ele>686.0</ele><time>2026-04-19T13:13:32.729Z</time></trkpt><trkpt lat="44.7027059" lon="9.3463857"><ele>684.0</ele><time>2026-04-19T13:13:33.729Z</time></trkpt><trkpt lat="44.7026071" lon="9.346528"><ele>682.0</ele><time>2026-04-19T13:13:34.729Z</time></trkpt><trkpt lat="44.7025051" lon="9.3466781"><ele>680.0</ele><time>2026-04-19T13:13:35.729Z</time></trkpt><trkpt lat="44.7024151" lon="9.3468333"><ele>678.0</ele><time>2026-04-19T13:13:36.729Z</time></trkpt><trkpt lat="44.7023378" lon="9.3469913"><ele>678.0</ele><time>2026-04-19T13:13:37.729Z</time></trkpt><trkpt lat="44.7022698" lon="9.3471609"><ele>678.0</ele><time>2026-04-19T13:13:38.728Z</time></trkpt><trkpt lat="44.7022142" lon="9.3473474"><ele>678.0</ele><time>2026-04-19T13:13:39.729Z</time></trkpt><trkpt lat="44.7021496" lon="9.3475566"><ele>678.0</ele><time>2026-04-19T13:13:40.729Z</time></trkpt><trkpt lat="44.702071" lon="9.3477852"><ele>675.0</ele><time>2026-04-19T13:13:41.729Z</time></trkpt><trkpt lat="44.701981" lon="9.3480304"><ele>672.0</ele><time>2026-04-19T13:13:42.729Z</time></trkpt><trkpt lat="44.701774" lon="9.3487117"><ele>674.0</ele><time>2026-04-19T13:13:45.729Z</time></trkpt><trkpt lat="44.7017162" lon="9.3489104"><ele>676.0</ele><time>2026-04-19T13:13:46.728Z</time></trkpt><trkpt lat="44.7016582" lon="9.3491008"><ele>678.0</ele><time>2026-04-19T13:13:47.729Z</time></trkpt><trkpt lat="44.7015964" lon="9.3492574"><ele>680.0</ele><time>2026-04-19T13:13:48.729Z</time></trkpt><trkpt lat="44.7015278" lon="9.3493958"><ele>680.0</ele><time>2026-04-19T13:13:49.729Z</time></trkpt><trkpt lat="44.7014434" lon="9.3494864"><ele>680.0</ele><time>2026-04-19T13:13:50.729Z</time></trkpt><trkpt lat="44.7013391" lon="9.3495522"><ele>680.0</ele><time>2026-04-19T13:13:51.729Z</time></trkpt><trkpt lat="44.7012261" lon="9.3495824"><ele>680.0</ele><time>2026-04-19T13:13:52.729Z</time></trkpt><trkpt lat="44.7011091" lon="9.34961"><ele>678.75</ele><time>2026-04-19T13:13:53.729Z</time></trkpt><trkpt lat="44.7009991" lon="9.3496439"><ele>677.5</ele><time>2026-04-19T13:13:54.729Z</time></trkpt><trkpt lat="44.7008824" lon="9.3496871"><ele>676.25</ele><time>2026-04-19T13:13:55.729Z</time></trkpt><trkpt lat="44.7007706" lon="9.3497302"><ele>675.0</ele><time>2026-04-19T13:13:56.729Z</time></trkpt><trkpt lat="44.7006659" lon="9.349789"><ele>675.0</ele><time>2026-04-19T13:13:57.729Z</time></trkpt><trkpt lat="44.7005227" lon="9.3499102"><ele>675.0</ele><time>2026-04-19T13:13:59.729Z</time></trkpt><trkpt lat="44.7004616" lon="9.3500189"><ele>675.0</ele><time>2026-04-19T13:14:01.729Z</time></trkpt><trkpt lat="44.7004825" lon="9.3501102"><ele>675.0</ele><time>2026-04-19T13:14:03.729Z</time></trkpt><trkpt lat="44.7005905" lon="9.3501653"><ele>675.0</ele><time>2026-04-19T13:14:05.728Z</time></trkpt><trkpt lat="44.7006651" lon="9.3501759"><ele>675.0</ele><time>2026-04-19T13:14:06.729Z</time></trkpt><trkpt lat="44.7007494" lon="9.3501794"><ele>675.0</ele><time>2026-04-19T13:14:07.729Z</time></trkpt><trkpt lat="44.7008383" lon="9.3501796"><ele>675.0</ele><time>2026-04-19T13:14:08.728Z</time></trkpt><trkpt lat="44.7009369" lon="9.3501797"><ele>675.0</ele><time>2026-04-19T13:14:09.729Z</time></trkpt><trkpt lat="44.701039" lon="9.350194"><ele>675.0</ele><time>2026-04-19T13:14:10.729Z</time></trkpt><trkpt lat="44.7011433" lon="9.3502305"><ele>676.5</ele><time>2026-04-19T13:14:11.729Z</time></trkpt><trkpt lat="44.7012387" lon="9.3502944"><ele>678.0</ele><time>2026-04-19T13:14:12.728Z</time></trkpt><trkpt lat="44.7013289" lon="9.3503853"><ele>679.5</ele><time>2026-04-19T13:14:13.729Z</time></trkpt><trkpt lat="44.7014148" lon="9.3504961"><ele>681.0</ele><time>2026-04-19T13:14:14.729Z</time></trkpt><trkpt lat="44.7014881" lon="9.3506297"><ele>681.0</ele><time>2026-04-19T13:14:15.729Z</time></trkpt><trkpt lat="44.7015403" lon="9.3507763"><ele>681.0</ele><time>2026-04-19T13:14:16.728Z</time></trkpt><trkpt lat="44.7015997" lon="9.3508994"><ele>681.0</ele><time>2026-04-19T13:14:17.729Z</time></trkpt><trkpt lat="44.7016823" lon="9.3509919"><ele>681.0</ele><time>2026-04-19T13:14:18.729Z</time></trkpt><trkpt lat="44.7017809" lon="9.3510649"><ele>681.0</ele><time>2026-04-19T13:14:19.729Z</time></trkpt><trkpt lat="44.7018872" lon="9.3511363"><ele>683.1999999999999</ele><time>2026-04-19T13:14:20.729Z</time></trkpt><trkpt lat="44.7019917" lon="9.3511933"><ele>685.4</ele><time>2026-04-19T13:14:21.729Z</time></trkpt><trkpt lat="44.7020968" lon="9.3512444"><ele>687.6</ele><time>2026-04-19T13:14:22.729Z</time></trkpt><trkpt lat="44.7021869" lon="9.3513144"><ele>689.8</ele><time>2026-04-19T13:14:23.729Z</time></trkpt><trkpt lat="44.7022711" lon="9.3514216"><ele>692.0</ele><time>2026-04-19T13:14:24.729Z</time></trkpt><trkpt lat="44.7023418" lon="9.3515659"><ele>692.0</ele><time>2026-04-19T13:14:25.729Z</time></trkpt><trkpt lat="44.7024019" lon="9.351735"><ele>692.0</ele><time>2026-04-19T13:14:26.729Z</time></trkpt><trkpt lat="44.7024616" lon="9.3519191"><ele>692.0</ele><time>2026-04-19T13:14:27.729Z</time></trkpt><trkpt lat="44.7025051" lon="9.3521005"><ele>692.0</ele><time>2026-04-19T13:14:28.729Z</time></trkpt><trkpt lat="44.7025469" lon="9.3522737"><ele>689.75</ele><time>2026-04-19T13:14:29.729Z</time></trkpt><trkpt lat="44.7025844" lon="9.3524331"><ele>687.5</ele><time>2026-04-19T13:14:30.729Z</time></trkpt><trkpt lat="44.7026376" lon="9.3525707"><ele>685.25</ele><time>2026-04-19T13:14:31.729Z</time></trkpt><trkpt lat="44.7027052" lon="9.3527"><ele>683.0</ele><time>2026-04-19T13:14:32.729Z</time></trkpt><trkpt lat="44.7027855" lon="9.3528382"><ele>691.5</ele><time>2026-04-19T13:14:33.729Z</time></trkpt><trkpt lat="44.7028489" lon="9.3529899"><ele>700.0</ele><time>2026-04-19T13:14:34.729Z</time></trkpt><trkpt lat="44.7028914" lon="9.3531596"><ele>708.5</ele><time>2026-04-19T13:14:35.729Z</time></trkpt><trkpt lat="44.702919" lon="9.3533333"><ele>717.0</ele><time>2026-04-19T13:14:36.728Z</time></trkpt><trkpt lat="44.7029151" lon="9.3534906"><ele>717.0</ele><time>2026-04-19T13:14:37.729Z</time></trkpt><trkpt lat="44.7028798" lon="9.3536215"><ele>717.0</ele><time>2026-04-19T13:14:38.729Z</time></trkpt><trkpt lat="44.7028258" lon="9.3537414"><ele>717.0</ele><time>2026-04-19T13:14:39.728Z</time></trkpt><trkpt lat="44.702774" lon="9.3538465"><ele>717.0</ele><time>2026-04-19T13:14:40.729Z</time></trkpt><trkpt lat="44.7027467" lon="9.3539326"><ele>717.0</ele><time>2026-04-19T13:14:41.729Z</time></trkpt><trkpt lat="44.702755" lon="9.3540294"><ele>717.0</ele><time>2026-04-19T13:14:42.729Z</time></trkpt><trkpt lat="44.7027904" lon="9.3541219"><ele>715.75</ele><time>2026-04-19T13:14:43.729Z</time></trkpt><trkpt lat="44.7028545" lon="9.35422"><ele>714.5</ele><time>2026-04-19T13:14:44.729Z</time></trkpt><trkpt lat="44.7029293" lon="9.3543196"><ele>713.25</ele><time>2026-04-19T13:14:45.729Z</time></trkpt><trkpt lat="44.7030218" lon="9.3544385"><ele>712.0</ele><time>2026-04-19T13:14:46.728Z</time></trkpt><trkpt lat="44.7031335" lon="9.3545729"><ele>709.25</ele><time>2026-04-19T13:14:47.728Z</time></trkpt><trkpt lat="44.7032503" lon="9.3547099"><ele>706.5</ele><time>2026-04-19T13:14:48.728Z</time></trkpt><trkpt lat="44.703365" lon="9.3548362"><ele>703.75</ele><time>2026-04-19T13:14:49.729Z</time></trkpt><trkpt lat="44.7034671" lon="9.3549502"><ele>701.0</ele><time>2026-04-19T13:14:50.729Z</time></trkpt><trkpt lat="44.7035404" lon="9.3551884"><ele>701.0</ele><time>2026-04-19T13:14:52.728Z</time></trkpt><trkpt lat="44.7035382" lon="9.3553243"><ele>701.0</ele><time>2026-04-19T13:14:53.729Z</time></trkpt><trkpt lat="44.7035549" lon="9.3554486"><ele>701.0</ele><time>2026-04-19T13:14:54.729Z</time></trkpt><trkpt lat="44.703597" lon="9.3555646"><ele>701.0</ele><time>2026-04-19T13:14:55.729Z</time></trkpt><trkpt lat="44.7036739" lon="9.3556646"><ele>701.0</ele><time>2026-04-19T13:14:56.729Z</time></trkpt><trkpt lat="44.7037676" lon="9.3557199"><ele>700.4</ele><time>2026-04-19T13:14:57.728Z</time></trkpt><trkpt lat="44.7038539" lon="9.3557459"><ele>699.8</ele><time>2026-04-19T13:14:58.729Z</time></trkpt><trkpt lat="44.7039301" lon="9.3557346"><ele>699.1999999999999</ele><time>2026-04-19T13:14:59.729Z</time></trkpt><trkpt lat="44.7040124" lon="9.3556746"><ele>698.5999999999999</ele><time>2026-04-19T13:15:00.728Z</time></trkpt><trkpt lat="44.7040928" lon="9.3555692"><ele>698.0</ele><time>2026-04-19T13:15:01.729Z</time></trkpt><trkpt lat="44.7041774" lon="9.3554608"><ele>703.0</ele><time>2026-04-19T13:15:02.729Z</time></trkpt><trkpt lat="44.7042758" lon="9.3553734"><ele>708.0</ele><time>2026-04-19T13:15:03.729Z</time></trkpt><trkpt lat="44.7043789" lon="9.3553075"><ele>713.0</ele><time>2026-04-19T13:15:04.728Z</time></trkpt><trkpt lat="44.7045013" lon="9.355243"><ele>718.0</ele><time>2026-04-19T13:15:05.729Z</time></trkpt><trkpt lat="44.7046281" lon="9.3551499"><ele>718.0</ele><time>2026-04-19T13:15:06.729Z</time></trkpt><trkpt lat="44.7047466" lon="9.3550391"><ele>718.0</ele><time>2026-04-19T13:15:07.728Z</time></trkpt><trkpt lat="44.704845" lon="9.3549326"><ele>718.0</ele><time>2026-04-19T13:15:08.729Z</time></trkpt><trkpt lat="44.7049526" lon="9.3548743"><ele>718.0</ele><time>2026-04-19T13:15:09.729Z</time></trkpt><trkpt lat="44.7050659" lon="9.3548479"><ele>718.0</ele><time>2026-04-19T13:15:10.729Z</time></trkpt><trkpt lat="44.7051798" lon="9.3548329"><ele>718.0</ele><time>2026-04-19T13:15:11.729Z</time></trkpt><trkpt lat="44.7052904" lon="9.3548035"><ele>718.0</ele><time>2026-04-19T13:15:12.729Z</time></trkpt><trkpt lat="44.7054003" lon="9.3547325"><ele>718.0</ele><time>2026-04-19T13:15:13.729Z</time></trkpt><trkpt lat="44.7054969" lon="9.3546359"><ele>724.5</ele><time>2026-04-19T13:15:14.728Z</time></trkpt><trkpt lat="44.7055897" lon="9.3545266"><ele>731.0</ele><time>2026-04-19T13:15:15.729Z</time></trkpt><trkpt lat="44.7056848" lon="9.3544406"><ele>737.5</ele><time>2026-04-19T13:15:16.729Z</time></trkpt><trkpt lat="44.7057893" lon="9.354381"><ele>744.0</ele><time>2026-04-19T13:15:17.729Z</time></trkpt><trkpt lat="44.7058877" lon="9.3543198"><ele>744.0</ele><time>2026-04-19T13:15:18.729Z</time></trkpt><trkpt lat="44.7059868" lon="9.3542802"><ele>744.0</ele><time>2026-04-19T13:15:19.728Z</time></trkpt><trkpt lat="44.706089" lon="9.3542713"><ele>744.0</ele><time>2026-04-19T13:15:20.729Z</time></trkpt><trkpt lat="44.7061984" lon="9.3543086"><ele>744.0</ele><time>2026-04-19T13:15:21.729Z</time></trkpt><trkpt lat="44.7063146" lon="9.3543828"><ele>744.0</ele><time>2026-04-19T13:15:22.728Z</time></trkpt><trkpt lat="44.7064215" lon="9.3544376"><ele>743.4000000000001</ele><time>2026-04-19T13:15:23.729Z</time></trkpt><trkpt lat="44.7065189" lon="9.3544738"><ele>742.8</ele><time>2026-04-19T13:15:24.729Z</time></trkpt><trkpt lat="44.7066159" lon="9.3544859"><ele>742.2</ele><time>2026-04-19T13:15:25.729Z</time></trkpt><trkpt lat="44.7066962" lon="9.3545059"><ele>741.5999999999999</ele><time>2026-04-19T13:15:26.729Z</time></trkpt><trkpt lat="44.70677" lon="9.3545567"><ele>741.0</ele><time>2026-04-19T13:15:27.729Z</time></trkpt><trkpt lat="44.7068445" lon="9.3546444"><ele>739.0</ele><time>2026-04-19T13:15:28.729Z</time></trkpt><trkpt lat="44.7068844" lon="9.3547813"><ele>737.0</ele><time>2026-04-19T13:15:29.729Z</time></trkpt><trkpt lat="44.7068945" lon="9.3549437"><ele>735.0</ele><time>2026-04-19T13:15:30.729Z</time></trkpt><trkpt lat="44.7069046" lon="9.3550924"><ele>733.0</ele><time>2026-04-19T13:15:31.729Z</time></trkpt><trkpt lat="44.7069376" lon="9.3552404"><ele>731.0</ele><time>2026-04-19T13:15:32.729Z</time></trkpt><trkpt lat="44.7069938" lon="9.3553714"><ele>737.5</ele><time>2026-04-19T13:15:33.728Z</time></trkpt><trkpt lat="44.7070626" lon="9.3555017"><ele>744.0</ele><time>2026-04-19T13:15:34.729Z</time></trkpt><trkpt lat="44.7071328" lon="9.3556347"><ele>750.5</ele><time>2026-04-19T13:15:35.729Z</time></trkpt><trkpt lat="44.7071973" lon="9.3557764"><ele>757.0</ele><time>2026-04-19T13:15:36.729Z</time></trkpt><trkpt lat="44.7072448" lon="9.3559289"><ele>757.0</ele><time>2026-04-19T13:15:37.729Z</time></trkpt><trkpt lat="44.7073201" lon="9.3562908"><ele>757.0</ele><time>2026-04-19T13:15:39.728Z</time></trkpt><trkpt lat="44.7073491" lon="9.3564935"><ele>757.0</ele><time>2026-04-19T13:15:40.728Z</time></trkpt><trkpt lat="44.7073829" lon="9.356685"><ele>756.0</ele><time>2026-04-19T13:15:41.729Z</time></trkpt><trkpt lat="44.7074226" lon="9.3568517"><ele>755.0</ele><time>2026-04-19T13:15:42.729Z</time></trkpt><trkpt lat="44.7074709" lon="9.357005"><ele>754.0</ele><time>2026-04-19T13:15:43.728Z</time></trkpt><trkpt lat="44.7075078" lon="9.3571702"><ele>753.0</ele><time>2026-04-19T13:15:44.729Z</time></trkpt><trkpt lat="44.7075148" lon="9.3573422"><ele>752.8</ele><time>2026-04-19T13:15:45.729Z</time></trkpt><trkpt lat="44.707499" lon="9.3574888"><ele>752.5999999999999</ele><time>2026-04-19T13:15:46.729Z</time></trkpt><trkpt lat="44.7074903" lon="9.3576305"><ele>752.4000000000001</ele><time>2026-04-19T13:15:47.729Z</time></trkpt><trkpt lat="44.7075087" lon="9.3577533"><ele>752.2</ele><time>2026-04-19T13:15:48.729Z</time></trkpt><trkpt lat="44.7075841" lon="9.3579159"><ele>752.0</ele><time>2026-04-19T13:15:50.729Z</time></trkpt><trkpt lat="44.707653" lon="9.3579597"><ele>752.0</ele><time>2026-04-19T13:15:51.729Z</time></trkpt><trkpt lat="44.7077431" lon="9.3579685"><ele>752.0</ele><time>2026-04-19T13:15:52.728Z</time></trkpt><trkpt lat="44.7078464" lon="9.3579688"><ele>752.0</ele><time>2026-04-19T13:15:53.729Z</time></trkpt><trkpt lat="44.7079603" lon="9.3579897"><ele>752.0</ele><time>2026-04-19T13:15:54.728Z</time></trkpt><trkpt lat="44.7080745" lon="9.3580303"><ele>752.0</ele><time>2026-04-19T13:15:55.728Z</time></trkpt><trkpt lat="44.7081919" lon="9.3581002"><ele>754.75</ele><time>2026-04-19T13:15:56.729Z</time></trkpt><trkpt lat="44.7082991" lon="9.3581907"><ele>757.5</ele><time>2026-04-19T13:15:57.728Z</time></trkpt><trkpt lat="44.7083987" lon="9.3582888"><ele>760.25</ele><time>2026-04-19T13:15:58.729Z</time></trkpt><trkpt lat="44.7084835" lon="9.3583667"><ele>763.0</ele><time>2026-04-19T13:15:59.729Z</time></trkpt><trkpt lat="44.7085824" lon="9.3584461"><ele>762.2</ele><time>2026-04-19T13:16:00.729Z</time></trkpt><trkpt lat="44.7086748" lon="9.3585104"><ele>761.4</ele><time>2026-04-19T13:16:01.729Z</time></trkpt><trkpt lat="44.7087534" lon="9.35858"><ele>760.6</ele><time>2026-04-19T13:16:02.728Z</time></trkpt><trkpt lat="44.7088131" lon="9.3586753"><ele>759.8000000000001</ele><time>2026-04-19T13:16:03.729Z</time></trkpt><trkpt lat="44.7088631" lon="9.3587817"><ele>759.0</ele><time>2026-04-19T13:16:04.728Z</time></trkpt><trkpt lat="44.708905" lon="9.3588726"><ele>759.0</ele><time>2026-04-19T13:16:05.728Z</time></trkpt><trkpt lat="44.7089661" lon="9.3589244"><ele>759.0</ele><time>2026-04-19T13:16:06.729Z</time></trkpt><trkpt lat="44.7090433" lon="9.3589593"><ele>759.0</ele><time>2026-04-19T13:16:07.729Z</time></trkpt><trkpt lat="44.7091359" lon="9.3589778"><ele>759.0</ele><time>2026-04-19T13:16:08.729Z</time></trkpt><trkpt lat="44.709244" lon="9.3589715"><ele>759.0</ele><time>2026-04-19T13:16:09.729Z</time></trkpt><trkpt lat="44.7093521" lon="9.3589399"><ele>760.6</ele><time>2026-04-19T13:16:10.729Z</time></trkpt><trkpt lat="44.7094506" lon="9.3588857"><ele>762.2</ele><time>2026-04-19T13:16:11.729Z</time></trkpt><trkpt lat="44.7095392" lon="9.3588043"><ele>763.8000000000001</ele><time>2026-04-19T13:16:12.729Z</time></trkpt><trkpt lat="44.7096273" lon="9.358707"><ele>765.4000000000001</ele><time>2026-04-19T13:16:13.728Z</time></trkpt><trkpt lat="44.7097203" lon="9.3586044"><ele>767.0</ele><time>2026-04-19T13:16:14.729Z</time></trkpt><trkpt lat="44.7098057" lon="9.3584999"><ele>767.0</ele><time>2026-04-19T13:16:15.728Z</time></trkpt><trkpt lat="44.7098711" lon="9.3583862"><ele>767.0</ele><time>2026-04-19T13:16:16.728Z</time></trkpt><trkpt lat="44.7099188" lon="9.3582621"><ele>767.0</ele><time>2026-04-19T13:16:17.728Z</time></trkpt><trkpt lat="44.7099565" lon="9.3581433"><ele>767.0</ele><time>2026-04-19T13:16:18.729Z</time></trkpt><trkpt lat="44.709998" lon="9.3580506"><ele>767.0</ele><time>2026-04-19T13:16:19.729Z</time></trkpt><trkpt lat="44.7100481" lon="9.3579927"><ele>767.0</ele><time>2026-04-19T13:16:20.729Z</time></trkpt><trkpt lat="44.7101147" lon="9.3579723"><ele>769.2</ele><time>2026-04-19T13:16:21.728Z</time></trkpt><trkpt lat="44.7101965" lon="9.3579894"><ele>771.4000000000001</ele><time>2026-04-19T13:16:22.728Z</time></trkpt><trkpt lat="44.7102883" lon="9.3579882"><ele>773.5999999999999</ele><time>2026-04-19T13:16:23.728Z</time></trkpt><trkpt lat="44.7103999" lon="9.357969"><ele>775.8</ele><time>2026-04-19T13:16:24.729Z</time></trkpt><trkpt lat="44.7105234" lon="9.3579293"><ele>778.0</ele><time>2026-04-19T13:16:25.728Z</time></trkpt><trkpt lat="44.7106556" lon="9.3578768"><ele>778.0</ele><time>2026-04-19T13:16:26.729Z</time></trkpt><trkpt lat="44.7107802" lon="9.3578253"><ele>778.0</ele><time>2026-04-19T13:16:27.729Z</time></trkpt><trkpt lat="44.7109074" lon="9.3577874"><ele>778.0</ele><time>2026-04-19T13:16:28.729Z</time></trkpt><trkpt lat="44.7110361" lon="9.3577343"><ele>778.0</ele><time>2026-04-19T13:16:29.729Z</time></trkpt><trkpt lat="44.7111537" lon="9.3576841"><ele>776.8</ele><time>2026-04-19T13:16:30.729Z</time></trkpt><trkpt lat="44.7112477" lon="9.357641"><ele>775.5999999999999</ele><time>2026-04-19T13:16:31.729Z</time></trkpt><trkpt lat="44.7113339" lon="9.3575831"><ele>774.4000000000001</ele><time>2026-04-19T13:16:32.729Z</time></trkpt><trkpt lat="44.7114009" lon="9.3574923"><ele>773.2</ele><time>2026-04-19T13:16:33.729Z</time></trkpt><trkpt lat="44.7114702" lon="9.3573557"><ele>772.0</ele><time>2026-04-19T13:16:34.729Z</time></trkpt><trkpt lat="44.7115465" lon="9.3571935"><ele>772.0</ele><time>2026-04-19T13:16:35.729Z</time></trkpt><trkpt lat="44.7116237" lon="9.3570308"><ele>772.0</ele><time>2026-04-19T13:16:36.729Z</time></trkpt><trkpt lat="44.7116934" lon="9.3568952"><ele>772.0</ele><time>2026-04-19T13:16:37.729Z</time></trkpt><trkpt lat="44.7117594" lon="9.3568002"><ele>772.0</ele><time>2026-04-19T13:16:38.729Z</time></trkpt><trkpt lat="44.7118245" lon="9.3567561"><ele>772.0</ele><time>2026-04-19T13:16:39.729Z</time></trkpt><trkpt lat="44.7119047" lon="9.3567494"><ele>769.8333333333333</ele><time>2026-04-19T13:16:40.729Z</time></trkpt><trkpt lat="44.7119974" lon="9.3567762"><ele>767.6666666666666</ele><time>2026-04-19T13:16:41.728Z</time></trkpt><trkpt lat="44.7120893" lon="9.3567998"><ele>765.5</ele><time>2026-04-19T13:16:42.729Z</time></trkpt><trkpt lat="44.712177" lon="9.3568148"><ele>763.3333333333333</ele><time>2026-04-19T13:16:43.729Z</time></trkpt><trkpt lat="44.7122457" lon="9.3567786"><ele>761.1666666666666</ele><time>2026-04-19T13:16:44.728Z</time></trkpt><trkpt lat="44.7122947" lon="9.356705"><ele>759.0</ele><time>2026-04-19T13:16:45.728Z</time></trkpt><trkpt lat="44.7123081" lon="9.3566004"><ele>759.0</ele><time>2026-04-19T13:16:46.728Z</time></trkpt><trkpt lat="44.7122872" lon="9.3564699"><ele>759.0</ele><time>2026-04-19T13:16:47.729Z</time></trkpt><trkpt lat="44.7122376" lon="9.3563166"><ele>759.0</ele><time>2026-04-19T13:16:48.729Z</time></trkpt><trkpt lat="44.7121644" lon="9.3561546"><ele>759.0</ele><time>2026-04-19T13:16:49.729Z</time></trkpt><trkpt lat="44.7120867" lon="9.3559718"><ele>759.25</ele><time>2026-04-19T13:16:50.728Z</time></trkpt><trkpt lat="44.712027" lon="9.3558067"><ele>759.5</ele><time>2026-04-19T13:16:51.729Z</time></trkpt><trkpt lat="44.7119769" lon="9.3556556"><ele>759.75</ele><time>2026-04-19T13:16:52.729Z</time></trkpt><trkpt lat="44.7119363" lon="9.355498"><ele>760.0</ele><time>2026-04-19T13:16:53.729Z</time></trkpt><trkpt lat="44.7119144" lon="9.3553324"><ele>762.4</ele><time>2026-04-19T13:16:54.729Z</time></trkpt><trkpt lat="44.7119049" lon="9.3551591"><ele>764.8</ele><time>2026-04-19T13:16:55.728Z</time></trkpt><trkpt lat="44.7119125" lon="9.3550018"><ele>767.2</ele><time>2026-04-19T13:16:56.729Z</time></trkpt><trkpt lat="44.711943" lon="9.354878"><ele>769.6</ele><time>2026-04-19T13:16:57.729Z</time></trkpt><trkpt lat="44.7119823" lon="9.3547788"><ele>772.0</ele><time>2026-04-19T13:16:58.729Z</time></trkpt><trkpt lat="44.7120312" lon="9.3547205"><ele>772.0</ele><time>2026-04-19T13:16:59.729Z</time></trkpt><trkpt lat="44.7120962" lon="9.3547029"><ele>772.0</ele><time>2026-04-19T13:17:00.729Z</time></trkpt><trkpt lat="44.7121683" lon="9.3547375"><ele>772.0</ele><time>2026-04-19T13:17:01.729Z</time></trkpt><trkpt lat="44.7122559" lon="9.3548196"><ele>772.0</ele><time>2026-04-19T13:17:02.728Z</time></trkpt><trkpt lat="44.7123432" lon="9.3549367"><ele>772.0</ele><time>2026-04-19T13:17:03.729Z</time></trkpt><trkpt lat="44.7124309" lon="9.3550871"><ele>772.0</ele><time>2026-04-19T13:17:04.729Z</time></trkpt><trkpt lat="44.712514" lon="9.3552363"><ele>772.0</ele><time>2026-04-19T13:17:05.729Z</time></trkpt><trkpt lat="44.712602" lon="9.3553753"><ele>772.0</ele><time>2026-04-19T13:17:06.728Z</time></trkpt><trkpt lat="44.712701" lon="9.3554774"><ele>772.0</ele><time>2026-04-19T13:17:07.729Z</time></trkpt><trkpt lat="44.7128113" lon="9.3555593"><ele>772.6666666666666</ele><time>2026-04-19T13:17:08.729Z</time></trkpt><trkpt lat="44.7129183" lon="9.3556235"><ele>773.3333333333333</ele><time>2026-04-19T13:17:09.729Z</time></trkpt><trkpt lat="44.7129991" lon="9.3556645"><ele>774.0</ele><time>2026-04-19T13:17:10.729Z</time></trkpt><trkpt lat="44.713063" lon="9.3556688"><ele>774.6666666666667</ele><time>2026-04-19T13:17:11.729Z</time></trkpt><trkpt lat="44.7131544" lon="9.355589"><ele>775.3333333333334</ele><time>2026-04-19T13:17:13.729Z</time></trkpt><trkpt lat="44.7131807" lon="9.3555024"><ele>776.0</ele><time>2026-04-19T13:17:15.729Z</time></trkpt><trkpt lat="44.7132067" lon="9.355306"><ele>776.0000000000001</ele><time>2026-04-19T13:18:27.729Z</time></trkpt><trkpt lat="44.7132394" lon="9.3551877"><ele>776.0</ele><time>2026-04-19T13:18:28.728Z</time></trkpt><trkpt lat="44.7132801" lon="9.355102"><ele>776.0</ele><time>2026-04-19T13:18:29.729Z</time></trkpt><trkpt lat="44.7133419" lon="9.3550584"><ele>776.0</ele><time>2026-04-19T13:18:30.729Z</time></trkpt><trkpt lat="44.7134125" lon="9.3550628"><ele>776.0000000000001</ele><time>2026-04-19T13:18:31.729Z</time></trkpt><trkpt lat="44.7134963" lon="9.3551216"><ele>776.0</ele><time>2026-04-19T13:18:32.729Z</time></trkpt><trkpt lat="44.7136019" lon="9.3551905"><ele>776.0</ele><time>2026-04-19T13:18:33.728Z</time></trkpt><trkpt lat="44.7137031" lon="9.3552285"><ele>776.0</ele><time>2026-04-19T13:18:34.728Z</time></trkpt><trkpt lat="44.7138012" lon="9.3552272"><ele>776.0</ele><time>2026-04-19T13:18:35.729Z</time></trkpt><trkpt lat="44.713906" lon="9.3552028"><ele>776.0</ele><time>2026-04-19T13:18:36.729Z</time></trkpt><trkpt lat="44.7140039" lon="9.3551977"><ele>776.0</ele><time>2026-04-19T13:18:37.729Z</time></trkpt><trkpt lat="44.7140825" lon="9.355228"><ele>776.0000000000001</ele><time>2026-04-19T13:18:38.729Z</time></trkpt><trkpt lat="44.7141522" lon="9.3552838"><ele>776.0</ele><time>2026-04-19T13:18:39.728Z</time></trkpt><trkpt lat="44.7142033" lon="9.3553722"><ele>776.0</ele><time>2026-04-19T13:18:40.728Z</time></trkpt><trkpt lat="44.7142552" lon="9.3554524"><ele>776.0</ele><time>2026-04-19T13:18:41.729Z</time></trkpt><trkpt lat="44.714312" lon="9.3554933"><ele>776.0000000000001</ele><time>2026-04-19T13:18:42.729Z</time></trkpt><trkpt lat="44.7144438" lon="9.3554622"><ele>776.0</ele><time>2026-04-19T13:18:44.729Z</time></trkpt><trkpt lat="44.7145416" lon="9.3553855"><ele>774.0</ele><time>2026-04-19T13:18:45.729Z</time></trkpt><trkpt lat="44.7146536" lon="9.3552978"><ele>772.0</ele><time>2026-04-19T13:18:46.729Z</time></trkpt><trkpt lat="44.7147957" lon="9.3552216"><ele>770.0</ele><time>2026-04-19T13:18:47.729Z</time></trkpt><trkpt lat="44.714958" lon="9.3551531"><ele>770.0</ele><time>2026-04-19T13:18:48.729Z</time></trkpt><trkpt lat="44.7151201" lon="9.3550949"><ele>770.0</ele><time>2026-04-19T13:18:49.729Z</time></trkpt><trkpt lat="44.7152644" lon="9.3550388"><ele>770.0</ele><time>2026-04-19T13:18:50.728Z</time></trkpt><trkpt lat="44.7154058" lon="9.3550008"><ele>769.5</ele><time>2026-04-19T13:18:51.729Z</time></trkpt><trkpt lat="44.7155379" lon="9.3549612"><ele>769.0</ele><time>2026-04-19T13:18:52.729Z</time></trkpt><trkpt lat="44.7156769" lon="9.3549425"><ele>768.5</ele><time>2026-04-19T13:18:53.729Z</time></trkpt><trkpt lat="44.7157954" lon="9.354951"><ele>768.0</ele><time>2026-04-19T13:18:54.729Z</time></trkpt><trkpt lat="44.7159137" lon="9.3549872"><ele>768.0</ele><time>2026-04-19T13:18:55.729Z</time></trkpt><trkpt lat="44.7160234" lon="9.3550297"><ele>768.0</ele><time>2026-04-19T13:18:56.728Z</time></trkpt><trkpt lat="44.7161418" lon="9.3550585"><ele>768.0</ele><time>2026-04-19T13:18:57.728Z</time></trkpt><trkpt lat="44.7162663" lon="9.3550691"><ele>768.0</ele><time>2026-04-19T13:18:58.728Z</time></trkpt><trkpt lat="44.7163842" lon="9.3550595"><ele>768.8333333333334</ele><time>2026-04-19T13:18:59.729Z</time></trkpt><trkpt lat="44.7164762" lon="9.3550498"><ele>769.6666666666667</ele><time>2026-04-19T13:19:00.728Z</time></trkpt><trkpt lat="44.7165453" lon="9.3549947"><ele>770.5</ele><time>2026-04-19T13:19:01.729Z</time></trkpt><trkpt lat="44.7165981" lon="9.3549172"><ele>771.3333333333334</ele><time>2026-04-19T13:19:02.729Z</time></trkpt><trkpt lat="44.7166325" lon="9.3548149"><ele>772.1666666666667</ele><time>2026-04-19T13:19:03.729Z</time></trkpt><trkpt lat="44.7166587" lon="9.354688"><ele>773.0</ele><time>2026-04-19T13:19:04.729Z</time></trkpt><trkpt lat="44.7166972" lon="9.3545328"><ele>773.0</ele><time>2026-04-19T13:19:05.729Z</time></trkpt><trkpt lat="44.7167587" lon="9.3543704"><ele>773.0</ele><time>2026-04-19T13:19:06.728Z</time></trkpt><trkpt lat="44.7168305" lon="9.3542044"><ele>773.0</ele><time>2026-04-19T13:19:07.729Z</time></trkpt><trkpt lat="44.7168988" lon="9.3540532"><ele>773.0</ele><time>2026-04-19T13:19:08.729Z</time></trkpt><trkpt lat="44.7169454" lon="9.3539203"><ele>764.2</ele><time>2026-04-19T13:19:09.728Z</time></trkpt><trkpt lat="44.7169754" lon="9.3538028"><ele>755.4</ele><time>2026-04-19T13:19:10.729Z</time></trkpt><trkpt lat="44.7169852" lon="9.3536772"><ele>746.6</ele><time>2026-04-19T13:19:11.729Z</time></trkpt><trkpt lat="44.7169746" lon="9.3535264"><ele>737.8000000000001</ele><time>2026-04-19T13:19:12.729Z</time></trkpt><trkpt lat="44.71696" lon="9.3533613"><ele>729.0</ele><time>2026-04-19T13:19:13.729Z</time></trkpt><trkpt lat="44.7169496" lon="9.3531702"><ele>729.75</ele><time>2026-04-19T13:19:14.729Z</time></trkpt><trkpt lat="44.7169466" lon="9.3529642"><ele>730.5</ele><time>2026-04-19T13:19:15.728Z</time></trkpt><trkpt lat="44.7169433" lon="9.3527572"><ele>731.25</ele><time>2026-04-19T13:19:16.729Z</time></trkpt><trkpt lat="44.7169506" lon="9.3525572"><ele>732.0</ele><time>2026-04-19T13:19:17.729Z</time></trkpt><trkpt lat="44.7169589" lon="9.3523548"><ele>736.3333333333334</ele><time>2026-04-19T13:19:18.729Z</time></trkpt><trkpt lat="44.7169804" lon="9.3521357"><ele>740.6666666666667</ele><time>2026-04-19T13:19:19.729Z</time></trkpt><trkpt lat="44.7170149" lon="9.3519178"><ele>745.0</ele><time>2026-04-19T13:19:20.729Z</time></trkpt><trkpt lat="44.7170524" lon="9.3517025"><ele>745.0</ele><time>2026-04-19T13:19:21.728Z</time></trkpt><trkpt lat="44.7170724" lon="9.3514974"><ele>745.0</ele><time>2026-04-19T13:19:22.729Z</time></trkpt><trkpt lat="44.7170706" lon="9.3512952"><ele>745.0</ele><time>2026-04-19T13:19:23.729Z</time></trkpt><trkpt lat="44.7170609" lon="9.3511078"><ele>745.0</ele><time>2026-04-19T13:19:24.729Z</time></trkpt><trkpt lat="44.7170514" lon="9.3509407"><ele>746.2</ele><time>2026-04-19T13:19:25.729Z</time></trkpt><trkpt lat="44.7170642" lon="9.350799"><ele>747.4</ele><time>2026-04-19T13:19:26.728Z</time></trkpt><trkpt lat="44.7171079" lon="9.3506838"><ele>748.5999999999999</ele><time>2026-04-19T13:19:27.728Z</time></trkpt><trkpt lat="44.7171708" lon="9.3505802"><ele>749.8</ele><time>2026-04-19T13:19:28.729Z</time></trkpt><trkpt lat="44.7172563" lon="9.3504801"><ele>751.0</ele><time>2026-04-19T13:19:29.729Z</time></trkpt><trkpt lat="44.7173556" lon="9.350376"><ele>754.0</ele><time>2026-04-19T13:19:30.729Z</time></trkpt><trkpt lat="44.7174461" lon="9.3502647"><ele>757.0</ele><time>2026-04-19T13:19:31.729Z</time></trkpt><trkpt lat="44.7175189" lon="9.3501267"><ele>760.0</ele><time>2026-04-19T13:19:32.729Z</time></trkpt><trkpt lat="44.7175721" lon="9.3499512"><ele>763.0</ele><time>2026-04-19T13:19:33.729Z</time></trkpt><trkpt lat="44.7176161" lon="9.3497857"><ele>763.8</ele><time>2026-04-19T13:19:34.728Z</time></trkpt><trkpt lat="44.7176528" lon="9.349634"><ele>764.5999999999999</ele><time>2026-04-19T13:19:35.729Z</time></trkpt><trkpt lat="44.7176935" lon="9.3495201"><ele>765.4000000000001</ele><time>2026-04-19T13:19:36.728Z</time></trkpt><trkpt lat="44.717744" lon="9.3494527"><ele>766.2</ele><time>2026-04-19T13:19:37.728Z</time></trkpt><trkpt lat="44.7178855" lon="9.3494147"><ele>767.0</ele><time>2026-04-19T13:19:39.729Z</time></trkpt><trkpt lat="44.7179935" lon="9.3494459"><ele>767.0</ele><time>2026-04-19T13:19:40.728Z</time></trkpt><trkpt lat="44.7181215" lon="9.3495009"><ele>767.0</ele><time>2026-04-19T13:19:41.729Z</time></trkpt><trkpt lat="44.7182518" lon="9.3495473"><ele>767.0</ele><time>2026-04-19T13:19:42.729Z</time></trkpt><trkpt lat="44.7183664" lon="9.3495745"><ele>767.0</ele><time>2026-04-19T13:19:43.729Z</time></trkpt><trkpt lat="44.7184624" lon="9.3495466"><ele>767.0</ele><time>2026-04-19T13:19:44.728Z</time></trkpt><trkpt lat="44.7185582" lon="9.3494783"><ele>767.0</ele><time>2026-04-19T13:19:45.729Z</time></trkpt><trkpt lat="44.7186596" lon="9.3493681"><ele>767.0</ele><time>2026-04-19T13:19:46.729Z</time></trkpt><trkpt lat="44.7187582" lon="9.349219"><ele>767.0</ele><time>2026-04-19T13:19:47.729Z</time></trkpt><trkpt lat="44.7188468" lon="9.3490575"><ele>765.8</ele><time>2026-04-19T13:19:48.729Z</time></trkpt><trkpt lat="44.7189239" lon="9.3489239"><ele>764.6</ele><time>2026-04-19T13:19:49.729Z</time></trkpt><trkpt lat="44.7189924" lon="9.3488301"><ele>763.4</ele><time>2026-04-19T13:19:50.729Z</time></trkpt><trkpt lat="44.7190717" lon="9.348796"><ele>762.1999999999999</ele><time>2026-04-19T13:19:51.729Z</time></trkpt><trkpt lat="44.7191453" lon="9.3487992"><ele>761.0</ele><time>2026-04-19T13:19:52.729Z</time></trkpt><trkpt lat="44.7192377" lon="9.3488692"><ele>761.0</ele><time>2026-04-19T13:19:53.729Z</time></trkpt><trkpt lat="44.719348" lon="9.3489874"><ele>761.0</ele><time>2026-04-19T13:19:54.729Z</time></trkpt><trkpt lat="44.7194867" lon="9.3491463"><ele>761.0</ele><time>2026-04-19T13:19:55.729Z</time></trkpt><trkpt lat="44.7196074" lon="9.3492942"><ele>761.75</ele><time>2026-04-19T13:19:56.729Z</time></trkpt><trkpt lat="44.7197241" lon="9.3494088"><ele>762.5</ele><time>2026-04-19T13:19:57.729Z</time></trkpt><trkpt lat="44.7198414" lon="9.3494771"><ele>763.25</ele><time>2026-04-19T13:19:58.729Z</time></trkpt><trkpt lat="44.7199468" lon="9.3495133"><ele>764.0</ele><time>2026-04-19T13:19:59.729Z</time></trkpt><trkpt lat="44.7200694" lon="9.3495349"><ele>764.0</ele><time>2026-04-19T13:20:00.729Z</time></trkpt><trkpt lat="44.7201822" lon="9.3495419"><ele>764.0</ele><time>2026-04-19T13:20:01.729Z</time></trkpt><trkpt lat="44.7202993" lon="9.3495388"><ele>764.0</ele><time>2026-04-19T13:20:02.728Z</time></trkpt><trkpt lat="44.7204158" lon="9.3495258"><ele>764.0</ele><time>2026-04-19T13:20:03.729Z</time></trkpt><trkpt lat="44.7205248" lon="9.3495274"><ele>763.8000000000001</ele><time>2026-04-19T13:20:04.729Z</time></trkpt><trkpt lat="44.7206262" lon="9.3495579"><ele>763.6</ele><time>2026-04-19T13:20:05.728Z</time></trkpt><trkpt lat="44.7207218" lon="9.3496119"><ele>763.4</ele><time>2026-04-19T13:20:06.728Z</time></trkpt><trkpt lat="44.7208141" lon="9.349708"><ele>763.2</ele><time>2026-04-19T13:20:07.728Z</time></trkpt><trkpt lat="44.720893" lon="9.3498208"><ele>763.0</ele><time>2026-04-19T13:20:08.728Z</time></trkpt><trkpt lat="44.7209827" lon="9.3499121"><ele>761.25</ele><time>2026-04-19T13:20:09.729Z</time></trkpt><trkpt lat="44.7210975" lon="9.3499718"><ele>759.5</ele><time>2026-04-19T13:20:10.729Z</time></trkpt><trkpt lat="44.7212296" lon="9.3500164"><ele>757.75</ele><time>2026-04-19T13:20:11.729Z</time></trkpt><trkpt lat="44.7213447" lon="9.3500656"><ele>756.0</ele><time>2026-04-19T13:20:12.729Z</time></trkpt><trkpt lat="44.7214308" lon="9.3501275"><ele>756.0</ele><time>2026-04-19T13:20:13.728Z</time></trkpt><trkpt lat="44.7214863" lon="9.3502045"><ele>756.0</ele><time>2026-04-19T13:20:14.729Z</time></trkpt><trkpt lat="44.7215204" lon="9.3503069"><ele>756.0</ele><time>2026-04-19T13:20:15.729Z</time></trkpt><trkpt lat="44.7215331" lon="9.3504419"><ele>756.0</ele><time>2026-04-19T13:20:16.729Z</time></trkpt><trkpt lat="44.7215256" lon="9.3506085"><ele>756.0</ele><time>2026-04-19T13:20:17.728Z</time></trkpt><trkpt lat="44.7215254" lon="9.3507852"><ele>754.25</ele><time>2026-04-19T13:20:18.729Z</time></trkpt><trkpt lat="44.721537" lon="9.3509771"><ele>752.5</ele><time>2026-04-19T13:20:19.729Z</time></trkpt><trkpt lat="44.7215559" lon="9.3511719"><ele>750.75</ele><time>2026-04-19T13:20:20.729Z</time></trkpt><trkpt lat="44.721581" lon="9.3513553"><ele>749.0</ele><time>2026-04-19T13:20:21.729Z</time></trkpt><trkpt lat="44.721616" lon="9.3515258"><ele>747.8000000000001</ele><time>2026-04-19T13:20:22.729Z</time></trkpt><trkpt lat="44.7216366" lon="9.3516788"><ele>746.6</ele><time>2026-04-19T13:20:23.729Z</time></trkpt><trkpt lat="44.7216541" lon="9.3517908"><ele>745.4</ele><time>2026-04-19T13:20:24.729Z</time></trkpt><trkpt lat="44.7216879" lon="9.3518848"><ele>744.2</ele><time>2026-04-19T13:20:25.728Z</time></trkpt><trkpt lat="44.7217695" lon="9.352019"><ele>743.0</ele><time>2026-04-19T13:20:27.729Z</time></trkpt><trkpt lat="44.7218301" lon="9.352056"><ele>744.0</ele><time>2026-04-19T13:20:28.729Z</time></trkpt><trkpt lat="44.7219178" lon="9.3520839"><ele>745.0</ele><time>2026-04-19T13:20:29.729Z</time></trkpt><trkpt lat="44.7220277" lon="9.3521104"><ele>746.0</ele><time>2026-04-19T13:20:30.729Z</time></trkpt><trkpt lat="44.7221347" lon="9.3521437"><ele>747.0</ele><time>2026-04-19T13:20:31.729Z</time></trkpt><trkpt lat="44.7222365" lon="9.3521961"><ele>748.0</ele><time>2026-04-19T13:20:32.729Z</time></trkpt><trkpt lat="44.7223372" lon="9.3522357"><ele>746.5999999999999</ele><time>2026-04-19T13:20:33.729Z</time></trkpt><trkpt lat="44.7224317" lon="9.3522812"><ele>745.1999999999999</ele><time>2026-04-19T13:20:34.728Z</time></trkpt><trkpt lat="44.7225193" lon="9.3523124"><ele>743.8</ele><time>2026-04-19T13:20:35.729Z</time></trkpt><trkpt lat="44.7226044" lon="9.3523477"><ele>742.4</ele><time>2026-04-19T13:20:36.729Z</time></trkpt><trkpt lat="44.7226871" lon="9.3524028"><ele>741.0</ele><time>2026-04-19T13:20:37.729Z</time></trkpt><trkpt lat="44.7227702" lon="9.3524839"><ele>741.0</ele><time>2026-04-19T13:20:38.728Z</time></trkpt><trkpt lat="44.7228379" lon="9.3525823"><ele>741.0</ele><time>2026-04-19T13:20:39.729Z</time></trkpt><trkpt lat="44.7229099" lon="9.3526592"><ele>741.0</ele><time>2026-04-19T13:20:40.729Z</time></trkpt><trkpt lat="44.7229902" lon="9.3526989"><ele>741.0</ele><time>2026-04-19T13:20:41.729Z</time></trkpt><trkpt lat="44.7230848" lon="9.352721"><ele>741.0</ele><time>2026-04-19T13:20:42.729Z</time></trkpt><trkpt lat="44.7231828" lon="9.3527538"><ele>741.0</ele><time>2026-04-19T13:20:43.729Z</time></trkpt><trkpt lat="44.7232735" lon="9.3528082"><ele>741.0</ele><time>2026-04-19T13:20:44.729Z</time></trkpt><trkpt lat="44.7233554" lon="9.3528846"><ele>741.0</ele><time>2026-04-19T13:20:45.728Z</time></trkpt><trkpt lat="44.7234336" lon="9.3529554"><ele>741.0</ele><time>2026-04-19T13:20:46.729Z</time></trkpt><trkpt lat="44.7235107" lon="9.3530254"><ele>741.0</ele><time>2026-04-19T13:20:47.729Z</time></trkpt><trkpt lat="44.723576" lon="9.353078"><ele>739.0</ele><time>2026-04-19T13:20:48.729Z</time></trkpt><trkpt lat="44.7236235" lon="9.3531483"><ele>737.0</ele><time>2026-04-19T13:20:49.729Z</time></trkpt><trkpt lat="44.7236449" lon="9.3533284"><ele>735.0</ele><time>2026-04-19T13:20:51.729Z</time></trkpt><trkpt lat="44.7236233" lon="9.3534595"><ele>733.0</ele><time>2026-04-19T13:20:52.729Z</time></trkpt><trkpt lat="44.723588" lon="9.3536077"><ele>731.0</ele><time>2026-04-19T13:20:53.729Z</time></trkpt><trkpt lat="44.7235523" lon="9.3537625"><ele>729.0</ele><time>2026-04-19T13:20:54.729Z</time></trkpt><trkpt lat="44.7235068" lon="9.3538961"><ele>727.0</ele><time>2026-04-19T13:20:55.728Z</time></trkpt><trkpt lat="44.7234638" lon="9.3540099"><ele>725.0</ele><time>2026-04-19T13:20:56.728Z</time></trkpt><trkpt lat="44.723434" lon="9.3540933"><ele>723.0</ele><time>2026-04-19T13:20:57.729Z</time></trkpt><trkpt lat="44.7234318" lon="9.3542509"><ele>721.0</ele><time>2026-04-19T13:20:59.729Z</time></trkpt><trkpt lat="44.7235031" lon="9.3543819"><ele>721.75</ele><time>2026-04-19T13:21:01.729Z</time></trkpt><trkpt lat="44.7235748" lon="9.3544533"><ele>722.5</ele><time>2026-04-19T13:21:02.729Z</time></trkpt><trkpt lat="44.7236735" lon="9.3545391"><ele>723.25</ele><time>2026-04-19T13:21:03.729Z</time></trkpt><trkpt lat="44.7237861" lon="9.354641"><ele>724.0</ele><time>2026-04-19T13:21:04.729Z</time></trkpt><trkpt lat="44.7239112" lon="9.3547505"><ele>724.0</ele><time>2026-04-19T13:21:05.729Z</time></trkpt><trkpt lat="44.7240285" lon="9.3548521"><ele>724.0</ele><time>2026-04-19T13:21:06.729Z</time></trkpt><trkpt lat="44.7241267" lon="9.354929"><ele>724.0</ele><time>2026-04-19T13:21:07.729Z</time></trkpt><trkpt lat="44.7242199" lon="9.3549984"><ele>724.0</ele><time>2026-04-19T13:21:08.729Z</time></trkpt><trkpt lat="44.7243043" lon="9.3550623"><ele>724.0</ele><time>2026-04-19T13:21:09.729Z</time></trkpt><trkpt lat="44.7243705" lon="9.3551141"><ele>724.0</ele><time>2026-04-19T13:21:10.729Z</time></trkpt><trkpt lat="44.7244542" lon="9.3552425"><ele>724.0</ele><time>2026-04-19T13:21:12.729Z</time></trkpt><trkpt lat="44.7244758" lon="9.3553434"><ele>724.0</ele><time>2026-04-19T13:21:13.729Z</time></trkpt><trkpt lat="44.7244762" lon="9.3554694"><ele>724.0</ele><time>2026-04-19T13:21:14.729Z</time></trkpt><trkpt lat="44.7244745" lon="9.3555906"><ele>727.4000000000001</ele><time>2026-04-19T13:21:15.729Z</time></trkpt><trkpt lat="44.7244979" lon="9.3557074"><ele>730.8</ele><time>2026-04-19T13:21:16.729Z</time></trkpt><trkpt lat="44.724546" lon="9.3558243"><ele>734.2</ele><time>2026-04-19T13:21:17.729Z</time></trkpt><trkpt lat="44.7246204" lon="9.3559447"><ele>737.5999999999999</ele><time>2026-04-19T13:21:18.729Z</time></trkpt><trkpt lat="44.7247095" lon="9.3560848"><ele>741.0</ele><time>2026-04-19T13:21:19.729Z</time></trkpt><trkpt lat="44.7247997" lon="9.3562261"><ele>741.0</ele><time>2026-04-19T13:21:20.729Z</time></trkpt><trkpt lat="44.7248847" lon="9.3563532"><ele>741.0</ele><time>2026-04-19T13:21:21.729Z</time></trkpt><trkpt lat="44.7249528" lon="9.3564664"><ele>741.0</ele><time>2026-04-19T13:21:22.729Z</time></trkpt><trkpt lat="44.7250204" lon="9.3565792"><ele>741.0</ele><time>2026-04-19T13:21:23.729Z</time></trkpt><trkpt lat="44.7250897" lon="9.356685"><ele>741.0</ele><time>2026-04-19T13:21:24.729Z</time></trkpt><trkpt lat="44.7251548" lon="9.3567764"><ele>741.5999999999999</ele><time>2026-04-19T13:21:25.729Z</time></trkpt><trkpt lat="44.7252195" lon="9.3568333"><ele>742.2</ele><time>2026-04-19T13:21:26.729Z</time></trkpt><trkpt lat="44.7252939" lon="9.356867"><ele>742.8</ele><time>2026-04-19T13:21:27.729Z</time></trkpt><trkpt lat="44.7253864" lon="9.3568913"><ele>743.4000000000001</ele><time>2026-04-19T13:21:28.728Z</time></trkpt><trkpt lat="44.7254921" lon="9.356928"><ele>744.0</ele><time>2026-04-19T13:21:29.728Z</time></trkpt><trkpt lat="44.7256208" lon="9.3569819"><ele>744.0</ele><time>2026-04-19T13:21:30.729Z</time></trkpt><trkpt lat="44.7257582" lon="9.3570409"><ele>744.0</ele><time>2026-04-19T13:21:31.729Z</time></trkpt><trkpt lat="44.7259031" lon="9.3571164"><ele>744.0</ele><time>2026-04-19T13:21:32.729Z</time></trkpt><trkpt lat="44.726048" lon="9.357199"><ele>745.0</ele><time>2026-04-19T13:21:33.729Z</time></trkpt><trkpt lat="44.7261792" lon="9.3572767"><ele>746.0</ele><time>2026-04-19T13:21:34.729Z</time></trkpt><trkpt lat="44.7262905" lon="9.35735"><ele>747.0</ele><time>2026-04-19T13:21:35.729Z</time></trkpt><trkpt lat="44.7263793" lon="9.3574182"><ele>748.0</ele><time>2026-04-19T13:21:36.729Z</time></trkpt><trkpt lat="44.726449" lon="9.357486"><ele>748.0</ele><time>2026-04-19T13:21:37.729Z</time></trkpt><trkpt lat="44.7264963" lon="9.3575608"><ele>748.0</ele><time>2026-04-19T13:21:38.729Z</time></trkpt><trkpt lat="44.7265261" lon="9.3576438"><ele>748.0</ele><time>2026-04-19T13:21:39.728Z</time></trkpt><trkpt lat="44.7265309" lon="9.3577356"><ele>748.0</ele><time>2026-04-19T13:21:40.728Z</time></trkpt><trkpt lat="44.7264984" lon="9.3578257"><ele>748.0</ele><time>2026-04-19T13:21:41.729Z</time></trkpt><trkpt lat="44.7264447" lon="9.3579358"><ele>748.0</ele><time>2026-04-19T13:21:42.729Z</time></trkpt><trkpt lat="44.7264006" lon="9.358074"><ele>747.8</ele><time>2026-04-19T13:21:43.728Z</time></trkpt><trkpt lat="44.7263669" lon="9.3582219"><ele>747.5999999999999</ele><time>2026-04-19T13:21:44.728Z</time></trkpt><trkpt lat="44.7263299" lon="9.3583551"><ele>747.4000000000001</ele><time>2026-04-19T13:21:45.729Z</time></trkpt><trkpt lat="44.7262918" lon="9.3584673"><ele>747.2</ele><time>2026-04-19T13:21:46.729Z</time></trkpt><trkpt lat="44.726256" lon="9.3585711"><ele>747.0</ele><time>2026-04-19T13:21:47.729Z</time></trkpt><trkpt lat="44.7262364" lon="9.3586745"><ele>747.0</ele><time>2026-04-19T13:21:48.729Z</time></trkpt><trkpt lat="44.7262409" lon="9.3587888"><ele>747.0</ele><time>2026-04-19T13:21:49.729Z</time></trkpt><trkpt lat="44.7262567" lon="9.3589169"><ele>747.0</ele><time>2026-04-19T13:21:50.729Z</time></trkpt><trkpt lat="44.7262929" lon="9.3590373"><ele>747.0</ele><time>2026-04-19T13:21:51.729Z</time></trkpt><trkpt lat="44.7263368" lon="9.3591335"><ele>747.0</ele><time>2026-04-19T13:21:52.728Z</time></trkpt><trkpt lat="44.7263996" lon="9.3592294"><ele>747.0</ele><time>2026-04-19T13:21:53.729Z</time></trkpt><trkpt lat="44.7264856" lon="9.3593294"><ele>747.5</ele><time>2026-04-19T13:21:54.729Z</time></trkpt><trkpt lat="44.7265825" lon="9.3594413"><ele>748.0</ele><time>2026-04-19T13:21:55.729Z</time></trkpt><trkpt lat="44.726683" lon="9.3595335"><ele>748.5</ele><time>2026-04-19T13:21:56.729Z</time></trkpt><trkpt lat="44.7267895" lon="9.3596259"><ele>749.0</ele><time>2026-04-19T13:21:57.729Z</time></trkpt><trkpt lat="44.7268928" lon="9.3597429"><ele>752.0</ele><time>2026-04-19T13:21:58.729Z</time></trkpt><trkpt lat="44.7269893" lon="9.3598794"><ele>755.0</ele><time>2026-04-19T13:21:59.729Z</time></trkpt><trkpt lat="44.7270835" lon="9.3600368"><ele>758.0</ele><time>2026-04-19T13:22:00.729Z</time></trkpt><trkpt lat="44.7271641" lon="9.3601908"><ele>761.0</ele><time>2026-04-19T13:22:01.729Z</time></trkpt><trkpt lat="44.7272336" lon="9.3603406"><ele>761.0</ele><time>2026-04-19T13:22:02.729Z</time></trkpt><trkpt lat="44.727323" lon="9.3604981"><ele>761.0</ele><time>2026-04-19T13:22:03.729Z</time></trkpt><trkpt lat="44.7274172" lon="9.3606508"><ele>761.0</ele><time>2026-04-19T13:22:04.728Z</time></trkpt><trkpt lat="44.7275192" lon="9.3607998"><ele>761.0</ele><time>2026-04-19T13:22:05.729Z</time></trkpt><trkpt lat="44.7276063" lon="9.3609361"><ele>760.0</ele><time>2026-04-19T13:22:06.729Z</time></trkpt><trkpt lat="44.7276808" lon="9.3610961"><ele>759.0</ele><time>2026-04-19T13:22:07.729Z</time></trkpt><trkpt lat="44.7277461" lon="9.3612826"><ele>758.0</ele><time>2026-04-19T13:22:08.729Z</time></trkpt><trkpt lat="44.7277946" lon="9.3614837"><ele>757.0</ele><time>2026-04-19T13:22:09.729Z</time></trkpt><trkpt lat="44.7278365" lon="9.361679"><ele>757.0</ele><time>2026-04-19T13:22:10.729Z</time></trkpt><trkpt lat="44.7278629" lon="9.3618725"><ele>757.0</ele><time>2026-04-19T13:22:11.729Z</time></trkpt><trkpt lat="44.7279132" lon="9.3620455"><ele>757.0</ele><time>2026-04-19T13:22:12.729Z</time></trkpt><trkpt lat="44.7279559" lon="9.3622257"><ele>757.0</ele><time>2026-04-19T13:22:13.729Z</time></trkpt><trkpt lat="44.7279994" lon="9.3624097"><ele>756.5</ele><time>2026-04-19T13:22:14.729Z</time></trkpt><trkpt lat="44.7280431" lon="9.3625896"><ele>756.0</ele><time>2026-04-19T13:22:15.729Z</time></trkpt><trkpt lat="44.7280616" lon="9.362744"><ele>755.5</ele><time>2026-04-19T13:22:16.729Z</time></trkpt><trkpt lat="44.7280482" lon="9.3628835"><ele>755.0</ele><time>2026-04-19T13:22:17.729Z</time></trkpt><trkpt lat="44.728016" lon="9.3630285"><ele>756.0</ele><time>2026-04-19T13:22:18.729Z</time></trkpt><trkpt lat="44.7279854" lon="9.3631997"><ele>757.0</ele><time>2026-04-19T13:22:19.729Z</time></trkpt><trkpt lat="44.7279629" lon="9.3633824"><ele>758.0</ele><time>2026-04-19T13:22:20.729Z</time></trkpt><trkpt lat="44.7279349" lon="9.3635778"><ele>759.0</ele><time>2026-04-19T13:22:21.728Z</time></trkpt><trkpt lat="44.7278998" lon="9.3637487"><ele>758.4000000000001</ele><time>2026-04-19T13:22:22.728Z</time></trkpt><trkpt lat="44.7278642" lon="9.3639019"><ele>757.8</ele><time>2026-04-19T13:22:23.728Z</time></trkpt><trkpt lat="44.7278386" lon="9.3640186"><ele>757.2</ele><time>2026-04-19T13:22:24.729Z</time></trkpt><trkpt lat="44.7278215" lon="9.36411"><ele>756.5999999999999</ele><time>2026-04-19T13:22:25.729Z</time></trkpt><trkpt lat="44.7278464" lon="9.364221"><ele>756.0</ele><time>2026-04-19T13:22:27.729Z</time></trkpt><trkpt lat="44.7279451" lon="9.3643026"><ele>756.0</ele><time>2026-04-19T13:22:29.729Z</time></trkpt><trkpt lat="44.728027" lon="9.3643334"><ele>756.0</ele><time>2026-04-19T13:22:30.729Z</time></trkpt><trkpt lat="44.7281254" lon="9.3643585"><ele>756.0</ele><time>2026-04-19T13:22:31.729Z</time></trkpt><trkpt lat="44.728239" lon="9.3643883"><ele>756.0</ele><time>2026-04-19T13:22:32.729Z</time></trkpt><trkpt lat="44.7283469" lon="9.3644174"><ele>756.0</ele><time>2026-04-19T13:22:33.728Z</time></trkpt><trkpt lat="44.7284358" lon="9.3644532"><ele>756.0</ele><time>2026-04-19T13:22:34.729Z</time></trkpt><trkpt lat="44.7285094" lon="9.3645029"><ele>756.0</ele><time>2026-04-19T13:22:35.729Z</time></trkpt><trkpt lat="44.7285693" lon="9.3645982"><ele>756.0</ele><time>2026-04-19T13:22:36.728Z</time></trkpt><trkpt lat="44.7286192" lon="9.364709"><ele>756.0</ele><time>2026-04-19T13:22:37.728Z</time></trkpt><trkpt lat="44.7286642" lon="9.3648307"><ele>756.0</ele><time>2026-04-19T13:22:38.729Z</time></trkpt><trkpt lat="44.7286999" lon="9.3649504"><ele>756.0</ele><time>2026-04-19T13:22:39.729Z</time></trkpt><trkpt lat="44.7287156" lon="9.3650844"><ele>756.0</ele><time>2026-04-19T13:22:40.729Z</time></trkpt><trkpt lat="44.7287155" lon="9.3652295"><ele>756.0</ele><time>2026-04-19T13:22:41.729Z</time></trkpt><trkpt lat="44.7287092" lon="9.3653849"><ele>756.0</ele><time>2026-04-19T13:22:42.729Z</time></trkpt><trkpt lat="44.7287079" lon="9.3655347"><ele>756.0</ele><time>2026-04-19T13:22:43.728Z</time></trkpt><trkpt lat="44.7287178" lon="9.3656759"><ele>756.0</ele><time>2026-04-19T13:22:44.729Z</time></trkpt><trkpt lat="44.7287328" lon="9.3658154"><ele>756.0</ele><time>2026-04-19T13:22:45.728Z</time></trkpt><trkpt lat="44.7287542" lon="9.3659464"><ele>756.0</ele><time>2026-04-19T13:22:46.728Z</time></trkpt><trkpt lat="44.7287813" lon="9.3660715"><ele>756.0</ele><time>2026-04-19T13:22:47.729Z</time></trkpt><trkpt lat="44.7287964" lon="9.3662127"><ele>756.0</ele><time>2026-04-19T13:22:48.729Z</time></trkpt><trkpt lat="44.7288002" lon="9.3663606"><ele>754.0</ele><time>2026-04-19T13:22:49.729Z</time></trkpt><trkpt lat="44.7288068" lon="9.3665026"><ele>752.0</ele><time>2026-04-19T13:22:50.729Z</time></trkpt><trkpt lat="44.7288228" lon="9.3666365"><ele>750.0</ele><time>2026-04-19T13:22:51.729Z</time></trkpt><trkpt lat="44.7288488" lon="9.3667651"><ele>748.0</ele><time>2026-04-19T13:22:52.729Z</time></trkpt><trkpt lat="44.7288941" lon="9.3668833"><ele>746.0</ele><time>2026-04-19T13:22:53.729Z</time></trkpt><trkpt lat="44.7289492" lon="9.3669827"><ele>746.0</ele><time>2026-04-19T13:22:54.729Z</time></trkpt><trkpt lat="44.7290132" lon="9.3670646"><ele>746.0</ele><time>2026-04-19T13:22:55.729Z</time></trkpt><trkpt lat="44.7290909" lon="9.3671225"><ele>746.0</ele><time>2026-04-19T13:22:56.729Z</time></trkpt><trkpt lat="44.7291786" lon="9.3671731"><ele>746.0</ele><time>2026-04-19T13:22:57.729Z</time></trkpt><trkpt lat="44.7292792" lon="9.3672143"><ele>746.0</ele><time>2026-04-19T13:22:58.729Z</time></trkpt><trkpt lat="44.7293913" lon="9.3672733"><ele>744.25</ele><time>2026-04-19T13:22:59.729Z</time></trkpt><trkpt lat="44.7294987" lon="9.367361"><ele>742.5</ele><time>2026-04-19T13:23:00.728Z</time></trkpt><trkpt lat="44.7296083" lon="9.3674648"><ele>740.75</ele><time>2026-04-19T13:23:01.728Z</time></trkpt><trkpt lat="44.7297165" lon="9.3675969"><ele>739.0</ele><time>2026-04-19T13:23:02.729Z</time></trkpt><trkpt lat="44.7298204" lon="9.3677322"><ele>739.0</ele><time>2026-04-19T13:23:03.728Z</time></trkpt><trkpt lat="44.7299291" lon="9.3678674"><ele>739.0</ele><time>2026-04-19T13:23:04.729Z</time></trkpt><trkpt lat="44.730039" lon="9.3679785"><ele>739.0</ele><time>2026-04-19T13:23:05.728Z</time></trkpt><trkpt lat="44.7301502" lon="9.3680808"><ele>739.0</ele><time>2026-04-19T13:23:06.729Z</time></trkpt><trkpt lat="44.7302469" lon="9.3681714"><ele>734.8000000000001</ele><time>2026-04-19T13:23:07.728Z</time></trkpt><trkpt lat="44.7303364" lon="9.3682453"><ele>730.6</ele><time>2026-04-19T13:23:08.729Z</time></trkpt><trkpt lat="44.7304275" lon="9.3683059"><ele>726.4</ele><time>2026-04-19T13:23:09.729Z</time></trkpt><trkpt lat="44.7305202" lon="9.368343"><ele>722.2</ele><time>2026-04-19T13:23:10.729Z</time></trkpt><trkpt lat="44.7306147" lon="9.3683721"><ele>718.0</ele><time>2026-04-19T13:23:11.729Z</time></trkpt><trkpt lat="44.7306969" lon="9.3683995"><ele>718.0</ele><time>2026-04-19T13:23:12.729Z</time></trkpt><trkpt lat="44.7307664" lon="9.368422"><ele>718.0</ele><time>2026-04-19T13:23:13.729Z</time></trkpt><trkpt lat="44.7308943" lon="9.3684683"><ele>718.0</ele><time>2026-04-19T13:23:15.728Z</time></trkpt><trkpt lat="44.7309858" lon="9.3685087"><ele>718.0</ele><time>2026-04-19T13:23:16.729Z</time></trkpt><trkpt lat="44.7310878" lon="9.368556"><ele>718.0</ele><time>2026-04-19T13:23:17.729Z</time></trkpt><trkpt lat="44.731192" lon="9.3686075"><ele>716.6666666666667</ele><time>2026-04-19T13:23:18.729Z</time></trkpt><trkpt lat="44.7312833" lon="9.3686383"><ele>715.3333333333334</ele><time>2026-04-19T13:23:19.729Z</time></trkpt><trkpt lat="44.7313589" lon="9.3686307"><ele>714.0</ele><time>2026-04-19T13:23:20.728Z</time></trkpt><trkpt lat="44.7314204" lon="9.3686113"><ele>712.6666666666666</ele><time>2026-04-19T13:23:21.729Z</time></trkpt><trkpt lat="44.7314865" lon="9.3684828"><ele>711.3333333333333</ele><time>2026-04-19T13:23:23.728Z</time></trkpt><trkpt lat="44.7315009" lon="9.3683804"><ele>710.0</ele><time>2026-04-19T13:23:24.729Z</time></trkpt><trkpt lat="44.7315191" lon="9.368262"><ele>710.0</ele><time>2026-04-19T13:23:25.729Z</time></trkpt><trkpt lat="44.7315596" lon="9.368153"><ele>710.0</ele><time>2026-04-19T13:23:26.729Z</time></trkpt><trkpt lat="44.7316189" lon="9.3680676"><ele>710.0</ele><time>2026-04-19T13:23:27.729Z</time></trkpt><trkpt lat="44.7316948" lon="9.3680125"><ele>710.0</ele><time>2026-04-19T13:23:28.729Z</time></trkpt><trkpt lat="44.7317926" lon="9.3679845"><ele>710.0</ele><time>2026-04-19T13:23:29.728Z</time></trkpt><trkpt lat="44.7318946" lon="9.3679707"><ele>710.8</ele><time>2026-04-19T13:23:30.729Z</time></trkpt><trkpt lat="44.731997" lon="9.3679682"><ele>711.6</ele><time>2026-04-19T13:23:31.729Z</time></trkpt><trkpt lat="44.7320991" lon="9.3679732"><ele>712.4000000000001</ele><time>2026-04-19T13:23:32.729Z</time></trkpt><trkpt lat="44.7322022" lon="9.3679789"><ele>713.2</ele><time>2026-04-19T13:23:33.729Z</time></trkpt><trkpt lat="44.7323093" lon="9.3679859"><ele>714.0</ele><time>2026-04-19T13:23:34.729Z</time></trkpt><trkpt lat="44.7324245" lon="9.3680108"><ele>715.8000000000001</ele><time>2026-04-19T13:23:35.729Z</time></trkpt><trkpt lat="44.7325337" lon="9.3680482"><ele>717.6</ele><time>2026-04-19T13:23:36.729Z</time></trkpt><trkpt lat="44.732628" lon="9.3681053"><ele>719.4</ele><time>2026-04-19T13:23:37.729Z</time></trkpt><trkpt lat="44.7327011" lon="9.368174"><ele>721.2</ele><time>2026-04-19T13:23:38.729Z</time></trkpt><trkpt lat="44.732746" lon="9.3682657"><ele>723.0</ele><time>2026-04-19T13:23:39.728Z</time></trkpt><trkpt lat="44.7327758" lon="9.3683811"><ele>723.0</ele><time>2026-04-19T13:23:40.729Z</time></trkpt><trkpt lat="44.7327843" lon="9.3685245"><ele>723.0</ele><time>2026-04-19T13:23:41.728Z</time></trkpt><trkpt lat="44.7327883" lon="9.368649"><ele>723.0</ele><time>2026-04-19T13:23:42.729Z</time></trkpt><trkpt lat="44.732814" lon="9.3687594"><ele>723.0</ele><time>2026-04-19T13:23:43.728Z</time></trkpt><trkpt lat="44.7328629" lon="9.3688591"><ele>723.0</ele><time>2026-04-19T13:23:44.728Z</time></trkpt><trkpt lat="44.7329237" lon="9.3689738"><ele>718.25</ele><time>2026-04-19T13:23:45.728Z</time></trkpt><trkpt lat="44.7329913" lon="9.3690966"><ele>713.5</ele><time>2026-04-19T13:23:46.729Z</time></trkpt><trkpt lat="44.7330708" lon="9.3692359"><ele>708.75</ele><time>2026-04-19T13:23:47.729Z</time></trkpt><trkpt lat="44.7331516" lon="9.3693707"><ele>704.0</ele><time>2026-04-19T13:23:48.729Z</time></trkpt><trkpt lat="44.7332302" lon="9.3695015"><ele>704.0</ele><time>2026-04-19T13:23:49.729Z</time></trkpt><trkpt lat="44.7332958" lon="9.3696311"><ele>704.0</ele><time>2026-04-19T13:23:50.729Z</time></trkpt><trkpt lat="44.7333534" lon="9.3697566"><ele>704.0</ele><time>2026-04-19T13:23:51.729Z</time></trkpt><trkpt lat="44.7334079" lon="9.3698812"><ele>704.0</ele><time>2026-04-19T13:23:52.729Z</time></trkpt><trkpt lat="44.7334554" lon="9.3699907"><ele>704.0</ele><time>2026-04-19T13:23:53.728Z</time></trkpt><trkpt lat="44.7334819" lon="9.370093"><ele>704.5</ele><time>2026-04-19T13:23:54.728Z</time></trkpt><trkpt lat="44.7334851" lon="9.3702163"><ele>705.0</ele><time>2026-04-19T13:23:55.729Z</time></trkpt><trkpt lat="44.7334936" lon="9.3703185"><ele>705.5</ele><time>2026-04-19T13:23:56.729Z</time></trkpt><trkpt lat="44.7335648" lon="9.3704569"><ele>706.0</ele><time>2026-04-19T13:23:58.729Z</time></trkpt><trkpt lat="44.7336248" lon="9.3705116"><ele>706.5</ele><time>2026-04-19T13:23:59.729Z</time></trkpt><trkpt lat="44.7336883" lon="9.3705478"><ele>707.0</ele><time>2026-04-19T13:24:00.728Z</time></trkpt><trkpt lat="44.733761" lon="9.3706067"><ele>701.25</ele><time>2026-04-19T13:24:01.728Z</time></trkpt><trkpt lat="44.7338363" lon="9.3706906"><ele>695.5</ele><time>2026-04-19T13:24:02.728Z</time></trkpt><trkpt lat="44.7339225" lon="9.3708014"><ele>689.75</ele><time>2026-04-19T13:24:03.728Z</time></trkpt><trkpt lat="44.7340043" lon="9.370927"><ele>684.0</ele><time>2026-04-19T13:24:04.729Z</time></trkpt><trkpt lat="44.7340799" lon="9.3710547"><ele>684.0</ele><time>2026-04-19T13:24:05.729Z</time></trkpt><trkpt lat="44.7341515" lon="9.371167"><ele>684.0</ele><time>2026-04-19T13:24:06.729Z</time></trkpt><trkpt lat="44.7342264" lon="9.3712526"><ele>684.0</ele><time>2026-04-19T13:24:07.729Z</time></trkpt><trkpt lat="44.7342908" lon="9.3713405"><ele>684.0</ele><time>2026-04-19T13:24:08.729Z</time></trkpt><trkpt lat="44.734345" lon="9.3714281"><ele>684.0</ele><time>2026-04-19T13:24:09.729Z</time></trkpt><trkpt lat="44.7344065" lon="9.3715515"><ele>685.2</ele><time>2026-04-19T13:24:10.728Z</time></trkpt><trkpt lat="44.7344681" lon="9.3716839"><ele>686.4000000000001</ele><time>2026-04-19T13:24:11.729Z</time></trkpt><trkpt lat="44.7345284" lon="9.371806"><ele>687.6</ele><time>2026-04-19T13:24:12.729Z</time></trkpt><trkpt lat="44.7345936" lon="9.3719231"><ele>688.8</ele><time>2026-04-19T13:24:13.729Z</time></trkpt><trkpt lat="44.7346429" lon="9.3720337"><ele>690.0</ele><time>2026-04-19T13:24:14.729Z</time></trkpt><trkpt lat="44.7346783" lon="9.3721451"><ele>686.6</ele><time>2026-04-19T13:24:15.729Z</time></trkpt><trkpt lat="44.7347021" lon="9.3722619"><ele>683.2</ele><time>2026-04-19T13:24:16.729Z</time></trkpt><trkpt lat="44.7347123" lon="9.3723881"><ele>679.8</ele><time>2026-04-19T13:24:17.728Z</time></trkpt><trkpt lat="44.7346977" lon="9.3725292"><ele>676.4</ele><time>2026-04-19T13:24:18.729Z</time></trkpt><trkpt lat="44.7346744" lon="9.3726728"><ele>673.0</ele><time>2026-04-19T13:24:19.728Z</time></trkpt><trkpt lat="44.7346437" lon="9.3728051"><ele>673.0</ele><time>2026-04-19T13:24:20.729Z</time></trkpt><trkpt lat="44.7346068" lon="9.3729527"><ele>673.0</ele><time>2026-04-19T13:24:21.729Z</time></trkpt><trkpt lat="44.7345648" lon="9.3731141"><ele>673.0</ele><time>2026-04-19T13:24:22.729Z</time></trkpt><trkpt lat="44.7345333" lon="9.373297"><ele>673.0</ele><time>2026-04-19T13:24:23.729Z</time></trkpt><trkpt lat="44.7345034" lon="9.3734971"><ele>667.6666666666667</ele><time>2026-04-19T13:24:24.729Z</time></trkpt><trkpt lat="44.7344763" lon="9.3737097"><ele>662.3333333333334</ele><time>2026-04-19T13:24:25.728Z</time></trkpt><trkpt lat="44.7344352" lon="9.3739195"><ele>657.0</ele><time>2026-04-19T13:24:26.728Z</time></trkpt><trkpt lat="44.7343956" lon="9.3741179"><ele>654.0</ele><time>2026-04-19T13:24:27.729Z</time></trkpt><trkpt lat="44.7343609" lon="9.3743063"><ele>651.0</ele><time>2026-04-19T13:24:28.729Z</time></trkpt><trkpt lat="44.7343343" lon="9.3744844"><ele>648.0</ele><time>2026-04-19T13:24:29.729Z</time></trkpt><trkpt lat="44.7342978" lon="9.3746536"><ele>645.0</ele><time>2026-04-19T13:24:30.729Z</time></trkpt><trkpt lat="44.7342472" lon="9.3747992"><ele>645.0</ele><time>2026-04-19T13:24:31.728Z</time></trkpt><trkpt lat="44.7341833" lon="9.3749272"><ele>645.0</ele><time>2026-04-19T13:24:32.729Z</time></trkpt><trkpt lat="44.7341248" lon="9.3750319"><ele>645.0</ele><time>2026-04-19T13:24:33.729Z</time></trkpt><trkpt lat="44.7340774" lon="9.375129"><ele>645.0</ele><time>2026-04-19T13:24:34.728Z</time></trkpt><trkpt lat="44.7340455" lon="9.3752195"><ele>645.0</ele><time>2026-04-19T13:24:35.729Z</time></trkpt><trkpt lat="44.7340377" lon="9.3753206"><ele>645.0</ele><time>2026-04-19T13:24:36.729Z</time></trkpt><trkpt lat="44.734053" lon="9.375409"><ele>645.0</ele><time>2026-04-19T13:24:37.729Z</time></trkpt><trkpt lat="44.734134" lon="9.3755117"><ele>645.0</ele><time>2026-04-19T13:24:39.729Z</time></trkpt><trkpt lat="44.7342505" lon="9.3755136"><ele>645.0</ele><time>2026-04-19T13:24:41.729Z</time></trkpt><trkpt lat="44.7343289" lon="9.3754429"><ele>645.0</ele><time>2026-04-19T13:24:42.729Z</time></trkpt><trkpt lat="44.7344215" lon="9.3753392"><ele>645.0</ele><time>2026-04-19T13:24:43.729Z</time></trkpt><trkpt lat="44.734496" lon="9.3752186"><ele>641.75</ele><time>2026-04-19T13:24:44.729Z</time></trkpt><trkpt lat="44.7345428" lon="9.3751021"><ele>638.5</ele><time>2026-04-19T13:24:45.729Z</time></trkpt><trkpt lat="44.7345723" lon="9.3749506"><ele>635.25</ele><time>2026-04-19T13:24:46.729Z</time></trkpt><trkpt lat="44.7345911" lon="9.3747665"><ele>632.0</ele><time>2026-04-19T13:24:47.729Z</time></trkpt><trkpt lat="44.7346011" lon="9.3745798"><ele>632.0</ele><time>2026-04-19T13:24:48.729Z</time></trkpt><trkpt lat="44.7346198" lon="9.3744177"><ele>632.0</ele><time>2026-04-19T13:24:49.729Z</time></trkpt><trkpt lat="44.7346363" lon="9.374279"><ele>632.0</ele><time>2026-04-19T13:24:50.728Z</time></trkpt><trkpt lat="44.7346588" lon="9.3741716"><ele>632.0</ele><time>2026-04-19T13:24:51.729Z</time></trkpt><trkpt lat="44.734731" lon="9.3740496"><ele>632.0</ele><time>2026-04-19T13:24:53.728Z</time></trkpt><trkpt lat="44.7348011" lon="9.3740242"><ele>632.0</ele><time>2026-04-19T13:24:54.729Z</time></trkpt><trkpt lat="44.7348775" lon="9.374005"><ele>632.0</ele><time>2026-04-19T13:24:55.729Z</time></trkpt><trkpt lat="44.734948" lon="9.3739658"><ele>632.0</ele><time>2026-04-19T13:24:56.728Z</time></trkpt><trkpt lat="44.7350094" lon="9.3738926"><ele>632.0</ele><time>2026-04-19T13:24:57.728Z</time></trkpt><trkpt lat="44.7350689" lon="9.373804"><ele>632.0</ele><time>2026-04-19T13:24:58.729Z</time></trkpt><trkpt lat="44.735136" lon="9.3737257"><ele>632.0</ele><time>2026-04-19T13:24:59.729Z</time></trkpt><trkpt lat="44.7352238" lon="9.3736658"><ele>637.0</ele><time>2026-04-19T13:25:00.729Z</time></trkpt><trkpt lat="44.7353296" lon="9.3736367"><ele>642.0</ele><time>2026-04-19T13:25:01.728Z</time></trkpt><trkpt lat="44.735451" lon="9.3736444"><ele>647.0</ele><time>2026-04-19T13:25:02.728Z</time></trkpt><trkpt lat="44.7355796" lon="9.3736734"><ele>652.0</ele><time>2026-04-19T13:25:03.729Z</time></trkpt><trkpt lat="44.7356977" lon="9.3736906"><ele>652.0</ele><time>2026-04-19T13:25:04.729Z</time></trkpt><trkpt lat="44.7357852" lon="9.3737098"><ele>652.0</ele><time>2026-04-19T13:25:05.729Z</time></trkpt><trkpt lat="44.7358617" lon="9.3737591"><ele>652.0</ele><time>2026-04-19T13:25:06.728Z</time></trkpt><trkpt lat="44.7359285" lon="9.3738399"><ele>652.0</ele><time>2026-04-19T13:25:07.728Z</time></trkpt><trkpt lat="44.7360004" lon="9.373954"><ele>652.0</ele><time>2026-04-19T13:25:08.729Z</time></trkpt><trkpt lat="44.7360873" lon="9.3740669"><ele>644.4</ele><time>2026-04-19T13:25:09.729Z</time></trkpt><trkpt lat="44.7361849" lon="9.3741473"><ele>636.8000000000001</ele><time>2026-04-19T13:25:10.729Z</time></trkpt><trkpt lat="44.7362615" lon="9.3742053"><ele>629.2</ele><time>2026-04-19T13:25:11.728Z</time></trkpt><trkpt lat="44.7363353" lon="9.3742283"><ele>621.6</ele><time>2026-04-19T13:25:12.729Z</time></trkpt><trkpt lat="44.7364217" lon="9.3742169"><ele>614.0</ele><time>2026-04-19T13:25:13.729Z</time></trkpt><trkpt lat="44.7365209" lon="9.3741788"><ele>614.0</ele><time>2026-04-19T13:25:14.729Z</time></trkpt><trkpt lat="44.7366323" lon="9.3741193"><ele>614.0</ele><time>2026-04-19T13:25:15.729Z</time></trkpt><trkpt lat="44.7367395" lon="9.3740566"><ele>614.0</ele><time>2026-04-19T13:25:16.729Z</time></trkpt><trkpt lat="44.7368361" lon="9.3740001"><ele>614.0</ele><time>2026-04-19T13:25:17.729Z</time></trkpt><trkpt lat="44.7369226" lon="9.3739463"><ele>614.0</ele><time>2026-04-19T13:25:18.729Z</time></trkpt><trkpt lat="44.7369886" lon="9.3738859"><ele>611.3333333333333</ele><time>2026-04-19T13:25:19.729Z</time></trkpt><trkpt lat="44.7370314" lon="9.3738197"><ele>608.6666666666666</ele><time>2026-04-19T13:25:20.729Z</time></trkpt><trkpt lat="44.737061" lon="9.3737354"><ele>606.0</ele><time>2026-04-19T13:25:21.729Z</time></trkpt><trkpt lat="44.737071" lon="9.37361"><ele>603.3333333333334</ele><time>2026-04-19T13:25:22.729Z</time></trkpt><trkpt lat="44.737075" lon="9.373459"><ele>600.6666666666667</ele><time>2026-04-19T13:25:23.729Z</time></trkpt><trkpt lat="44.7370872" lon="9.3732957"><ele>598.0</ele><time>2026-04-19T13:25:24.729Z</time></trkpt><trkpt lat="44.7371074" lon="9.3731303"><ele>600.8</ele><time>2026-04-19T13:25:25.728Z</time></trkpt><trkpt lat="44.737114" lon="9.3729726"><ele>603.5999999999999</ele><time>2026-04-19T13:25:26.729Z</time></trkpt><trkpt lat="44.7370987" lon="9.3728275"><ele>606.4000000000001</ele><time>2026-04-19T13:25:27.729Z</time></trkpt><trkpt lat="44.7370774" lon="9.3726959"><ele>609.2</ele><time>2026-04-19T13:25:28.728Z</time></trkpt><trkpt lat="44.7370771" lon="9.3725788"><ele>612.0</ele><time>2026-04-19T13:25:29.729Z</time></trkpt><trkpt lat="44.7370927" lon="9.372481"><ele>612.0</ele><time>2026-04-19T13:25:30.729Z</time></trkpt><trkpt lat="44.7371256" lon="9.3723957"><ele>612.0</ele><time>2026-04-19T13:25:31.729Z</time></trkpt><trkpt lat="44.7371902" lon="9.3723528"><ele>612.0</ele><time>2026-04-19T13:25:32.729Z</time></trkpt><trkpt lat="44.7372829" lon="9.3723456"><ele>612.0</ele><time>2026-04-19T13:25:33.729Z</time></trkpt><trkpt lat="44.7373828" lon="9.3723736"><ele>612.0</ele><time>2026-04-19T13:25:34.729Z</time></trkpt><trkpt lat="44.7374776" lon="9.3724049"><ele>612.0</ele><time>2026-04-19T13:25:35.729Z</time></trkpt><trkpt lat="44.7375674" lon="9.3723984"><ele>612.0</ele><time>2026-04-19T13:25:36.728Z</time></trkpt><trkpt lat="44.7376527" lon="9.3723646"><ele>612.0</ele><time>2026-04-19T13:25:37.729Z</time></trkpt><trkpt lat="44.7377325" lon="9.3722813"><ele>612.0</ele><time>2026-04-19T13:25:38.729Z</time></trkpt><trkpt lat="44.7377993" lon="9.3721837"><ele>612.0</ele><time>2026-04-19T13:25:39.728Z</time></trkpt><trkpt lat="44.7378682" lon="9.3721022"><ele>612.0</ele><time>2026-04-19T13:25:40.729Z</time></trkpt><trkpt lat="44.7379506" lon="9.3720504"><ele>612.0</ele><time>2026-04-19T13:25:41.729Z</time></trkpt><trkpt lat="44.7380449" lon="9.3720401"><ele>612.0</ele><time>2026-04-19T13:25:42.729Z</time></trkpt><trkpt lat="44.7381389" lon="9.3720249"><ele>612.0</ele><time>2026-04-19T13:25:43.728Z</time></trkpt><trkpt lat="44.7382224" lon="9.3719965"><ele>612.0</ele><time>2026-04-19T13:25:44.729Z</time></trkpt><trkpt lat="44.7383025" lon="9.3719481"><ele>612.0</ele><time>2026-04-19T13:25:45.729Z</time></trkpt><trkpt lat="44.7383765" lon="9.3718828"><ele>612.0</ele><time>2026-04-19T13:25:46.729Z</time></trkpt><trkpt lat="44.7384579" lon="9.3718274"><ele>612.0</ele><time>2026-04-19T13:25:47.728Z</time></trkpt><trkpt lat="44.7385488" lon="9.3717908"><ele>612.0</ele><time>2026-04-19T13:25:48.729Z</time></trkpt><trkpt lat="44.7386422" lon="9.3717631"><ele>612.0</ele><time>2026-04-19T13:25:49.729Z</time></trkpt><trkpt lat="44.7387306" lon="9.3717578"><ele>612.0</ele><time>2026-04-19T13:25:50.729Z</time></trkpt><trkpt lat="44.7388201" lon="9.3717689"><ele>606.6</ele><time>2026-04-19T13:25:51.729Z</time></trkpt><trkpt lat="44.7389102" lon="9.3717813"><ele>601.2</ele><time>2026-04-19T13:25:52.729Z</time></trkpt><trkpt lat="44.7389865" lon="9.3717892"><ele>595.8</ele><time>2026-04-19T13:25:53.729Z</time></trkpt><trkpt lat="44.7390628" lon="9.3717253"><ele>590.4</ele><time>2026-04-19T13:25:55.729Z</time></trkpt><trkpt lat="44.7391012" lon="9.3715731"><ele>585.0</ele><time>2026-04-19T13:25:57.729Z</time></trkpt><trkpt lat="44.7390942" lon="9.3714552"><ele>585.8</ele><time>2026-04-19T13:25:58.729Z</time></trkpt><trkpt lat="44.7390725" lon="9.3713192"><ele>586.6</ele><time>2026-04-19T13:25:59.729Z</time></trkpt><trkpt lat="44.739045" lon="9.3711645"><ele>587.4</ele><time>2026-04-19T13:26:00.729Z</time></trkpt><trkpt lat="44.7390198" lon="9.3710157"><ele>588.2</ele><time>2026-04-19T13:26:01.728Z</time></trkpt><trkpt lat="44.7390028" lon="9.3708668"><ele>589.0</ele><time>2026-04-19T13:26:02.729Z</time></trkpt><trkpt lat="44.7389987" lon="9.3707334"><ele>589.0</ele><time>2026-04-19T13:26:03.729Z</time></trkpt><trkpt lat="44.7390195" lon="9.3706192"><ele>589.0</ele><time>2026-04-19T13:26:04.728Z</time></trkpt><trkpt lat="44.7390711" lon="9.3705132"><ele>589.0</ele><time>2026-04-19T13:26:05.729Z</time></trkpt><trkpt lat="44.7391361" lon="9.3704392"><ele>589.0</ele><time>2026-04-19T13:26:06.728Z</time></trkpt><trkpt lat="44.7392274" lon="9.3703751"><ele>589.0</ele><time>2026-04-19T13:26:07.728Z</time></trkpt><trkpt lat="44.7393399" lon="9.3703001"><ele>584.6</ele><time>2026-04-19T13:26:08.729Z</time></trkpt><trkpt lat="44.7394446" lon="9.370235"><ele>580.2</ele><time>2026-04-19T13:26:09.729Z</time></trkpt><trkpt lat="44.7395289" lon="9.3701904"><ele>575.8000000000001</ele><time>2026-04-19T13:26:10.729Z</time></trkpt><trkpt lat="44.7395914" lon="9.3701397"><ele>571.4</ele><time>2026-04-19T13:26:11.729Z</time></trkpt><trkpt lat="44.7396694" lon="9.3701294"><ele>567.0</ele><time>2026-04-19T13:26:13.729Z</time></trkpt><trkpt lat="44.7397337" lon="9.3702732"><ele>567.0</ele><time>2026-04-19T13:26:15.729Z</time></trkpt><trkpt lat="44.739764" lon="9.3703872"><ele>567.0</ele><time>2026-04-19T13:26:16.729Z</time></trkpt><trkpt lat="44.7398109" lon="9.3704928"><ele>567.0</ele><time>2026-04-19T13:26:17.729Z</time></trkpt><trkpt lat="44.7398866" lon="9.3705934"><ele>567.0</ele><time>2026-04-19T13:26:18.729Z</time></trkpt><trkpt lat="44.7399732" lon="9.3706854"><ele>567.0</ele><time>2026-04-19T13:26:19.729Z</time></trkpt><trkpt lat="44.7400604" lon="9.3707748"><ele>566.8333333333334</ele><time>2026-04-19T13:26:20.728Z</time></trkpt><trkpt lat="44.7401352" lon="9.3708354"><ele>566.6666666666666</ele><time>2026-04-19T13:26:21.728Z</time></trkpt><trkpt lat="44.7402068" lon="9.3708649"><ele>566.5</ele><time>2026-04-19T13:26:22.729Z</time></trkpt><trkpt lat="44.7402773" lon="9.3708702"><ele>566.3333333333333</ele><time>2026-04-19T13:26:23.729Z</time></trkpt><trkpt lat="44.7403575" lon="9.3708565"><ele>566.1666666666666</ele><time>2026-04-19T13:26:24.729Z</time></trkpt><trkpt lat="44.7404526" lon="9.3708163"><ele>566.0</ele><time>2026-04-19T13:26:25.729Z</time></trkpt><trkpt lat="44.7405563" lon="9.3707683"><ele>563.25</ele><time>2026-04-19T13:26:26.729Z</time></trkpt><trkpt lat="44.7406721" lon="9.3707297"><ele>560.5</ele><time>2026-04-19T13:26:27.729Z</time></trkpt><trkpt lat="44.7407926" lon="9.3707075"><ele>557.75</ele><time>2026-04-19T13:26:28.729Z</time></trkpt><trkpt lat="44.7409174" lon="9.3707032"><ele>555.0</ele><time>2026-04-19T13:26:29.729Z</time></trkpt><trkpt lat="44.7410475" lon="9.370701"><ele>554.75</ele><time>2026-04-19T13:26:30.729Z</time></trkpt><trkpt lat="44.7411849" lon="9.3707039"><ele>554.5</ele><time>2026-04-19T13:26:31.729Z</time></trkpt><trkpt lat="44.7413237" lon="9.3706926"><ele>554.25</ele><time>2026-04-19T13:26:32.729Z</time></trkpt><trkpt lat="44.7414504" lon="9.3706654"><ele>554.0</ele><time>2026-04-19T13:26:33.729Z</time></trkpt><trkpt lat="44.7415733" lon="9.3706327"><ele>554.0</ele><time>2026-04-19T13:26:34.728Z</time></trkpt><trkpt lat="44.7416908" lon="9.3705971"><ele>554.0</ele><time>2026-04-19T13:26:35.728Z</time></trkpt><trkpt lat="44.7418129" lon="9.3705644"><ele>554.0</ele><time>2026-04-19T13:26:36.728Z</time></trkpt><trkpt lat="44.7419329" lon="9.3705317"><ele>554.0</ele><time>2026-04-19T13:26:37.729Z</time></trkpt><trkpt lat="44.7420466" lon="9.3704871"><ele>551.2</ele><time>2026-04-19T13:26:38.729Z</time></trkpt><trkpt lat="44.7421598" lon="9.3704473"><ele>548.4</ele><time>2026-04-19T13:26:39.729Z</time></trkpt><trkpt lat="44.7422703" lon="9.3704087"><ele>545.6</ele><time>2026-04-19T13:26:40.728Z</time></trkpt><trkpt lat="44.7423622" lon="9.3703853"><ele>542.8</ele><time>2026-04-19T13:26:41.729Z</time></trkpt><trkpt lat="44.7424484" lon="9.3703985"><ele>540.0</ele><time>2026-04-19T13:26:42.729Z</time></trkpt><trkpt lat="44.7425315" lon="9.3704594"><ele>540.4</ele><time>2026-04-19T13:26:43.729Z</time></trkpt><trkpt lat="44.7426101" lon="9.3705385"><ele>540.8</ele><time>2026-04-19T13:26:44.729Z</time></trkpt><trkpt lat="44.7426875" lon="9.3706357"><ele>541.2</ele><time>2026-04-19T13:26:45.729Z</time></trkpt><trkpt lat="44.7427531" lon="9.3707396"><ele>541.6</ele><time>2026-04-19T13:26:46.728Z</time></trkpt><trkpt lat="44.7427979" lon="9.3708419"><ele>542.0</ele><time>2026-04-19T13:26:47.729Z</time></trkpt><trkpt lat="44.742833" lon="9.3709377"><ele>542.0</ele><time>2026-04-19T13:26:48.728Z</time></trkpt><trkpt lat="44.7428683" lon="9.3710197"><ele>542.0</ele><time>2026-04-19T13:26:49.729Z</time></trkpt><trkpt lat="44.7429082" lon="9.3710887"><ele>542.0</ele><time>2026-04-19T13:26:50.729Z</time></trkpt><trkpt lat="44.7429986" lon="9.3711526"><ele>542.0</ele><time>2026-04-19T13:26:52.729Z</time></trkpt><trkpt lat="44.7431336" lon="9.3710879"><ele>542.0</ele><time>2026-04-19T13:26:54.729Z</time></trkpt><trkpt lat="44.7432442" lon="9.371022"><ele>542.0</ele><time>2026-04-19T13:26:55.728Z</time></trkpt><trkpt lat="44.7433921" lon="9.3709504"><ele>542.0</ele><time>2026-04-19T13:26:56.728Z</time></trkpt><trkpt lat="44.7435451" lon="9.37088"><ele>542.0</ele><time>2026-04-19T13:26:57.728Z</time></trkpt><trkpt lat="44.7436964" lon="9.3708157"><ele>540.25</ele><time>2026-04-19T13:26:58.729Z</time></trkpt><trkpt lat="44.7438433" lon="9.3707623"><ele>538.5</ele><time>2026-04-19T13:26:59.729Z</time></trkpt><trkpt lat="44.7439751" lon="9.3707197"><ele>536.75</ele><time>2026-04-19T13:27:00.729Z</time></trkpt><trkpt lat="44.7440903" lon="9.3706745"><ele>535.0</ele><time>2026-04-19T13:27:01.729Z</time></trkpt><trkpt lat="44.7442042" lon="9.3706196"><ele>535.0</ele><time>2026-04-19T13:27:02.729Z</time></trkpt><trkpt lat="44.7443151" lon="9.3705679"><ele>535.0</ele><time>2026-04-19T13:27:03.729Z</time></trkpt><trkpt lat="44.7444083" lon="9.3705201"><ele>535.0</ele><time>2026-04-19T13:27:04.728Z</time></trkpt><trkpt lat="44.7444906" lon="9.3704795"><ele>535.0</ele><time>2026-04-19T13:27:05.729Z</time></trkpt><trkpt lat="44.7445602" lon="9.370458"><ele>535.0</ele><time>2026-04-19T13:27:06.729Z</time></trkpt><trkpt lat="44.7446262" lon="9.3704602"><ele>535.0</ele><time>2026-04-19T13:27:07.729Z</time></trkpt><trkpt lat="44.7446859" lon="9.3704931"><ele>535.0</ele><time>2026-04-19T13:27:08.728Z</time></trkpt><trkpt lat="44.7447363" lon="9.3705592"><ele>535.0</ele><time>2026-04-19T13:27:09.729Z</time></trkpt><trkpt lat="44.7447697" lon="9.3706469"><ele>535.0</ele><time>2026-04-19T13:27:10.729Z</time></trkpt><trkpt lat="44.744807" lon="9.3707614"><ele>535.0</ele><time>2026-04-19T13:27:11.729Z</time></trkpt><trkpt lat="44.7448318" lon="9.3708891"><ele>535.0</ele><time>2026-04-19T13:27:12.728Z</time></trkpt><trkpt lat="44.7448364" lon="9.370994"><ele>535.0</ele><time>2026-04-19T13:27:13.729Z</time></trkpt><trkpt lat="44.7447659" lon="9.3711155"><ele>535.0</ele><time>2026-04-19T13:27:15.729Z</time></trkpt><trkpt lat="44.7446887" lon="9.3711368"><ele>535.0</ele><time>2026-04-19T13:27:16.728Z</time></trkpt><trkpt lat="44.7445762" lon="9.3711439"><ele>535.0</ele><time>2026-04-19T13:27:17.728Z</time></trkpt><trkpt lat="44.7444375" lon="9.3711314"><ele>535.0</ele><time>2026-04-19T13:27:18.728Z</time></trkpt><trkpt lat="44.7443151" lon="9.3711389"><ele>535.0</ele><time>2026-04-19T13:27:19.729Z</time></trkpt><trkpt lat="44.7442139" lon="9.3711789"><ele>535.0</ele><time>2026-04-19T13:27:20.729Z</time></trkpt><trkpt lat="44.7441289" lon="9.3712481"><ele>535.0</ele><time>2026-04-19T13:27:21.729Z</time></trkpt><trkpt lat="44.7440533" lon="9.3713326"><ele>535.0</ele><time>2026-04-19T13:27:22.729Z</time></trkpt><trkpt lat="44.7439775" lon="9.3714087"><ele>535.0</ele><time>2026-04-19T13:27:23.729Z</time></trkpt><trkpt lat="44.74389" lon="9.37148"><ele>535.4</ele><time>2026-04-19T13:27:24.729Z</time></trkpt><trkpt lat="44.7438026" lon="9.3715504"><ele>535.8</ele><time>2026-04-19T13:27:25.729Z</time></trkpt><trkpt lat="44.7437247" lon="9.3716331"><ele>536.2</ele><time>2026-04-19T13:27:26.729Z</time></trkpt><trkpt lat="44.7436424" lon="9.3717246"><ele>536.6</ele><time>2026-04-19T13:27:27.729Z</time></trkpt><trkpt lat="44.7435636" lon="9.3718179"><ele>537.0</ele><time>2026-04-19T13:27:28.729Z</time></trkpt><trkpt lat="44.74349" lon="9.3719211"><ele>537.0</ele><time>2026-04-19T13:27:29.728Z</time></trkpt><trkpt lat="44.7434201" lon="9.3720236"><ele>537.0</ele><time>2026-04-19T13:27:30.729Z</time></trkpt><trkpt lat="44.7433593" lon="9.3721304"><ele>537.0</ele><time>2026-04-19T13:27:31.729Z</time></trkpt><trkpt lat="44.7433134" lon="9.3722442"><ele>537.0</ele><time>2026-04-19T13:27:32.729Z</time></trkpt><trkpt lat="44.7432881" lon="9.3723601"><ele>537.0</ele><time>2026-04-19T13:27:33.729Z</time></trkpt><trkpt lat="44.7432778" lon="9.3724863"><ele>532.3333333333334</ele><time>2026-04-19T13:27:34.729Z</time></trkpt><trkpt lat="44.7432686" lon="9.3725992"><ele>527.6666666666666</ele><time>2026-04-19T13:27:35.729Z</time></trkpt><trkpt lat="44.7432336" lon="9.3726748"><ele>523.0</ele><time>2026-04-19T13:27:36.729Z</time></trkpt><trkpt lat="44.7431723" lon="9.3727328"><ele>518.3333333333333</ele><time>2026-04-19T13:27:37.729Z</time></trkpt><trkpt lat="44.74309" lon="9.3728159"><ele>513.6666666666666</ele><time>2026-04-19T13:27:38.728Z</time></trkpt><trkpt lat="44.7429918" lon="9.3729124"><ele>509.0</ele><time>2026-04-19T13:27:39.728Z</time></trkpt><trkpt lat="44.7428925" lon="9.3730099"><ele>504.6</ele><time>2026-04-19T13:27:40.729Z</time></trkpt><trkpt lat="44.7427966" lon="9.3730762"><ele>500.2</ele><time>2026-04-19T13:27:41.729Z</time></trkpt><trkpt lat="44.7427008" lon="9.3731137"><ele>495.80000000000007</ele><time>2026-04-19T13:27:42.728Z</time></trkpt><trkpt lat="44.7425994" lon="9.3731239"><ele>491.40000000000003</ele><time>2026-04-19T13:27:43.729Z</time></trkpt><trkpt lat="44.7425111" lon="9.3731266"><ele>487.0</ele><time>2026-04-19T13:27:44.729Z</time></trkpt><trkpt lat="44.7424433" lon="9.3731335"><ele>487.00000000000006</ele><time>2026-04-19T13:27:45.729Z</time></trkpt><trkpt lat="44.7423727" lon="9.3731833"><ele>487.0</ele><time>2026-04-19T13:27:47.728Z</time></trkpt><trkpt lat="44.7424187" lon="9.3732677"><ele>487.0</ele><time>2026-04-19T13:27:50.728Z</time></trkpt><trkpt lat="44.7425071" lon="9.3732551"><ele>487.0</ele><time>2026-04-19T13:27:52.729Z</time></trkpt><trkpt lat="44.7425913" lon="9.373244"><ele>487.00000000000006</ele><time>2026-04-19T13:27:53.728Z</time></trkpt><trkpt lat="44.7426995" lon="9.3732561"><ele>487.0</ele><time>2026-04-19T13:27:54.729Z</time></trkpt><trkpt lat="44.7428208" lon="9.3732714"><ele>485.40000000000003</ele><time>2026-04-19T13:27:55.729Z</time></trkpt><trkpt lat="44.7429362" lon="9.3732664"><ele>483.80000000000007</ele><time>2026-04-19T13:27:56.729Z</time></trkpt><trkpt lat="44.7430558" lon="9.3732583"><ele>482.2</ele><time>2026-04-19T13:27:57.728Z</time></trkpt><trkpt lat="44.7431618" lon="9.3732284"><ele>480.6</ele><time>2026-04-19T13:27:58.728Z</time></trkpt><trkpt lat="44.743265" lon="9.3732065"><ele>479.0</ele><time>2026-04-19T13:27:59.729Z</time></trkpt><trkpt lat="44.7433711" lon="9.3732076"><ele>479.0</ele><time>2026-04-19T13:28:00.729Z</time></trkpt><trkpt lat="44.7434791" lon="9.373238"><ele>479.0</ele><time>2026-04-19T13:28:01.728Z</time></trkpt><trkpt lat="44.7435918" lon="9.373269"><ele>479.0</ele><time>2026-04-19T13:28:02.729Z</time></trkpt><trkpt lat="44.7437004" lon="9.3732963"><ele>479.0</ele><time>2026-04-19T13:28:03.729Z</time></trkpt><trkpt lat="44.7437829" lon="9.3733057"><ele>479.0</ele><time>2026-04-19T13:28:04.729Z</time></trkpt><trkpt lat="44.743892" lon="9.3732681"><ele>479.2</ele><time>2026-04-19T13:28:06.729Z</time></trkpt><trkpt lat="44.7439307" lon="9.3731978"><ele>479.4</ele><time>2026-04-19T13:28:07.729Z</time></trkpt><trkpt lat="44.743943" lon="9.3730776"><ele>479.6</ele><time>2026-04-19T13:28:08.729Z</time></trkpt><trkpt lat="44.7439558" lon="9.3729287"><ele>479.8</ele><time>2026-04-19T13:28:09.728Z</time></trkpt><trkpt lat="44.7439854" lon="9.3727529"><ele>480.0</ele><time>2026-04-19T13:28:10.729Z</time></trkpt><trkpt lat="44.7440204" lon="9.3725922"><ele>480.0</ele><time>2026-04-19T13:28:11.729Z</time></trkpt><trkpt lat="44.7440668" lon="9.3724545"><ele>480.0</ele><time>2026-04-19T13:28:12.729Z</time></trkpt><trkpt lat="44.7441169" lon="9.3723442"><ele>480.0</ele><time>2026-04-19T13:28:13.728Z</time></trkpt><trkpt lat="44.7441849" lon="9.3722781"><ele>480.0</ele><time>2026-04-19T13:28:14.728Z</time></trkpt><trkpt lat="44.7442644" lon="9.3722394"><ele>480.0</ele><time>2026-04-19T13:28:15.729Z</time></trkpt><trkpt lat="44.7443575" lon="9.3722469"><ele>478.25</ele><time>2026-04-19T13:28:16.729Z</time></trkpt><trkpt lat="44.7444648" lon="9.3722975"><ele>476.5</ele><time>2026-04-19T13:28:17.729Z</time></trkpt><trkpt lat="44.7445889" lon="9.3723865"><ele>474.75</ele><time>2026-04-19T13:28:18.729Z</time></trkpt><trkpt lat="44.7446975" lon="9.3724945"><ele>473.0</ele><time>2026-04-19T13:28:19.729Z</time></trkpt><trkpt lat="44.7447773" lon="9.3726062"><ele>473.0</ele><time>2026-04-19T13:28:20.729Z</time></trkpt><trkpt lat="44.7448289" lon="9.3727218"><ele>472.99999999999994</ele><time>2026-04-19T13:28:21.729Z</time></trkpt><trkpt lat="44.7448616" lon="9.3728505"><ele>472.99999999999994</ele><time>2026-04-19T13:28:22.729Z</time></trkpt><trkpt lat="44.7448894" lon="9.3729845"><ele>473.0</ele><time>2026-04-19T13:28:23.728Z</time></trkpt><trkpt lat="44.7449227" lon="9.3731179"><ele>473.0</ele><time>2026-04-19T13:28:24.728Z</time></trkpt><trkpt lat="44.7449655" lon="9.3732323"><ele>468.8333333333333</ele><time>2026-04-19T13:28:25.729Z</time></trkpt><trkpt lat="44.7450075" lon="9.373305"><ele>464.66666666666663</ele><time>2026-04-19T13:28:26.729Z</time></trkpt><trkpt lat="44.7450699" lon="9.3733388"><ele>460.5</ele><time>2026-04-19T13:28:27.729Z</time></trkpt><trkpt lat="44.7451533" lon="9.3733473"><ele>456.33333333333337</ele><time>2026-04-19T13:28:28.729Z</time></trkpt><trkpt lat="44.7452593" lon="9.3733547"><ele>452.1666666666667</ele><time>2026-04-19T13:28:29.729Z</time></trkpt><trkpt lat="44.7453735" lon="9.3733894"><ele>448.0</ele><time>2026-04-19T13:28:30.728Z</time></trkpt><trkpt lat="44.7454839" lon="9.373438"><ele>447.5</ele><time>2026-04-19T13:28:31.729Z</time></trkpt><trkpt lat="44.7455866" lon="9.3734643"><ele>447.0</ele><time>2026-04-19T13:28:32.729Z</time></trkpt><trkpt lat="44.7457089" lon="9.3734522"><ele>446.5</ele><time>2026-04-19T13:28:33.729Z</time></trkpt><trkpt lat="44.745839" lon="9.3734332"><ele>446.0</ele><time>2026-04-19T13:28:34.729Z</time></trkpt><trkpt lat="44.7459658" lon="9.3734217"><ele>443.75</ele><time>2026-04-19T13:28:35.729Z</time></trkpt><trkpt lat="44.7460936" lon="9.373433"><ele>441.5</ele><time>2026-04-19T13:28:36.729Z</time></trkpt><trkpt lat="44.7462163" lon="9.3734792"><ele>439.25</ele><time>2026-04-19T13:28:37.729Z</time></trkpt><trkpt lat="44.7463338" lon="9.3735244"><ele>437.0</ele><time>2026-04-19T13:28:38.729Z</time></trkpt><trkpt lat="44.7464426" lon="9.373556"><ele>436.99999999999994</ele><time>2026-04-19T13:28:39.728Z</time></trkpt><trkpt lat="44.7465449" lon="9.3735824"><ele>437.0</ele><time>2026-04-19T13:28:40.729Z</time></trkpt><trkpt lat="44.7466374" lon="9.3735858"><ele>437.0</ele><time>2026-04-19T13:28:41.729Z</time></trkpt><trkpt lat="44.746727" lon="9.3735834"><ele>437.0</ele><time>2026-04-19T13:28:42.729Z</time></trkpt><trkpt lat="44.746814" lon="9.3735686"><ele>436.99999999999994</ele><time>2026-04-19T13:28:43.729Z</time></trkpt><trkpt lat="44.7468843" lon="9.3735612"><ele>437.0</ele><time>2026-04-19T13:28:44.729Z</time></trkpt><trkpt lat="44.746947" lon="9.3735724"><ele>436.85714285714283</ele><time>2026-04-19T13:28:45.729Z</time></trkpt><trkpt lat="44.7470077" lon="9.3736174"><ele>436.7142857142857</ele><time>2026-04-19T13:28:46.728Z</time></trkpt><trkpt lat="44.7470597" lon="9.373691"><ele>436.57142857142856</ele><time>2026-04-19T13:28:47.729Z</time></trkpt><trkpt lat="44.7471088" lon="9.3737685"><ele>436.42857142857144</ele><time>2026-04-19T13:28:48.729Z</time></trkpt><trkpt lat="44.7471688" lon="9.3738178"><ele>436.28571428571433</ele><time>2026-04-19T13:28:49.729Z</time></trkpt><trkpt lat="44.7472387" lon="9.3738455"><ele>436.14285714285717</ele><time>2026-04-19T13:28:50.729Z</time></trkpt><trkpt lat="44.7473261" lon="9.3738644"><ele>436.0</ele><time>2026-04-19T13:28:51.729Z</time></trkpt><trkpt lat="44.7474496" lon="9.3738791"><ele>429.4</ele><time>2026-04-19T13:28:52.729Z</time></trkpt><trkpt lat="44.747579" lon="9.373911"><ele>422.8</ele><time>2026-04-19T13:28:53.729Z</time></trkpt><trkpt lat="44.7476934" lon="9.3739465"><ele>416.2</ele><time>2026-04-19T13:28:54.729Z</time></trkpt><trkpt lat="44.7477788" lon="9.3739651"><ele>409.59999999999997</ele><time>2026-04-19T13:28:55.729Z</time></trkpt><trkpt lat="44.747843" lon="9.3739641"><ele>403.0</ele><time>2026-04-19T13:28:56.729Z</time></trkpt><trkpt lat="44.747953" lon="9.3739103"><ele>399.79999999999995</ele><time>2026-04-19T13:28:58.729Z</time></trkpt><trkpt lat="44.7480237" lon="9.3738651"><ele>396.6</ele><time>2026-04-19T13:28:59.729Z</time></trkpt><trkpt lat="44.7481187" lon="9.3738313"><ele>393.4</ele><time>2026-04-19T13:29:00.729Z</time></trkpt><trkpt lat="44.7482206" lon="9.3738124"><ele>390.20000000000005</ele><time>2026-04-19T13:29:01.729Z</time></trkpt><trkpt lat="44.7483251" lon="9.3738061"><ele>387.0</ele><time>2026-04-19T13:29:02.729Z</time></trkpt><trkpt lat="44.7484229" lon="9.3738002"><ele>385.6</ele><time>2026-04-19T13:29:03.729Z</time></trkpt><trkpt lat="44.748503" lon="9.3737793"><ele>384.20000000000005</ele><time>2026-04-19T13:29:04.729Z</time></trkpt><trkpt lat="44.7485858" lon="9.373729"><ele>382.8</ele><time>2026-04-19T13:29:05.728Z</time></trkpt><trkpt lat="44.7486824" lon="9.3736653"><ele>381.4</ele><time>2026-04-19T13:29:06.729Z</time></trkpt><trkpt lat="44.7487759" lon="9.3736047"><ele>380.0</ele><time>2026-04-19T13:29:07.729Z</time></trkpt><trkpt lat="44.7488541" lon="9.3735441"><ele>380.0</ele><time>2026-04-19T13:29:08.728Z</time></trkpt><trkpt lat="44.7489147" lon="9.3734645"><ele>380.0</ele><time>2026-04-19T13:29:09.729Z</time></trkpt><trkpt lat="44.7489718" lon="9.3733647"><ele>380.0</ele><time>2026-04-19T13:29:10.729Z</time></trkpt><trkpt lat="44.7490115" lon="9.3732366"><ele>380.0</ele><time>2026-04-19T13:29:11.729Z</time></trkpt><trkpt lat="44.7490516" lon="9.3730655"><ele>380.0</ele><time>2026-04-19T13:29:12.728Z</time></trkpt><trkpt lat="44.7490905" lon="9.3728932"><ele>383.75</ele><time>2026-04-19T13:29:13.729Z</time></trkpt><trkpt lat="44.7491305" lon="9.372719"><ele>387.5</ele><time>2026-04-19T13:29:14.728Z</time></trkpt><trkpt lat="44.7491694" lon="9.3725464"><ele>391.25</ele><time>2026-04-19T13:29:15.729Z</time></trkpt><trkpt lat="44.7492029" lon="9.3723833"><ele>395.0</ele><time>2026-04-19T13:29:16.729Z</time></trkpt><trkpt lat="44.7492442" lon="9.3722348"><ele>397.25</ele><time>2026-04-19T13:29:17.729Z</time></trkpt><trkpt lat="44.7493025" lon="9.3721002"><ele>399.5</ele><time>2026-04-19T13:29:18.728Z</time></trkpt><trkpt lat="44.7493704" lon="9.371964"><ele>401.75</ele><time>2026-04-19T13:29:19.729Z</time></trkpt><trkpt lat="44.7494339" lon="9.3718277"><ele>404.0</ele><time>2026-04-19T13:29:20.728Z</time></trkpt><trkpt lat="44.7494913" lon="9.3716989"><ele>393.2</ele><time>2026-04-19T13:29:21.728Z</time></trkpt><trkpt lat="44.749542" lon="9.3715544"><ele>382.4</ele><time>2026-04-19T13:29:22.729Z</time></trkpt><trkpt lat="44.7495837" lon="9.3714122"><ele>371.6</ele><time>2026-04-19T13:29:23.729Z</time></trkpt><trkpt lat="44.7496122" lon="9.3712742"><ele>360.8</ele><time>2026-04-19T13:29:24.729Z</time></trkpt><trkpt lat="44.7496247" lon="9.3711401"><ele>350.0</ele><time>2026-04-19T13:29:25.729Z</time></trkpt><trkpt lat="44.7496276" lon="9.3709977"><ele>350.0</ele><time>2026-04-19T13:29:26.729Z</time></trkpt><trkpt lat="44.7496282" lon="9.37086"><ele>350.0</ele><time>2026-04-19T13:29:27.729Z</time></trkpt><trkpt lat="44.7496275" lon="9.3707258"><ele>350.0</ele><time>2026-04-19T13:29:28.728Z</time></trkpt><trkpt lat="44.7496242" lon="9.37059"><ele>350.0</ele><time>2026-04-19T13:29:29.729Z</time></trkpt><trkpt lat="44.7496107" lon="9.3704398"><ele>350.0</ele><time>2026-04-19T13:29:30.728Z</time></trkpt><trkpt lat="44.7496006" lon="9.3703037"><ele>348.6</ele><time>2026-04-19T13:29:31.729Z</time></trkpt><trkpt lat="44.749583" lon="9.3701615"><ele>347.2</ele><time>2026-04-19T13:29:32.729Z</time></trkpt><trkpt lat="44.7495613" lon="9.3700212"><ele>345.79999999999995</ele><time>2026-04-19T13:29:33.729Z</time></trkpt><trkpt lat="44.7495403" lon="9.3698754"><ele>344.4</ele><time>2026-04-19T13:29:34.729Z</time></trkpt><trkpt lat="44.7495229" lon="9.3697338"><ele>343.0</ele><time>2026-04-19T13:29:35.728Z</time></trkpt><trkpt lat="44.7495036" lon="9.3696089"><ele>343.0</ele><time>2026-04-19T13:29:36.729Z</time></trkpt><trkpt lat="44.7495045" lon="9.3694697"><ele>343.0</ele><time>2026-04-19T13:29:38.728Z</time></trkpt><trkpt lat="44.749588" lon="9.3694491"><ele>343.0</ele><time>2026-04-19T13:29:40.728Z</time></trkpt><trkpt lat="44.7496537" lon="9.3696289"><ele>343.0</ele><time>2026-04-19T13:29:42.729Z</time></trkpt><trkpt lat="44.7497033" lon="9.3697913"><ele>343.0</ele><time>2026-04-19T13:29:43.729Z</time></trkpt><trkpt lat="44.74977" lon="9.3699741"><ele>343.0</ele><time>2026-04-19T13:29:44.729Z</time></trkpt><trkpt lat="44.7498308" lon="9.3701412"><ele>343.0</ele><time>2026-04-19T13:29:45.729Z</time></trkpt><trkpt lat="44.7498723" lon="9.3703017"><ele>343.0</ele><time>2026-04-19T13:29:46.729Z</time></trkpt><trkpt lat="44.7499114" lon="9.3704619"><ele>344.75</ele><time>2026-04-19T13:29:47.729Z</time></trkpt><trkpt lat="44.7499559" lon="9.3706448"><ele>346.5</ele><time>2026-04-19T13:29:48.729Z</time></trkpt><trkpt lat="44.7499962" lon="9.3708357"><ele>348.25</ele><time>2026-04-19T13:29:49.728Z</time></trkpt><trkpt lat="44.7500342" lon="9.3710219"><ele>350.0</ele><time>2026-04-19T13:29:50.729Z</time></trkpt><trkpt lat="44.7500662" lon="9.3711926"><ele>350.0</ele><time>2026-04-19T13:29:51.729Z</time></trkpt><trkpt lat="44.750089" lon="9.3713553"><ele>350.0</ele><time>2026-04-19T13:29:52.729Z</time></trkpt><trkpt lat="44.7500966" lon="9.371524"><ele>350.0</ele><time>2026-04-19T13:29:53.729Z</time></trkpt><trkpt lat="44.7501081" lon="9.3716797"><ele>350.0</ele><time>2026-04-19T13:29:54.729Z</time></trkpt><trkpt lat="44.7501241" lon="9.3718256"><ele>350.0</ele><time>2026-04-19T13:29:55.728Z</time></trkpt><trkpt lat="44.7501172" lon="9.3719587"><ele>350.0</ele><time>2026-04-19T13:29:56.729Z</time></trkpt><trkpt lat="44.7501018" lon="9.3720993"><ele>350.0</ele><time>2026-04-19T13:29:57.728Z</time></trkpt><trkpt lat="44.7500842" lon="9.372247"><ele>350.0</ele><time>2026-04-19T13:29:58.729Z</time></trkpt><trkpt lat="44.7500747" lon="9.3723958"><ele>350.0</ele><time>2026-04-19T13:29:59.729Z</time></trkpt><trkpt lat="44.7500664" lon="9.3725504"><ele>348.4</ele><time>2026-04-19T13:30:00.729Z</time></trkpt><trkpt lat="44.7500582" lon="9.3727138"><ele>346.8</ele><time>2026-04-19T13:30:01.729Z</time></trkpt><trkpt lat="44.7500572" lon="9.3728666"><ele>345.20000000000005</ele><time>2026-04-19T13:30:02.729Z</time></trkpt><trkpt lat="44.7500483" lon="9.3729961"><ele>343.6</ele><time>2026-04-19T13:30:03.728Z</time></trkpt><trkpt lat="44.7500381" lon="9.3731058"><ele>342.0</ele><time>2026-04-19T13:30:04.728Z</time></trkpt><trkpt lat="44.7500473" lon="9.3732118"><ele>340.0</ele><time>2026-04-19T13:30:06.729Z</time></trkpt><trkpt lat="44.750136" lon="9.3731894"><ele>338.0</ele><time>2026-04-19T13:30:08.729Z</time></trkpt><trkpt lat="44.7502011" lon="9.3731397"><ele>336.0</ele><time>2026-04-19T13:30:09.729Z</time></trkpt><trkpt lat="44.750274" lon="9.3730559"><ele>334.0</ele><time>2026-04-19T13:30:10.729Z</time></trkpt><trkpt lat="44.7503519" lon="9.3729631"><ele>332.0</ele><time>2026-04-19T13:30:11.729Z</time></trkpt><trkpt lat="44.75041" lon="9.3728621"><ele>326.0</ele><time>2026-04-19T13:30:12.729Z</time></trkpt><trkpt lat="44.7504528" lon="9.372757"><ele>320.0</ele><time>2026-04-19T13:30:13.728Z</time></trkpt><trkpt lat="44.7504769" lon="9.3726464"><ele>314.0</ele><time>2026-04-19T13:30:14.728Z</time></trkpt><trkpt lat="44.7504905" lon="9.3725126"><ele>308.0</ele><time>2026-04-19T13:30:15.729Z</time></trkpt><trkpt lat="44.7504897" lon="9.3723498"><ele>302.0</ele><time>2026-04-19T13:30:16.729Z</time></trkpt><trkpt lat="44.7504939" lon="9.3721752"><ele>302.0</ele><time>2026-04-19T13:30:17.729Z</time></trkpt><trkpt lat="44.7505097" lon="9.3720155"><ele>302.0</ele><time>2026-04-19T13:30:18.728Z</time></trkpt><trkpt lat="44.7505298" lon="9.3718592"><ele>302.0</ele><time>2026-04-19T13:30:19.729Z</time></trkpt><trkpt lat="44.750549" lon="9.3716956"><ele>302.0</ele><time>2026-04-19T13:30:20.728Z</time></trkpt><trkpt lat="44.7505703" lon="9.3715278"><ele>302.0</ele><time>2026-04-19T13:30:21.729Z</time></trkpt><trkpt lat="44.7505866" lon="9.3713593"><ele>302.0</ele><time>2026-04-19T13:30:22.729Z</time></trkpt><trkpt lat="44.7506176" lon="9.3712023"><ele>302.0</ele><time>2026-04-19T13:30:23.729Z</time></trkpt><trkpt lat="44.7506455" lon="9.3710714"><ele>302.0</ele><time>2026-04-19T13:30:24.729Z</time></trkpt><trkpt lat="44.7506821" lon="9.3709669"><ele>302.0</ele><time>2026-04-19T13:30:25.729Z</time></trkpt><trkpt lat="44.7507203" lon="9.3708848"><ele>302.8</ele><time>2026-04-19T13:30:26.729Z</time></trkpt><trkpt lat="44.7508253" lon="9.3708445"><ele>303.6</ele><time>2026-04-19T13:30:28.729Z</time></trkpt><trkpt lat="44.7508826" lon="9.3708932"><ele>304.40000000000003</ele><time>2026-04-19T13:30:29.729Z</time></trkpt><trkpt lat="44.7509468" lon="9.3709832"><ele>305.2</ele><time>2026-04-19T13:30:30.728Z</time></trkpt><trkpt lat="44.751024" lon="9.3711103"><ele>306.0</ele><time>2026-04-19T13:30:31.728Z</time></trkpt><trkpt lat="44.7511124" lon="9.3712405"><ele>306.2</ele><time>2026-04-19T13:30:32.729Z</time></trkpt><trkpt lat="44.7512024" lon="9.3713341"><ele>306.40000000000003</ele><time>2026-04-19T13:30:33.729Z</time></trkpt><trkpt lat="44.7512962" lon="9.3713874"><ele>306.6</ele><time>2026-04-19T13:30:34.728Z</time></trkpt><trkpt lat="44.7513825" lon="9.3714363"><ele>306.8</ele><time>2026-04-19T13:30:35.729Z</time></trkpt><trkpt lat="44.7514472" lon="9.3715162"><ele>307.0</ele><time>2026-04-19T13:30:36.729Z</time></trkpt><trkpt lat="44.7515044" lon="9.3716226"><ele>307.0</ele><time>2026-04-19T13:30:37.729Z</time></trkpt><trkpt lat="44.7515553" lon="9.3717606"><ele>307.0</ele><time>2026-04-19T13:30:38.729Z</time></trkpt><trkpt lat="44.751584" lon="9.3719106"><ele>307.0</ele><time>2026-04-19T13:30:39.729Z</time></trkpt><trkpt lat="44.7515956" lon="9.3720553"><ele>307.0</ele><time>2026-04-19T13:30:40.729Z</time></trkpt><trkpt lat="44.7515959" lon="9.3721777"><ele>307.0</ele><time>2026-04-19T13:30:41.729Z</time></trkpt><trkpt lat="44.7516062" lon="9.3722828"><ele>308.2</ele><time>2026-04-19T13:30:42.729Z</time></trkpt><trkpt lat="44.7516288" lon="9.3723839"><ele>309.4</ele><time>2026-04-19T13:30:43.729Z</time></trkpt><trkpt lat="44.751666" lon="9.3724986"><ele>310.6</ele><time>2026-04-19T13:30:44.728Z</time></trkpt><trkpt lat="44.751715" lon="9.3726262"><ele>311.8</ele><time>2026-04-19T13:30:45.729Z</time></trkpt><trkpt lat="44.7517978" lon="9.3727686"><ele>313.0</ele><time>2026-04-19T13:30:46.729Z</time></trkpt><trkpt lat="44.7519032" lon="9.3728879"><ele>313.0</ele><time>2026-04-19T13:30:47.729Z</time></trkpt><trkpt lat="44.751985" lon="9.3729807"><ele>313.0</ele><time>2026-04-19T13:30:48.729Z</time></trkpt><trkpt lat="44.7520527" lon="9.3730547"><ele>313.0</ele><time>2026-04-19T13:30:49.729Z</time></trkpt><trkpt lat="44.7521214" lon="9.373128"><ele>313.0</ele><time>2026-04-19T13:30:50.729Z</time></trkpt><trkpt lat="44.7521987" lon="9.3732008"><ele>313.0</ele><time>2026-04-19T13:30:51.728Z</time></trkpt><trkpt lat="44.7522835" lon="9.3732841"><ele>310.5</ele><time>2026-04-19T13:30:52.729Z</time></trkpt><trkpt lat="44.7523847" lon="9.3733756"><ele>308.0</ele><time>2026-04-19T13:30:53.729Z</time></trkpt><trkpt lat="44.7524995" lon="9.3734646"><ele>305.5</ele><time>2026-04-19T13:30:54.729Z</time></trkpt><trkpt lat="44.7526122" lon="9.3735497"><ele>303.0</ele><time>2026-04-19T13:30:55.729Z</time></trkpt><trkpt lat="44.7527056" lon="9.3736532"><ele>302.5</ele><time>2026-04-19T13:30:56.728Z</time></trkpt><trkpt lat="44.7527877" lon="9.3737797"><ele>302.0</ele><time>2026-04-19T13:30:57.728Z</time></trkpt><trkpt lat="44.7528727" lon="9.3739476"><ele>301.5</ele><time>2026-04-19T13:30:58.729Z</time></trkpt><trkpt lat="44.752972" lon="9.3741301"><ele>301.0</ele><time>2026-04-19T13:30:59.729Z</time></trkpt><trkpt lat="44.7530726" lon="9.3743011"><ele>301.0</ele><time>2026-04-19T13:31:00.728Z</time></trkpt><trkpt lat="44.7531748" lon="9.3744506"><ele>301.0</ele><time>2026-04-19T13:31:01.728Z</time></trkpt><trkpt lat="44.7532769" lon="9.3745789"><ele>301.0</ele><time>2026-04-19T13:31:02.729Z</time></trkpt><trkpt lat="44.7533731" lon="9.3746982"><ele>301.0</ele><time>2026-04-19T13:31:03.729Z</time></trkpt><trkpt lat="44.7534762" lon="9.3748054"><ele>300.5</ele><time>2026-04-19T13:31:04.728Z</time></trkpt><trkpt lat="44.7535878" lon="9.374902"><ele>300.0</ele><time>2026-04-19T13:31:05.729Z</time></trkpt><trkpt lat="44.7537109" lon="9.3750094"><ele>299.5</ele><time>2026-04-19T13:31:06.729Z</time></trkpt><trkpt lat="44.7538399" lon="9.3751267"><ele>299.0</ele><time>2026-04-19T13:31:07.729Z</time></trkpt><trkpt lat="44.7539807" lon="9.37526"><ele>299.0</ele><time>2026-04-19T13:31:08.728Z</time></trkpt><trkpt lat="44.7541237" lon="9.3754089"><ele>299.0</ele><time>2026-04-19T13:31:09.729Z</time></trkpt><trkpt lat="44.7542518" lon="9.3755522"><ele>299.0</ele><time>2026-04-19T13:31:10.729Z</time></trkpt><trkpt lat="44.7543725" lon="9.3756991"><ele>298.75</ele><time>2026-04-19T13:31:11.729Z</time></trkpt><trkpt lat="44.7544934" lon="9.3758368"><ele>298.5</ele><time>2026-04-19T13:31:12.729Z</time></trkpt><trkpt lat="44.7546153" lon="9.3759521"><ele>298.25</ele><time>2026-04-19T13:31:13.729Z</time></trkpt><trkpt lat="44.7547356" lon="9.3760495"><ele>298.0</ele><time>2026-04-19T13:31:14.729Z</time></trkpt><trkpt lat="44.7548571" lon="9.3761437"><ele>298.0</ele><time>2026-04-19T13:31:15.729Z</time></trkpt><trkpt lat="44.7549734" lon="9.3762449"><ele>298.0</ele><time>2026-04-19T13:31:16.729Z</time></trkpt><trkpt lat="44.7550746" lon="9.3763595"><ele>298.0</ele><time>2026-04-19T13:31:17.729Z</time></trkpt><trkpt lat="44.7551725" lon="9.3764724"><ele>298.0</ele><time>2026-04-19T13:31:18.728Z</time></trkpt><trkpt lat="44.7552566" lon="9.3765603"><ele>297.8333333333333</ele><time>2026-04-19T13:31:19.729Z</time></trkpt><trkpt lat="44.755308" lon="9.376639"><ele>297.66666666666663</ele><time>2026-04-19T13:31:20.728Z</time></trkpt><trkpt lat="44.7553439" lon="9.3767222"><ele>297.5</ele><time>2026-04-19T13:31:21.729Z</time></trkpt><trkpt lat="44.7553408" lon="9.376819"><ele>297.3333333333333</ele><time>2026-04-19T13:31:22.729Z</time></trkpt><trkpt lat="44.7553211" lon="9.3769467"><ele>297.1666666666667</ele><time>2026-04-19T13:31:23.729Z</time></trkpt><trkpt lat="44.7553037" lon="9.3771078"><ele>297.0</ele><time>2026-04-19T13:31:24.728Z</time></trkpt><trkpt lat="44.7552992" lon="9.3772961"><ele>295.25</ele><time>2026-04-19T13:31:25.729Z</time></trkpt><trkpt lat="44.7553088" lon="9.3774719"><ele>293.5</ele><time>2026-04-19T13:31:26.729Z</time></trkpt><trkpt lat="44.7553413" lon="9.3776496"><ele>291.75</ele><time>2026-04-19T13:31:27.729Z</time></trkpt><trkpt lat="44.7553914" lon="9.377839"><ele>290.0</ele><time>2026-04-19T13:31:28.729Z</time></trkpt><trkpt lat="44.7554555" lon="9.3780329"><ele>289.0</ele><time>2026-04-19T13:31:29.729Z</time></trkpt><trkpt lat="44.7555079" lon="9.3782201"><ele>288.0</ele><time>2026-04-19T13:31:30.729Z</time></trkpt><trkpt lat="44.7555448" lon="9.3784007"><ele>287.0</ele><time>2026-04-19T13:31:31.729Z</time></trkpt><trkpt lat="44.7555608" lon="9.3785716"><ele>286.0</ele><time>2026-04-19T13:31:32.729Z</time></trkpt><trkpt lat="44.7555688" lon="9.3787318"><ele>285.6</ele><time>2026-04-19T13:31:33.729Z</time></trkpt><trkpt lat="44.7555724" lon="9.3788889"><ele>285.20000000000005</ele><time>2026-04-19T13:31:34.729Z</time></trkpt><trkpt lat="44.7555873" lon="9.3790066"><ele>284.79999999999995</ele><time>2026-04-19T13:31:35.729Z</time></trkpt><trkpt lat="44.7556338" lon="9.3791319"><ele>284.4</ele><time>2026-04-19T13:31:37.728Z</time></trkpt><trkpt lat="44.7556947" lon="9.3792233"><ele>284.0</ele><time>2026-04-19T13:31:39.729Z</time></trkpt><trkpt lat="44.7557779" lon="9.3793317"><ele>284.0</ele><time>2026-04-19T13:31:41.729Z</time></trkpt><trkpt lat="44.7558316" lon="9.3793992"><ele>284.0</ele><time>2026-04-19T13:31:42.729Z</time></trkpt><trkpt lat="44.7558798" lon="9.3794687"><ele>284.0</ele><time>2026-04-19T13:31:43.729Z</time></trkpt><trkpt lat="44.7559275" lon="9.3795383"><ele>284.0</ele><time>2026-04-19T13:31:44.729Z</time></trkpt><trkpt lat="44.7559723" lon="9.379604"><ele>284.0</ele><time>2026-04-19T13:31:45.728Z</time></trkpt><trkpt lat="44.7560159" lon="9.3796713"><ele>284.0</ele><time>2026-04-19T13:31:46.729Z</time></trkpt><trkpt lat="44.7561202" lon="9.3797829"><ele>284.0</ele><time>2026-04-19T13:31:48.729Z</time></trkpt><trkpt lat="44.7561777" lon="9.3798335"><ele>284.0</ele><time>2026-04-19T13:31:49.728Z</time></trkpt><trkpt lat="44.7562347" lon="9.3798804"><ele>284.0</ele><time>2026-04-19T13:31:50.729Z</time></trkpt><trkpt lat="44.756301" lon="9.379925"><ele>284.0</ele><time>2026-04-19T13:31:51.729Z</time></trkpt><trkpt lat="44.7563775" lon="9.379981"><ele>284.0</ele><time>2026-04-19T13:31:52.728Z</time></trkpt><trkpt lat="44.7564582" lon="9.3800341"><ele>284.0</ele><time>2026-04-19T13:31:53.729Z</time></trkpt><trkpt lat="44.756529" lon="9.3800752"><ele>284.0</ele><time>2026-04-19T13:31:54.729Z</time></trkpt><trkpt lat="44.7565958" lon="9.3801126"><ele>284.0</ele><time>2026-04-19T13:31:55.729Z</time></trkpt><trkpt lat="44.7566661" lon="9.3801513"><ele>284.0</ele><time>2026-04-19T13:31:56.729Z</time></trkpt><trkpt lat="44.7567334" lon="9.3801883"><ele>284.0</ele><time>2026-04-19T13:31:57.728Z</time></trkpt><trkpt lat="44.7568024" lon="9.3802312"><ele>284.0</ele><time>2026-04-19T13:31:58.729Z</time></trkpt><trkpt lat="44.7568729" lon="9.3802777"><ele>284.0</ele><time>2026-04-19T13:31:59.729Z</time></trkpt><trkpt lat="44.7569396" lon="9.3803191"><ele>284.0</ele><time>2026-04-19T13:32:00.729Z</time></trkpt><trkpt lat="44.7570081" lon="9.3803665"><ele>284.1666666666667</ele><time>2026-04-19T13:32:01.729Z</time></trkpt><trkpt lat="44.7570814" lon="9.3804148"><ele>284.33333333333337</ele><time>2026-04-19T13:32:02.729Z</time></trkpt><trkpt lat="44.7571575" lon="9.3804715"><ele>284.5</ele><time>2026-04-19T13:32:03.729Z</time></trkpt><trkpt lat="44.7572345" lon="9.3805323"><ele>284.6666666666667</ele><time>2026-04-19T13:32:04.729Z</time></trkpt><trkpt lat="44.75731" lon="9.3805891"><ele>284.8333333333333</ele><time>2026-04-19T13:32:05.729Z</time></trkpt><trkpt lat="44.7573765" lon="9.380632"><ele>285.0</ele><time>2026-04-19T13:32:06.729Z</time></trkpt><trkpt lat="44.7574422" lon="9.380677"><ele>284.1428571428571</ele><time>2026-04-19T13:32:07.728Z</time></trkpt><trkpt lat="44.7575054" lon="9.3807228"><ele>283.2857142857143</ele><time>2026-04-19T13:32:08.729Z</time></trkpt><trkpt lat="44.7575716" lon="9.3807543"><ele>282.42857142857144</ele><time>2026-04-19T13:32:09.728Z</time></trkpt><trkpt lat="44.7576412" lon="9.3807878"><ele>281.57142857142856</ele><time>2026-04-19T13:32:10.728Z</time></trkpt><trkpt lat="44.7577043" lon="9.3808151"><ele>280.7142857142857</ele><time>2026-04-19T13:32:11.729Z</time></trkpt><trkpt lat="44.757772" lon="9.3808424"><ele>279.85714285714283</ele><time>2026-04-19T13:32:12.728Z</time></trkpt><trkpt lat="44.7578444" lon="9.3808659"><ele>279.0</ele><time>2026-04-19T13:32:13.729Z</time></trkpt><trkpt lat="44.7579226" lon="9.3808872"><ele>278.8333333333333</ele><time>2026-04-19T13:32:14.728Z</time></trkpt><trkpt lat="44.758002" lon="9.3809062"><ele>278.6666666666667</ele><time>2026-04-19T13:32:15.729Z</time></trkpt><trkpt lat="44.7580813" lon="9.3809352"><ele>278.5</ele><time>2026-04-19T13:32:16.728Z</time></trkpt><trkpt lat="44.7581616" lon="9.3809662"><ele>278.33333333333337</ele><time>2026-04-19T13:32:17.729Z</time></trkpt><trkpt lat="44.7582398" lon="9.3810005"><ele>278.1666666666667</ele><time>2026-04-19T13:32:18.728Z</time></trkpt><trkpt lat="44.7583302" lon="9.381033"><ele>278.0</ele><time>2026-04-19T13:32:19.729Z</time></trkpt><trkpt lat="44.7584237" lon="9.3810542"><ele>278.0</ele><time>2026-04-19T13:32:20.729Z</time></trkpt><trkpt lat="44.7585133" lon="9.3810802"><ele>278.0</ele><time>2026-04-19T13:32:21.729Z</time></trkpt><trkpt lat="44.7586094" lon="9.3811132"><ele>278.0</ele><time>2026-04-19T13:32:22.729Z</time></trkpt><trkpt lat="44.7587052" lon="9.3811512"><ele>278.0</ele><time>2026-04-19T13:32:23.729Z</time></trkpt><trkpt lat="44.7588057" lon="9.3811961"><ele>278.0</ele><time>2026-04-19T13:32:24.729Z</time></trkpt><trkpt lat="44.7589065" lon="9.3812366"><ele>278.2</ele><time>2026-04-19T13:32:25.729Z</time></trkpt><trkpt lat="44.7590007" lon="9.3812641"><ele>278.4</ele><time>2026-04-19T13:32:26.729Z</time></trkpt><trkpt lat="44.7590948" lon="9.3812914"><ele>278.59999999999997</ele><time>2026-04-19T13:32:27.728Z</time></trkpt><trkpt lat="44.7591892" lon="9.3813208"><ele>278.8</ele><time>2026-04-19T13:32:28.729Z</time></trkpt><trkpt lat="44.7592855" lon="9.3813447"><ele>279.0</ele><time>2026-04-19T13:32:29.729Z</time></trkpt><trkpt lat="44.7593665" lon="9.3813611"><ele>276.8333333333333</ele><time>2026-04-19T13:32:30.729Z</time></trkpt><trkpt lat="44.7594444" lon="9.3813863"><ele>274.6666666666667</ele><time>2026-04-19T13:32:31.729Z</time></trkpt><trkpt lat="44.7595239" lon="9.3814126"><ele>272.5</ele><time>2026-04-19T13:32:32.728Z</time></trkpt><trkpt lat="44.7595872" lon="9.381432"><ele>270.33333333333337</ele><time>2026-04-19T13:32:33.729Z</time></trkpt><trkpt lat="44.7596984" lon="9.3814669"><ele>268.1666666666667</ele><time>2026-04-19T13:32:35.728Z</time></trkpt><trkpt lat="44.759761" lon="9.3814847"><ele>266.0</ele><time>2026-04-19T13:32:36.728Z</time></trkpt><trkpt lat="44.7598241" lon="9.381494"><ele>266.0</ele><time>2026-04-19T13:32:37.729Z</time></trkpt><trkpt lat="44.7599391" lon="9.3815121"><ele>266.0</ele><time>2026-04-19T13:32:39.729Z</time></trkpt><trkpt lat="44.7600437" lon="9.3815456"><ele>266.0</ele><time>2026-04-19T13:32:41.729Z</time></trkpt><trkpt lat="44.760122" lon="9.3816027"><ele>266.0</ele><time>2026-04-19T13:32:43.729Z</time></trkpt><trkpt lat="44.7601757" lon="9.3816635"><ele>266.0</ele><time>2026-04-19T13:32:59.729Z</time></trkpt><trkpt lat="44.7602733" lon="9.3817437"><ele>266.5</ele><time>2026-04-19T13:33:01.729Z</time></trkpt><trkpt lat="44.7603618" lon="9.3817983"><ele>267.0</ele><time>2026-04-19T13:33:02.728Z</time></trkpt><trkpt lat="44.7604769" lon="9.3818684"><ele>267.5</ele><time>2026-04-19T13:33:03.729Z</time></trkpt><trkpt lat="44.7606363" lon="9.3819738"><ele>268.0</ele><time>2026-04-19T13:33:04.729Z</time></trkpt><trkpt lat="44.7608061" lon="9.3820862"><ele>266.3333333333333</ele><time>2026-04-19T13:33:05.728Z</time></trkpt><trkpt lat="44.7609574" lon="9.3821822"><ele>264.6666666666667</ele><time>2026-04-19T13:33:06.728Z</time></trkpt><trkpt lat="44.7610916" lon="9.38227"><ele>263.0</ele><time>2026-04-19T13:33:07.729Z</time></trkpt><trkpt lat="44.7612275" lon="9.3823671"><ele>263.0</ele><time>2026-04-19T13:33:08.728Z</time></trkpt><trkpt lat="44.7613695" lon="9.3824605"><ele>263.0</ele><time>2026-04-19T13:33:09.729Z</time></trkpt><trkpt lat="44.761515" lon="9.3825587"><ele>263.0</ele><time>2026-04-19T13:33:10.729Z</time></trkpt><trkpt lat="44.7616615" lon="9.3826514"><ele>263.0</ele><time>2026-04-19T13:33:11.729Z</time></trkpt><trkpt lat="44.7618055" lon="9.3827504"><ele>263.0</ele><time>2026-04-19T13:33:12.729Z</time></trkpt><trkpt lat="44.7619564" lon="9.3828477"><ele>263.0</ele><time>2026-04-19T13:33:13.728Z</time></trkpt><trkpt lat="44.7621158" lon="9.3829618"><ele>263.0</ele><time>2026-04-19T13:33:14.729Z</time></trkpt><trkpt lat="44.7622732" lon="9.3830671"><ele>263.0</ele><time>2026-04-19T13:33:15.729Z</time></trkpt><trkpt lat="44.762419" lon="9.3831777"><ele>263.0</ele><time>2026-04-19T13:33:16.729Z</time></trkpt><trkpt lat="44.7625593" lon="9.3832993"><ele>263.0</ele><time>2026-04-19T13:33:17.728Z</time></trkpt><trkpt lat="44.7626962" lon="9.3834392"><ele>263.0</ele><time>2026-04-19T13:33:18.729Z</time></trkpt><trkpt lat="44.7628258" lon="9.3835863"><ele>263.0</ele><time>2026-04-19T13:33:19.729Z</time></trkpt><trkpt lat="44.7629533" lon="9.3837423"><ele>264.6666666666667</ele><time>2026-04-19T13:33:20.729Z</time></trkpt><trkpt lat="44.7630727" lon="9.3839015"><ele>266.3333333333333</ele><time>2026-04-19T13:33:21.729Z</time></trkpt><trkpt lat="44.7631896" lon="9.3840678"><ele>268.0</ele><time>2026-04-19T13:33:22.729Z</time></trkpt><trkpt lat="44.7632858" lon="9.3842483"><ele>268.0</ele><time>2026-04-19T13:33:23.729Z</time></trkpt><trkpt lat="44.763369" lon="9.3844323"><ele>268.0</ele><time>2026-04-19T13:33:24.729Z</time></trkpt><trkpt lat="44.7634555" lon="9.3846064"><ele>268.0</ele><time>2026-04-19T13:33:25.729Z</time></trkpt><trkpt lat="44.7635328" lon="9.3847668"><ele>268.0</ele><time>2026-04-19T13:33:26.729Z</time></trkpt><trkpt lat="44.7636105" lon="9.3849233"><ele>267.5</ele><time>2026-04-19T13:33:27.728Z</time></trkpt><trkpt lat="44.7636913" lon="9.385083"><ele>267.0</ele><time>2026-04-19T13:33:28.728Z</time></trkpt><trkpt lat="44.7637744" lon="9.3852368"><ele>266.5</ele><time>2026-04-19T13:33:29.729Z</time></trkpt><trkpt lat="44.7638502" lon="9.385389"><ele>266.0</ele><time>2026-04-19T13:33:30.729Z</time></trkpt><trkpt lat="44.7639275" lon="9.3855482"><ele>266.0</ele><time>2026-04-19T13:33:31.729Z</time></trkpt><trkpt lat="44.7640023" lon="9.3857035"><ele>266.0</ele><time>2026-04-19T13:33:32.729Z</time></trkpt><trkpt lat="44.7640716" lon="9.3858544"><ele>266.0</ele><time>2026-04-19T13:33:33.729Z</time></trkpt><trkpt lat="44.7641358" lon="9.3859606"><ele>266.0</ele><time>2026-04-19T13:33:34.728Z</time></trkpt><trkpt lat="44.7641906" lon="9.386022"><ele>266.0</ele><time>2026-04-19T13:33:35.728Z</time></trkpt><trkpt lat="44.7642509" lon="9.3860599"><ele>266.0</ele><time>2026-04-19T13:33:36.729Z</time></trkpt><trkpt lat="44.7643206" lon="9.3860728"><ele>266.0</ele><time>2026-04-19T13:33:37.728Z</time></trkpt><trkpt lat="44.7644126" lon="9.3860752"><ele>266.0</ele><time>2026-04-19T13:33:38.729Z</time></trkpt><trkpt lat="44.7645202" lon="9.3860891"><ele>266.0</ele><time>2026-04-19T13:33:39.729Z</time></trkpt><trkpt lat="44.7646348" lon="9.3861114"><ele>266.0</ele><time>2026-04-19T13:33:40.728Z</time></trkpt><trkpt lat="44.7647414" lon="9.3861474"><ele>266.6</ele><time>2026-04-19T13:33:41.728Z</time></trkpt><trkpt lat="44.7648384" lon="9.3861823"><ele>267.20000000000005</ele><time>2026-04-19T13:33:42.729Z</time></trkpt><trkpt lat="44.7649364" lon="9.3862137"><ele>267.79999999999995</ele><time>2026-04-19T13:33:43.729Z</time></trkpt><trkpt lat="44.765038" lon="9.3862484"><ele>268.4</ele><time>2026-04-19T13:33:44.729Z</time></trkpt><trkpt lat="44.7651491" lon="9.3862819"><ele>269.0</ele><time>2026-04-19T13:33:45.729Z</time></trkpt><trkpt lat="44.7652635" lon="9.386313"><ele>269.1666666666667</ele><time>2026-04-19T13:33:46.728Z</time></trkpt><trkpt lat="44.7653767" lon="9.3863477"><ele>269.33333333333337</ele><time>2026-04-19T13:33:47.729Z</time></trkpt><trkpt lat="44.7654725" lon="9.3863824"><ele>269.5</ele><time>2026-04-19T13:33:48.729Z</time></trkpt><trkpt lat="44.7655635" lon="9.386416"><ele>269.6666666666667</ele><time>2026-04-19T13:33:49.728Z</time></trkpt><trkpt lat="44.7656366" lon="9.3864387"><ele>269.8333333333333</ele><time>2026-04-19T13:33:50.729Z</time></trkpt><trkpt lat="44.7656992" lon="9.3864629"><ele>270.0</ele><time>2026-04-19T13:33:51.728Z</time></trkpt><trkpt lat="44.7658277" lon="9.3865211"><ele>270.0</ele><time>2026-04-19T13:33:53.729Z</time></trkpt><trkpt lat="44.7658939" lon="9.3865603"><ele>270.0</ele><time>2026-04-19T13:33:54.729Z</time></trkpt><trkpt lat="44.7659789" lon="9.3866269"><ele>270.0</ele><time>2026-04-19T13:33:56.729Z</time></trkpt><trkpt lat="44.7660652" lon="9.3866119"><ele>270.0</ele><time>2026-04-19T13:33:59.728Z</time></trkpt><trkpt lat="44.7661308" lon="9.386494"><ele>270.0</ele><time>2026-04-19T13:34:01.729Z</time></trkpt><trkpt lat="44.7661528" lon="9.3863936"><ele>270.0</ele><time>2026-04-19T13:34:02.729Z</time></trkpt><trkpt lat="44.7661663" lon="9.3862576"><ele>273.25</ele><time>2026-04-19T13:34:03.729Z</time></trkpt><trkpt lat="44.7661569" lon="9.386083"><ele>276.5</ele><time>2026-04-19T13:34:04.729Z</time></trkpt><trkpt lat="44.7661466" lon="9.3858839"><ele>279.75</ele><time>2026-04-19T13:34:05.728Z</time></trkpt><trkpt lat="44.7661431" lon="9.3856915"><ele>283.0</ele><time>2026-04-19T13:34:06.729Z</time></trkpt><trkpt lat="44.7661604" lon="9.3855083"><ele>283.0</ele><time>2026-04-19T13:34:07.728Z</time></trkpt><trkpt lat="44.7661889" lon="9.3853394"><ele>283.0</ele><time>2026-04-19T13:34:08.729Z</time></trkpt><trkpt lat="44.7662245" lon="9.3851698"><ele>283.0</ele><time>2026-04-19T13:34:09.729Z</time></trkpt><trkpt lat="44.7662666" lon="9.3850152"><ele>283.0</ele><time>2026-04-19T13:34:10.729Z</time></trkpt><trkpt lat="44.7663008" lon="9.3848747"><ele>283.0</ele><time>2026-04-19T13:34:11.728Z</time></trkpt><trkpt lat="44.7663287" lon="9.3847506"><ele>283.0</ele><time>2026-04-19T13:34:12.729Z</time></trkpt><trkpt lat="44.7663408" lon="9.3846287"><ele>283.0</ele><time>2026-04-19T13:34:13.729Z</time></trkpt><trkpt lat="44.7663516" lon="9.3845313"><ele>283.0</ele><time>2026-04-19T13:34:14.729Z</time></trkpt><trkpt lat="44.7663764" lon="9.3843806"><ele>283.0</ele><time>2026-04-19T13:34:16.729Z</time></trkpt><trkpt lat="44.766394" lon="9.3842567"><ele>283.0</ele><time>2026-04-19T13:34:18.729Z</time></trkpt><trkpt lat="44.7664327" lon="9.384131"><ele>283.0</ele><time>2026-04-19T13:34:20.729Z</time></trkpt><trkpt lat="44.7664598" lon="9.3839917"><ele>283.0</ele><time>2026-04-19T13:34:22.728Z</time></trkpt><trkpt lat="44.766487" lon="9.3838678"><ele>283.0</ele><time>2026-04-19T13:34:24.729Z</time></trkpt><trkpt lat="44.7665179" lon="9.3837763"><ele>283.0</ele><time>2026-04-19T13:34:26.728Z</time></trkpt><trkpt lat="44.7665927" lon="9.3836686"><ele>283.0</ele><time>2026-04-19T13:34:28.729Z</time></trkpt><trkpt lat="44.7666558" lon="9.3836023"><ele>282.8333333333333</ele><time>2026-04-19T13:34:29.729Z</time></trkpt><trkpt lat="44.7667383" lon="9.3835341"><ele>282.66666666666663</ele><time>2026-04-19T13:34:30.729Z</time></trkpt><trkpt lat="44.7668207" lon="9.383462"><ele>282.5</ele><time>2026-04-19T13:34:31.729Z</time></trkpt><trkpt lat="44.7668939" lon="9.3833927"><ele>282.3333333333333</ele><time>2026-04-19T13:34:32.729Z</time></trkpt><trkpt lat="44.766956" lon="9.3833266"><ele>282.1666666666667</ele><time>2026-04-19T13:34:33.728Z</time></trkpt><trkpt lat="44.7670097" lon="9.3832768"><ele>282.0</ele><time>2026-04-19T13:34:34.728Z</time></trkpt><trkpt lat="44.7671251" lon="9.3831731"><ele>284.4</ele><time>2026-04-19T13:34:36.729Z</time></trkpt><trkpt lat="44.7671982" lon="9.3831119"><ele>286.79999999999995</ele><time>2026-04-19T13:34:37.729Z</time></trkpt><trkpt lat="44.7672779" lon="9.383034"><ele>289.2</ele><time>2026-04-19T13:34:38.729Z</time></trkpt><trkpt lat="44.7673779" lon="9.382941"><ele>291.59999999999997</ele><time>2026-04-19T13:34:39.728Z</time></trkpt><trkpt lat="44.7674751" lon="9.3828452"><ele>294.0</ele><time>2026-04-19T13:34:40.729Z</time></trkpt><trkpt lat="44.7675439" lon="9.3827801"><ele>294.8</ele><time>2026-04-19T13:34:41.729Z</time></trkpt><trkpt lat="44.7676346" lon="9.3827098"><ele>295.59999999999997</ele><time>2026-04-19T13:34:43.729Z</time></trkpt><trkpt lat="44.767753" lon="9.3826089"><ele>296.4</ele><time>2026-04-19T13:34:45.728Z</time></trkpt><trkpt lat="44.7678244" lon="9.3825527"><ele>297.2</ele><time>2026-04-19T13:34:46.729Z</time></trkpt><trkpt lat="44.7678978" lon="9.3825024"><ele>298.0</ele><time>2026-04-19T13:34:47.729Z</time></trkpt><trkpt lat="44.767965" lon="9.3824637"><ele>299.8</ele><time>2026-04-19T13:34:48.728Z</time></trkpt><trkpt lat="44.7680589" lon="9.3823688"><ele>301.6</ele><time>2026-04-19T13:34:50.729Z</time></trkpt><trkpt lat="44.7680927" lon="9.3822497"><ele>303.4</ele><time>2026-04-19T13:34:51.728Z</time></trkpt><trkpt lat="44.7681356" lon="9.3821179"><ele>305.2</ele><time>2026-04-19T13:34:52.729Z</time></trkpt><trkpt lat="44.7681889" lon="9.3819772"><ele>307.0</ele><time>2026-04-19T13:34:53.729Z</time></trkpt><trkpt lat="44.7682514" lon="9.3818247"><ele>307.4</ele><time>2026-04-19T13:34:54.729Z</time></trkpt><trkpt lat="44.7683224" lon="9.381684"><ele>307.79999999999995</ele><time>2026-04-19T13:34:55.729Z</time></trkpt><trkpt lat="44.7683937" lon="9.3815705"><ele>308.2</ele><time>2026-04-19T13:34:56.728Z</time></trkpt><trkpt lat="44.7684534" lon="9.3814721"><ele>308.59999999999997</ele><time>2026-04-19T13:34:57.729Z</time></trkpt><trkpt lat="44.768501" lon="9.3813992"><ele>309.0</ele><time>2026-04-19T13:34:58.729Z</time></trkpt><trkpt lat="44.7685599" lon="9.3813502"><ele>313.0</ele><time>2026-04-19T13:35:01.729Z</time></trkpt></trkseg></trk></gpx>